GFSGL_sfc_temp_000.txt.gz
Temp
64 62 61 59 58 58 57 56 56 56 56 56 55 54 52 47 45 45 46 48 49 49 50 50 50 51 51 52 52 52 50 50 46 50 54 56 55 55 56 57 57 57 58
60 59 59 58 58 57 55 55 54 53 53 53 50 46 46 46 47 47 48 49 49 48 49 49 48 51 49 49 50 48 48 50 47 45 50 52 52 55 55 54 56 58 58
58 58 57 56 55 54 52 51 50 48 47 46 47 46 46 46 48 49 49 49 49 48 48 47 47 47 46 47 47 46 47 48 48 46 46 50 51 53 52 53 53 54 56
56 56 55 54 51 49 47 48 49 50 49 50 50 49 48 48 48 49 49 48 47 47 46 45 45 44 44 44 44 44 45 45 45 45 45 46 48 50 50 48 47 51 51
54 54 51 52 52 52 51 51 51 50 50 50 49 48 48 48 48 44 46 46 45 45 44 45 44 43 39 39 40 41 42 42 43 43 43 44 44 45 44 47 45 47 48
53 50 51 52 52 51 50 50 50 49 49 48 47 47 46 47 36 36 38 42 43 43 43 44 44 41 41 38 37 36 37 37 39 39 38 37 40 41 43 41 40 39 37
51 51 51 51 50 49 50 49 48 47 47 46 45 45 44 44 35 35 34 39 40 41 41 41 41 43 39 41 38 36 35 35 33 34 32 34 35 38 39 37 38 37 38
51 51 51 50 48 49 48 47 47 47 45 45 44 43 42 43 35 33 32 37 38 39 39 40 39 40 40 37 36 35 35 37 38 38 37 37 39 40 40 41 40 39 39
50 49 49 49 47 47 47 46 46 45 44 43 42 41 40 40 35 32 32 34 35 35 38 39 37 34 34 34 33 31 34 36 38 37 37 36 36 36 37 38 34 34 32
49 48 50 49 47 46 46 46 46 45 43 42 39 39 36 36 34 32 32 32 30 31 33 34 33 35 33 33 31 31 30 34 36 37 38 36 36 38 35 37 37 32 33
51 50 50 49 47 47 46 46 45 44 40 35 32 34 35 34 33 32 31 29 30 29 31 33 36 31 29 29 30 30 30 32 32 33 34 35 37 38 39 39 39 36 34
51 50 48 48 47 47 46 46 44 42 37 32 32 33 35 33 33 32 31 30 30 29 30 32 32 29 29 28 29 29 28 29 30 30 31 32 33 36 39 40 40 40 40
48 47 47 46 46 46 45 43 41 39 33 32 33 32 33 34 33 30 29 29 30 29 31 28 27 27 28 29 27 27 27 30 29 29 30 31 34 37 38 37 38 40 40
46 46 46 45 44 45 44 42 40 35 32 32 32 31 31 31 30 30 30 30 29 29 29 30 27 26 27 27 29 29 29 29 28 28 30 32 34 34 34 36 34 35 34
45 45 43 42 42 42 42 41 37 36 32 30 30 30 27 25 26 27 26 26 26 26 27 27 26 25 26 28 28 28 29 30 28 29 30 30 32 34 35 36 35 35 32
40 41 41 39 40 39 40 39 31 29 28 28 27 27 28 27 26 25 25 24 24 24 25 23 21 22 24 26 26 26 27 27 28 28 29 29 30 32 33 33 33 34 33
37 36 39 36 38 37 36 35 32 34 28 27 26 26 25 25 25 24 23 23 23 24 22 21 20 21 23 25 25 25 25 26 27 27 28 28 29 31 32 32 32 31 32
35 31 37 38 38 36 34 32 32 30 29 29 29 26 25 25 24 23 22 23 21 21 20 20 19 21 23 24 24 23 24 25 26 26 27 28 28 28 30 30 32 30 32
36 36 34 35 34 32 32 32 31 30 30 29 29 28 27 25 24 23 23 21 19 19 19 20 21 22 22 24 23 23 24 24 25 25 26 26 27 28 28 29 30 29 30
36 32 32 34 34 33 32 31 31 30 30 28 27 25 25 25 22 22 22 21 20 20 20 21 21 22 22 22 23 24 25 24 24 25 25 26 26 27 27 28 28 28 28
36 35 29 34 33 32 31 30 30 29 28 28 27 24 21 23 21 21 21 20 20 20 20 21 21 21 22 22 23 23 24 24 24 24 25 26 27 26 28 28 28 29 29
35 34 34 32 32 31 31 30 29 29 28 27 27 26 21 23 22 21 22 21 20 21 21 21 21 21 21 20 21 21 22 23 23 23 23 25 26 27 27 27 27 27 28
33 32 32 32 31 30 29 30 29 28 28 27 27 27 25 23 22 22 22 21 21 20 20 20 20 19 20 21 21 21 21 21 22 23 23 25 26 25 26 26 26 26 26
33 31 32 31 30 29 29 28 28 27 27 27 27 26 25 25 23 23 22 22 22 21 21 19 19 19 19 19 20 21 20 19 21 22 23 24 25 25 26 26 26 25 25
32 31 31 31 30 29 29 28 28 28 27 27 27 27 26 25 24 24 24 23 22 21 20 20 19 19 18 18 18 18 16 16 18 17 24 25 23 23 23 25 24 26 24
32 32 31 31 30 30 29 28 28 28 27 27 27 27 26 25 25 24 24 23 22 22 20 20 20 18 18 20 18 16 15 15 16 16 22 24 22 22 23 22 22 24 23

GFSGL_sfc_temp_003.txt.gz
Temp
67 64 62 62 62 61 60 59 57 56 55 52 51 50 49 47 47 46 48 48 47 47 48 49 49 50 50 51 51 50 50 50 45 49 54 56 56 56 57 59 58 57 57
62 62 61 61 61 60 58 56 54 53 52 51 49 48 47 46 46 46 46 47 47 47 47 47 47 50 49 50 50 48 49 50 47 45 50 51 52 55 56 55 57 59 58
61 61 60 59 58 57 55 54 53 53 53 52 52 50 49 49 49 49 49 48 48 47 47 47 47 47 46 47 47 47 48 49 48 47 46 50 52 53 53 54 54 55 57
60 59 58 56 56 55 54 54 54 54 52 52 52 51 50 50 50 50 49 47 47 48 48 47 47 46 45 44 44 45 45 45 45 45 45 46 48 50 51 49 48 52 52
58 58 55 56 56 55 54 53 53 52 52 52 51 50 50 50 48 45 45 43 43 44 45 47 47 46 41 41 42 41 40 40 41 42 42 44 46 46 46 49 47 48 50
57 56 56 55 54 53 52 52 52 51 51 50 49 49 48 49 36 36 36 40 40 40 41 43 45 43 43 39 38 38 38 37 36 38 39 39 41 43 45 44 43 41 39
57 56 56 54 52 51 52 52 50 49 49 48 48 47 46 45 36 35 34 38 37 38 39 41 41 44 41 42 40 38 37 36 33 35 32 34 36 39 40 39 39 39 38
56 55 55 52 51 51 50 50 49 49 48 47 46 45 44 44 36 34 33 36 36 37 38 39 39 39 41 39 37 37 37 37 37 38 37 37 39 40 40 39 38 39 40
55 54 52 52 49 49 49 49 49 48 47 46 45 43 40 39 37 34 33 33 33 33 36 37 37 36 36 35 33 32 33 35 39 38 37 37 37 37 37 38 33 32 32
54 54 53 52 49 48 49 48 48 48 46 45 42 40 37 36 36 34 33 32 29 31 33 35 34 35 33 33 32 31 29 33 35 35 36 36 35 37 36 37 36 32 32
55 53 52 51 50 50 50 49 48 47 44 39 36 37 37 36 36 34 32 31 30 29 30 31 34 28 29 29 30 30 30 31 31 32 33 35 37 38 39 39 39 36 33
52 51 51 51 50 51 48 48 47 45 41 37 33 34 37 36 35 33 32 31 29 28 28 31 30 29 29 29 29 30 28 29 30 29 30 31 32 34 38 40 40 39 39
47 47 49 50 50 50 47 46 44 43 38 34 35 34 34 35 34 33 30 29 29 28 29 29 29 28 28 29 28 28 28 29 30 29 29 31 33 36 37 37 37 38 38
46 47 48 47 45 47 47 46 43 39 34 34 32 31 31 30 32 30 28 29 28 27 27 28 28 27 28 28 29 30 30 30 29 29 30 32 34 34 33 35 34 35 34
44 46 44 45 45 44 45 43 41 38 33 31 30 29 26 26 28 27 26 25 25 25 25 27 25 24 25 28 29 29 30 30 29 29 29 30 31 32 33 36 36 35 33
41 42 42 41 42 41 42 41 31 31 30 29 27 27 28 27 27 27 26 25 25 25 25 22 21 22 23 25 25 26 28 27 28 29 29 30 29 30 31 33 36 34 33
38 38 40 39 39 38 37 35 33 34 30 29 27 27 27 26 26 26 26 25 24 25 22 21 20 21 24 26 25 25 25 27 28 28 28 27 29 29 29 31 33 33 33
37 34 36 37 37 36 34 32 33 31 30 32 29 27 28 26 26 25 25 26 23 23 22 21 21 22 24 25 25 24 26 27 27 27 27 28 28 28 29 29 30 31 32
38 36 34 34 34 33 33 33 33 32 32 32 32 32 30 28 25 25 25 23 21 21 21 22 23 23 23 24 24 25 25 25 25 26 27 27 28 29 29 29 29 30 31
42 34 33 34 33 33 33 32 31 31 31 31 30 30 28 27 25 24 24 23 22 22 21 22 23 23 23 23 23 24 25 25 24 24 25 27 28 29 27 28 29 28 29
40 37 33 34 33 33 32 31 31 30 30 30 30 27 24 24 25 24 23 23 22 22 21 22 22 22 23 23 23 23 24 24 24 24 24 26 27 27 29 29 29 29 29
35 34 33 32 33 32 31 31 31 30 30 30 30 30 25 26 26 24 24 23 23 23 22 22 22 22 22 21 21 21 22 22 22 23 23 25 27 27 27 27 28 27 28
34 32 32 33 33 31 31 31 30 30 30 29 30 29 29 28 26 25 24 24 24 23 23 22 21 20 21 21 22 22 20 19 19 21 21 24 25 26 27 27 27 26 26
34 32 32 32 32 31 30 30 29 29 29 29 29 29 29 28 27 26 25 25 24 24 23 22 21 20 20 20 21 21 21 18 19 19 20 24 24 25 25 26 26 26 26
33 32 32 32 32 31 30 30 29 29 30 29 29 29 29 29 28 27 27 26 25 24 23 22 22 21 20 20 19 18 16 16 17 17 21 24 23 23 23 24 23 26 25
33 32 32 32 32 31 31 29 29 29 29 29 29 29 29 28 28 27 27 26 25 24 23 22 22 21 21 22 20 17 16 15 15 15 20 22 21 21 20 22 21 23 23

GFSGL_sfc_temp_006.txt.gz
Temp
60 58 56 56 56 55 54 51 50 50 49 49 49 48 47 46 44 43 43 44 44 42 43 44 44 45 44 44 45 44 42 40 37 42 45 47 47 48 51 51 53 49 47
58 57 56 56 55 53 52 50 49 48 49 48 48 47 46 46 44 43 42 43 43 42 43 43 43 47 43 43 44 43 42 42 39 37 40 43 42 44 46 46 52 56 51
59 57 56 54 52 51 51 50 50 48 48 48 47 46 46 45 45 44 43 43 41 40 41 40 41 41 38 39 39 39 40 44 40 38 37 39 40 41 43 44 46 46 52
58 57 54 52 51 50 50 49 48 48 47 46 46 46 45 46 46 43 43 40 39 39 39 38 39 40 40 39 39 36 38 35 36 35 35 37 37 40 40 39 38 41 41
55 55 53 53 52 51 49 48 48 47 47 46 46 44 44 45 42 37 37 36 35 36 36 38 39 40 42 39 40 36 34 32 31 32 32 34 35 36 35 39 38 38 39
57 54 55 53 52 49 48 47 46 46 46 44 43 43 41 46 36 36 34 32 34 33 32 34 36 39 39 40 39 39 36 31 31 30 30 29 31 33 35 33 31 30 28
56 56 53 47 47 47 48 48 47 43 43 42 41 42 40 39 37 36 34 32 31 31 31 32 34 39 37 37 36 36 36 36 32 31 29 29 29 31 33 31 29 28 28
56 54 50 48 48 48 47 46 45 43 41 40 40 40 38 39 37 37 34 30 29 30 30 31 31 32 33 34 33 30 31 33 34 34 32 31 33 34 33 33 32 33 31
55 50 49 46 48 46 45 44 43 42 40 39 40 37 35 35 37 35 32 28 28 28 30 31 32 31 34 35 31 28 28 31 37 37 37 37 37 37 36 33 29 29 26
48 49 49 49 47 46 44 43 42 42 41 37 35 34 36 33 36 36 32 27 25 27 28 30 32 32 29 30 28 28 27 29 31 31 30 32 35 34 35 33 31 27 27
50 49 47 46 46 47 45 44 41 39 36 32 31 32 33 33 32 34 32 27 26 25 26 26 29 30 29 30 30 27 27 29 28 28 28 29 31 32 33 35 34 31 27
48 47 46 46 47 48 43 40 40 37 33 31 28 29 30 29 34 33 30 30 29 24 24 27 26 30 30 30 29 29 29 28 25 25 26 27 28 29 33 34 35 35 34
46 45 45 46 46 45 40 38 37 35 30 29 29 27 28 29 28 30 29 29 28 24 25 26 28 28 28 28 29 30 27 26 26 25 26 27 29 31 32 31 33 33 33
44 43 43 42 41 41 42 39 36 30 28 29 27 25 25 25 25 25 25 25 26 25 24 24 26 26 25 26 28 28 28 27 26 26 26 28 30 29 30 31 32 31 29
42 41 38 37 37 38 40 34 32 30 29 26 25 24 20 19 23 26 25 24 23 24 23 24 23 22 22 24 25 26 26 26 25 25 26 27 28 29 29 29 31 28 28
35 36 35 34 34 35 35 35 33 31 32 31 29 23 21 26 28 28 28 28 27 25 23 20 19 20 20 22 22 22 24 24 24 25 25 26 26 26 27 29 31 27 24
34 34 34 33 34 32 31 31 28 31 32 31 29 29 29 27 28 28 28 27 26 25 20 19 19 19 20 22 22 22 21 24 25 24 25 24 26 26 26 27 28 27 28
34 33 33 34 32 31 29 30 30 29 26 27 29 29 29 29 29 28 27 26 21 21 20 19 19 20 20 20 21 21 22 23 23 23 24 24 23 25 26 24 26 26 27
35 33 31 32 31 30 31 30 30 29 28 27 26 27 24 28 29 27 27 17 17 19 19 20 19 20 20 20 20 20 21 22 21 21 22 23 24 25 24 25 25 22 24
37 32 29 31 31 31 30 29 29 28 28 27 25 23 20 19 18 18 19 15 13 17 18 19 20 20 19 19 19 19 20 20 20 20 20 21 23 25 24 24 25 24 25
35 33 32 31 31 30 29 29 29 28 27 27 25 20 17 16 19 17 17 16 13 14 15 18 18 18 18 18 19 18 18 17 18 18 18 20 22 22 24 25 24 24 24
31 31 31 31 31 30 29 29 29 28 28 27 25 24 19 18 19 17 20 17 15 14 15 15 17 17 17 17 18 16 15 13 14 15 15 17 20 21 22 24 21 18 23
30 31 31 31 31 29 29 29 29 29 28 27 26 26 25 24 18 17 16 18 19 16 14 14 15 16 15 15 17 17 15 13 13 14 13 14 19 19 20 19 20 16 15
32 32 31 31 31 30 28 29 29 28 28 28 28 27 26 25 19 18 17 17 16 17 15 12 14 16 15 14 14 14 15 13 14 14 13 15 17 17 18 17 14 18 11
31 32 31 31 31 31 30 30 29 28 28 29 28 28 26 25 22 20 18 17 15 14 14 11 13 16 15 15 14 14 12 13 12 12 13 15 15 14 14 16 14 17 11
30 32 30 31 31 31 30 30 29 28 28 28 28 28 28 25 21 21 19 16 15 14 13 12 12 15 16 16 15 15 13 13 11 12 12 15 13 13 12 13 13 14 12

GFSGL_sfc_temp_009.txt.gz
Temp
53 55 54 52 49 47 46 45 45 45 45 45 44 43 43 42 41 40 39 39 39 39 39 40 40 42 41 39 40 40 40 38 32 37 38 40 41 42 46 47 48 46 46
53 51 51 50 49 47 46 46 45 45 45 44 43 42 42 41 40 39 37 37 37 36 36 35 36 41 37 38 39 39 38 39 38 33 34 36 38 40 41 42 49 53 48
53 50 49 51 47 45 45 45 45 44 43 43 42 41 41 41 40 39 37 36 35 35 34 34 34 34 33 35 35 34 34 38 33 32 30 34 35 38 39 39 44 44 50
51 49 48 47 47 45 46 45 45 45 43 42 42 42 41 41 39 37 37 34 33 34 34 33 34 33 33 33 35 35 35 31 30 29 29 30 32 36 35 33 34 36 38
49 49 47 46 46 43 43 45 45 44 43 42 42 40 40 39 38 33 33 30 30 30 31 33 33 34 37 37 36 34 32 29 28 28 27 28 28 30 30 31 29 31 33
50 51 49 45 44 44 45 44 43 42 41 40 39 39 37 39 35 35 33 28 30 29 28 29 30 33 34 35 36 34 34 31 28 26 26 25 26 27 29 27 27 26 26
49 49 46 44 43 43 44 43 42 41 39 37 36 36 35 33 37 37 34 30 28 27 27 28 29 33 32 32 34 34 33 34 31 29 27 26 26 28 28 26 25 25 25
45 46 45 43 42 43 42 42 40 40 37 34 33 33 32 36 37 36 34 28 27 27 28 29 28 28 30 31 30 29 29 30 31 32 29 29 29 30 30 31 29 29 28
44 43 43 42 42 41 39 40 39 36 33 33 33 32 30 30 35 35 31 26 26 26 29 29 29 28 31 32 29 27 27 29 34 36 36 34 34 34 34 32 28 27 24
43 43 43 41 41 39 40 40 36 36 33 32 32 31 33 28 34 35 30 26 22 25 26 28 30 29 30 30 27 24 23 26 28 27 27 29 32 32 34 32 30 27 26
44 43 43 42 41 40 39 37 35 31 30 27 27 28 29 30 28 32 31 25 24 24 24 25 27 29 30 30 30 26 25 28 28 26 25 26 28 30 31 32 32 30 28
42 42 40 40 41 42 37 35 32 29 28 25 18 20 24 25 30 29 30 29 28 23 23 24 25 28 29 29 28 29 30 28 23 24 24 25 25 27 30 31 32 32 33
39 38 38 39 40 39 35 31 29 28 23 23 25 17 21 24 21 28 27 28 28 23 24 25 27 27 27 27 28 28 27 27 25 24 25 26 27 28 30 30 31 32 32
37 36 36 34 34 34 34 31 28 22 20 25 22 19 17 19 19 21 22 22 25 25 24 24 24 25 24 25 25 26 26 25 25 23 23 26 28 28 28 29 28 30 30
36 34 31 30 31 31 32 29 27 26 24 21 19 19 8 7 18 27 26 24 24 24 22 21 21 21 21 22 23 23 24 24 23 23 23 24 25 27 27 28 28 30 24
32 30 28 27 26 29 29 28 32 30 32 32 30 18 14 24 28 30 29 28 27 25 21 18 18 18 18 20 19 20 22 23 23 23 23 23 24 24 25 27 26 24 23
32 31 27 27 26 25 24 24 19 26 33 33 31 30 29 28 30 29 28 27 26 24 18 17 16 16 17 19 19 19 19 22 23 22 22 22 23 24 25 23 21 21 22
31 29 25 24 23 23 23 29 27 23 21 20 28 30 29 30 30 29 28 24 14 17 18 17 16 16 18 18 18 19 19 21 20 20 20 21 22 23 19 22 21 17 23
31 26 25 22 20 23 27 27 26 25 25 22 20 22 21 28 28 28 26 9 7 9 14 17 17 17 17 17 15 16 17 17 16 17 18 19 19 22 22 19 19 19 18
30 26 24 23 21 27 27 26 26 25 25 23 20 16 15 13 6 4 4 3 2 7 7 13 17 18 15 16 14 14 15 14 14 14 14 16 18 21 20 20 20 20 17
26 26 24 24 22 27 26 25 26 25 25 23 19 16 13 10 7 6 6 5 5 5 3 7 9 12 14 14 16 14 12 9 11 12 12 13 14 16 19 21 17 18 21
28 25 23 21 25 27 27 26 25 23 24 23 19 17 12 6 12 11 7 6 4 6 6 6 6 10 13 14 14 10 11 7 9 10 11 12 12 14 15 16 18 12 13
20 18 25 27 24 21 21 24 26 26 25 24 23 18 15 12 11 11 8 6 6 6 4 5 3 6 9 10 11 12 10 9 10 10 9 10 12 14 10 10 10 12 8
18 16 23 24 16 17 22 26 25 26 25 24 19 22 15 17 10 10 9 6 5 4 2 3 5 7 8 10 10 11 12 9 10 11 9 10 12 13 9 12 11 10 7
19 16 18 18 18 19 19 24 27 26 26 20 17 21 21 15 13 9 7 6 6 4 5 3 3 6 7 12 11 11 10 12 11 11 10 10 10 11 10 11 8 9 5
23 22 23 23 15 19 20 23 24 25 26 25 24 18 21 14 14 14 9 7 7 4 5 3 6 8 10 11 13 12 11 11 10 11 10 12 9 9 9 8 9 7 7

GFSGL_sfc_temp_012.txt.gz
Temp
50 50 49 48 47 45 44 43 43 43 43 44 43 42 41 39 39 37 36 37 36 35 34 34 34 34 33 33 34 35 36 37 33 37 37 37 37 37 40 41 44 45 44
49 49 48 47 47 45 44 44 42 42 43 43 44 42 40 39 38 37 36 36 34 33 33 32 32 37 31 32 32 32 32 34 33 29 32 34 35 37 37 36 43 48 46
48 47 47 47 45 43 43 42 44 42 43 43 42 41 40 39 38 36 34 33 32 32 31 31 30 31 30 30 30 31 32 36 32 30 29 32 33 35 35 36 37 37 44
47 46 45 44 43 41 41 42 43 43 43 43 42 41 40 38 37 35 34 31 30 31 31 30 30 29 29 29 30 30 32 30 30 28 28 29 29 32 33 31 29 31 33
45 44 42 42 42 42 43 42 42 42 42 43 41 40 38 36 36 32 32 31 29 29 30 30 30 31 34 33 33 30 30 28 28 28 28 27 27 27 27 29 27 28 29
44 43 44 43 42 41 41 41 40 40 41 41 39 37 34 38 36 36 34 29 29 29 27 29 29 31 31 33 33 34 33 29 28 27 27 26 25 25 27 26 25 23 24
43 44 43 42 41 39 40 39 38 39 40 36 34 33 32 32 36 37 34 30 28 26 26 26 28 31 30 29 30 32 32 33 31 30 27 25 25 26 27 25 24 24 24
42 42 42 41 39 39 38 38 37 36 36 32 31 31 31 33 35 35 33 27 26 26 27 27 27 27 29 29 28 28 29 29 30 30 28 28 28 28 28 29 27 27 28
41 41 41 40 39 38 37 35 35 34 32 32 32 30 28 28 34 33 29 24 25 25 27 28 28 26 29 31 28 26 26 28 32 34 34 34 34 34 32 30 28 27 26
41 41 41 40 39 37 36 35 34 32 32 32 30 28 31 26 31 32 31 23 19 23 25 27 28 28 29 29 27 26 23 25 26 26 26 28 30 29 32 30 27 24 24
41 41 40 39 38 38 36 35 32 31 30 26 25 26 27 27 26 30 30 25 23 23 23 24 25 28 29 29 29 26 26 28 27 27 25 24 26 27 28 29 29 27 25
40 39 37 37 37 38 32 31 31 28 26 23 12 18 21 22 29 28 29 29 28 21 22 24 25 28 28 28 27 28 29 27 26 24 23 24 24 26 29 30 30 30 30
37 36 34 35 35 34 30 28 27 26 21 22 24 16 20 23 21 27 27 28 27 23 23 25 27 27 27 26 27 27 26 24 24 23 23 25 26 28 30 30 30 31 32
35 33 32 32 31 31 30 30 27 20 19 25 21 19 16 19 18 19 21 18 24 24 23 23 23 25 24 24 24 25 24 24 23 22 23 25 27 27 27 29 27 27 29
34 33 31 29 29 29 29 27 26 26 24 21 19 18 7 6 17 27 26 23 23 21 16 19 20 19 19 20 21 22 22 23 22 23 23 23 25 26 26 27 28 28 25
32 31 29 26 25 28 28 29 32 31 31 32 30 17 14 23 29 30 29 28 27 25 15 14 15 15 16 18 17 18 20 21 21 22 21 22 23 24 25 25 25 21 23
31 31 29 27 25 23 23 23 18 26 31 32 32 31 30 28 30 29 29 26 25 22 10 11 10 14 15 17 17 17 16 18 20 20 20 20 21 23 23 21 19 18 21
32 30 27 29 24 24 17 23 27 18 14 17 26 30 30 29 29 29 27 23 12 13 10 9 12 15 15 16 16 15 16 15 14 16 17 17 18 20 20 20 20 16 20
32 31 24 21 21 21 18 21 24 23 21 19 16 20 20 27 27 27 25 8 6 7 9 10 8 15 14 14 12 12 10 11 11 11 14 15 16 18 18 20 18 14 14
32 29 21 20 24 25 20 20 24 24 22 22 18 14 13 12 6 2 -0 -2 -2 5 4 8 9 10 8 11 10 9 9 8 9 10 10 11 12 16 17 18 17 17 15
30 30 28 27 27 26 21 22 22 23 23 19 17 11 11 11 7 5 5 2 3 3 2 5 3 1 4 6 12 9 8 3 7 8 9 10 10 11 15 16 15 14 14
29 28 26 27 25 18 22 25 22 21 19 22 21 18 11 4 6 11 12 7 6 6 6 4 5 5 5 7 7 4 7 5 5 7 7 8 10 12 11 10 7 6 8
23 18 18 20 21 17 14 18 22 21 21 22 22 16 11 11 12 13 12 10 5 5 3 2 -1 3 2 1 1 6 7 9 8 6 5 5 8 9 5 4 4 6 4
20 16 18 19 12 12 9 16 26 22 24 22 14 12 15 17 11 10 10 8 1 3 -3 0 3 6 4 1 0 3 8 7 9 9 7 6 7 9 4 6 4 3 2
18 17 16 18 18 16 12 14 19 27 24 21 15 9 13 11 12 10 11 6 7 3 5 1 2 4 5 5 5 7 5 9 9 9 8 8 7 7 6 6 3 4 0
29 28 23 22 20 17 16 16 19 23 20 24 23 19 14 12 13 10 11 4 6 7 4 0 3 6 4 5 7 9 7 9 9 10 8 10 7 6 5 5 5 4 5

GFSGL_sfc_temp_015.txt.gz
Temp
47 46 45 45 45 44 42 41 42 42 41 42 43 43 42 41 38 37 37 35 34 33 32 32 32 32 30 29 30 30 31 30 28 32 34 36 37 37 38 38 39 39 40
46 45 45 45 44 42 41 41 41 43 42 42 42 42 40 40 38 37 35 35 33 31 31 30 30 35 29 28 28 29 29 30 29 27 30 31 33 36 36 34 40 43 38
45 43 43 42 42 41 40 41 41 40 40 39 40 38 38 39 39 36 34 32 32 31 31 30 30 29 27 27 28 27 28 32 30 29 29 29 30 31 32 34 35 33 40
44 42 42 41 41 40 40 39 39 39 38 38 39 39 39 39 36 34 33 32 30 31 31 30 29 29 27 27 28 27 30 28 29 29 27 28 30 30 29 28 28 30 30
43 42 41 41 40 40 40 39 39 40 39 39 39 39 37 35 35 32 33 31 29 29 30 30 30 31 34 32 30 28 27 27 29 27 28 28 28 26 26 27 26 26 27
42 42 42 41 41 40 39 38 38 38 38 37 38 34 33 36 36 37 35 29 30 29 27 28 28 30 30 32 32 32 31 27 26 26 26 27 27 26 26 25 25 23 22
41 42 41 40 39 38 38 37 36 35 37 34 31 31 31 32 36 36 34 30 27 26 26 26 27 30 29 28 29 31 31 31 30 27 25 26 27 27 26 25 23 23 23
40 40 40 39 38 38 37 36 34 34 32 30 30 31 30 32 34 34 31 25 24 25 26 26 26 26 27 29 27 27 28 29 30 30 27 27 28 29 28 28 27 26 26
39 39 39 38 37 36 35 34 33 32 31 30 31 30 27 27 32 33 30 24 24 24 26 26 27 27 28 30 28 26 27 28 32 33 33 33 31 32 31 28 26 26 25
39 39 39 38 36 35 34 33 32 32 33 32 30 28 30 25 30 31 29 21 16 23 24 26 27 28 29 29 26 25 23 26 27 27 26 27 29 29 31 28 24 23 24
39 39 37 36 35 34 33 32 30 30 29 26 25 26 27 27 25 30 30 21 22 23 23 23 25 28 29 29 28 26 25 27 27 27 26 25 25 26 27 28 27 25 23
38 37 36 34 35 35 31 29 30 28 27 24 11 17 22 22 28 27 29 29 28 22 21 23 24 28 27 27 27 27 27 25 24 24 24 25 25 26 28 29 29 29 29
35 34 34 33 33 31 29 27 26 26 21 21 23 16 19 23 20 27 27 28 27 18 21 25 26 26 26 25 26 26 24 23 22 21 22 24 25 27 29 29 30 30 31
33 35 34 32 32 31 30 30 26 21 20 24 20 19 16 18 17 19 22 17 24 22 19 18 20 23 20 21 21 23 22 23 22 22 22 24 26 27 27 28 27 28 27
33 35 33 30 30 30 29 27 28 27 25 21 19 18 6 6 16 26 25 20 14 18 11 11 14 16 16 18 18 19 20 21 20 21 21 21 23 25 26 27 28 28 24
32 33 31 30 28 29 27 27 32 31 31 32 32 17 13 23 28 30 29 27 27 24 12 6 3 7 13 16 15 15 16 16 18 19 19 20 20 22 24 25 25 23 24
32 33 29 30 28 25 24 24 20 26 31 31 32 31 30 27 30 30 28 26 25 20 6 4 -0 3 9 16 15 15 14 14 15 16 16 16 18 20 21 22 22 22 23
32 30 30 28 29 28 26 21 19 19 14 15 25 29 31 30 29 29 27 22 11 12 8 5 3 5 7 14 15 13 13 11 10 11 13 14 14 17 18 20 20 17 18
32 31 29 28 24 24 22 17 20 22 21 16 15 19 19 29 28 27 24 8 6 6 8 9 3 7 6 8 5 9 6 7 5 5 9 11 12 14 16 18 17 17 16
32 31 28 27 25 26 25 22 22 21 21 19 14 13 11 11 6 3 -0 -3 -3 5 4 8 9 7 2 2 -2 -1 6 6 7 7 5 5 7 11 14 15 16 11 13
32 31 28 28 24 23 20 20 23 21 24 22 15 10 13 12 10 6 7 4 6 6 4 6 4 -0 0 -0 5 -1 0 -0 6 6 6 7 5 6 11 11 11 12 13
31 29 28 28 27 18 19 23 24 21 21 17 19 14 11 4 7 9 9 9 8 8 7 5 6 6 5 6 3 -4 -2 -3 2 6 5 6 7 8 8 7 6 5 8
30 29 25 21 19 16 13 18 19 20 21 19 20 18 9 10 14 12 11 11 6 5 6 3 2 4 1 -2 -3 2 0 0 1 4 6 5 7 7 4 2 4 5 4
29 26 22 19 10 13 11 15 15 17 23 24 23 15 13 12 12 11 10 9 4 3 -1 3 5 6 5 -1 -4 -2 4 -0 0 3 4 6 7 9 7 7 4 2 1
29 25 20 20 23 22 17 16 16 17 23 25 22 18 17 13 11 11 11 8 6 1 5 4 4 6 6 5 3 4 2 4 1 1 2 7 6 5 6 7 4 6 3
31 28 28 28 25 24 22 22 22 21 23 23 23 23 20 17 16 14 11 7 6 6 6 2 3 6 5 4 4 5 3 4 0 2 0 5 7 6 5 5 6 5 6

GFSGL_sfc_temp_018.txt.gz
Temp
45 45 44 43 43 42 41 40 40 40 41 41 40 40 41 41 38 37 36 36 34 33 32 32 32 32 30 30 30 30 29 29 25 30 34 36 35 37 40 40 41 41 39
45 44 43 43 42 41 40 40 39 39 40 39 41 42 41 38 36 35 35 35 33 32 31 31 31 34 30 29 29 28 28 29 27 25 30 31 32 36 36 36 40 43 39
44 42 42 41 40 40 40 40 39 38 37 39 41 38 37 36 37 37 34 33 32 31 30 30 30 30 28 28 28 27 28 30 29 27 27 31 32 33 34 34 35 36 39
43 41 40 40 40 39 39 38 37 38 37 40 39 37 36 37 36 34 33 31 31 31 31 30 29 29 28 28 28 28 29 27 28 27 28 29 30 33 32 32 31 33 33
41 41 40 40 39 39 38 38 38 37 38 41 38 36 35 35 35 32 32 31 29 29 29 30 30 31 33 32 30 29 28 26 26 27 27 28 29 29 29 30 30 30 31
40 40 40 39 39 38 38 37 37 36 35 35 36 34 32 35 36 36 33 29 29 28 26 27 28 30 30 31 31 31 30 26 25 25 26 25 26 29 29 27 29 26 26
39 39 39 39 38 37 37 36 35 34 33 31 30 31 30 31 35 35 32 29 27 26 25 25 26 30 28 28 29 30 30 31 29 28 25 26 26 29 30 28 27 26 26
38 38 38 37 36 36 35 35 34 32 31 30 30 30 30 31 33 33 33 27 25 25 26 25 25 26 27 28 27 28 29 30 30 30 29 29 30 30 30 30 30 29 28
38 37 37 37 35 34 33 33 32 31 30 31 31 29 27 27 32 32 30 25 24 24 26 27 27 26 28 30 27 26 27 29 32 33 32 32 33 33 31 29 25 26 25
37 37 37 36 34 33 33 31 31 30 30 30 30 28 30 25 29 31 30 22 17 22 25 26 27 27 29 29 26 24 23 26 28 29 29 30 30 29 30 29 27 24 25
37 36 36 35 34 33 32 31 30 28 29 26 26 26 27 27 25 30 30 22 22 23 23 23 25 27 29 29 29 25 25 26 26 26 27 27 28 28 28 29 29 27 25
35 34 33 33 35 34 30 29 29 27 26 23 11 17 22 23 27 27 30 29 28 17 20 22 22 27 27 27 26 27 27 24 23 23 23 25 25 27 29 30 29 29 29
32 32 32 33 34 32 29 27 26 25 21 21 23 16 19 23 21 26 27 28 27 17 20 23 25 25 24 24 25 25 23 22 22 21 21 23 25 27 29 29 31 31 31
32 32 32 31 31 32 31 30 26 20 21 25 21 19 17 18 18 19 22 19 23 21 17 16 17 21 17 19 21 21 20 20 20 20 20 22 25 26 27 29 28 29 28
31 32 32 31 30 30 30 27 27 27 27 23 21 18 7 6 16 23 24 17 12 17 10 9 11 12 15 17 18 18 18 18 17 18 19 20 21 23 25 27 27 28 27
30 32 33 30 29 29 28 27 32 30 31 32 32 19 14 23 27 30 30 28 27 23 12 5 -0 -1 6 14 15 15 16 14 14 16 17 18 18 20 22 25 25 25 25
31 32 32 29 28 26 25 27 21 26 32 32 32 33 30 25 29 30 29 27 25 20 7 4 -3 -3 2 12 14 14 13 13 13 12 14 15 16 18 20 21 22 22 23
32 31 30 30 28 28 26 25 22 19 17 16 25 29 31 32 30 30 29 23 12 12 9 6 3 3 7 11 12 11 12 11 10 10 10 12 13 15 17 18 19 18 20
32 32 31 30 27 25 24 24 19 19 21 18 14 19 17 30 30 28 26 11 8 8 9 10 5 7 8 9 2 0 -1 7 7 5 7 8 9 12 15 16 15 12 14
33 32 30 29 27 25 20 19 22 22 24 23 17 16 11 12 8 4 0 -2 -1 7 7 9 10 9 6 5 -1 -5 0 0 6 9 7 5 6 8 11 12 13 13 15
32 32 30 27 26 27 24 20 19 21 24 25 20 11 12 15 14 9 8 3 7 8 7 8 8 4 3 2 6 2 1 -3 2 6 8 9 6 7 10 11 10 13 15
30 30 30 28 27 26 26 21 19 20 21 22 21 16 11 16 13 11 11 10 9 10 10 9 9 9 8 9 7 -2 -1 -2 -1 2 3 7 9 10 9 9 9 10 12
30 30 30 28 27 20 12 16 16 20 23 22 20 20 14 14 12 13 14 12 10 9 7 6 5 6 6 3 1 5 4 5 5 -0 -0 2 8 10 10 9 9 10 9
30 31 29 26 23 19 15 14 19 21 18 18 20 22 21 18 16 15 14 12 9 6 2 4 7 8 8 2 -0 2 6 3 3 5 0 1 5 9 10 11 11 9 8
31 31 29 26 24 23 25 23 22 21 21 22 23 24 23 21 18 16 16 14 11 7 6 3 5 8 8 7 5 5 2 6 2 1 3 3 2 2 7 10 9 11 9
31 31 30 28 26 26 26 25 25 25 24 25 25 25 24 23 22 21 19 15 12 11 11 7 6 7 7 7 7 5 1 3 2 0 0 6 3 4 5 7 9 9 10

GFSGL_sfc_temp_024.txt.gz
Temp
59 61 61 63 63 62 60 60 59 58 57 56 56 55 55 55 54 53 52 52 51 51 49 49 49 49 49 49 48 47 45 44 39 43 45 47 45 45 46 46 47 49 50
62 62 62 63 62 61 60 59 58 56 57 56 55 54 54 53 51 47 50 51 50 49 48 48 47 49 46 47 46 45 44 43 38 36 40 40 41 43 43 43 46 48 49
63 63 62 61 61 60 59 58 57 56 55 55 54 53 52 50 48 46 49 48 48 47 47 46 45 45 43 44 43 42 41 40 39 36 35 38 40 41 41 42 42 44 48
62 62 61 60 59 58 58 57 56 55 53 53 53 52 50 50 49 49 47 47 47 47 46 45 43 42 41 40 39 40 38 37 37 34 34 34 37 41 42 38 38 42 42
60 60 59 58 58 57 55 55 55 53 53 53 52 51 50 48 48 45 47 46 45 45 44 44 43 39 34 35 36 35 34 33 32 33 32 33 34 36 34 38 36 40 42
59 58 58 56 56 54 54 53 52 52 52 52 50 49 47 49 35 35 36 44 44 43 42 42 42 38 38 34 33 33 33 31 31 31 30 31 33 35 37 36 35 34 33
57 56 55 54 53 53 53 53 52 51 51 50 49 47 46 45 35 34 34 42 42 42 40 40 39 40 37 37 34 33 33 33 31 33 30 32 33 35 36 35 35 34 34
55 54 54 52 51 52 52 51 51 51 49 49 48 47 45 43 33 33 33 42 41 40 40 39 39 38 37 33 31 33 36 37 38 36 35 35 36 37 36 36 35 36 37
53 52 52 51 50 50 50 50 50 49 48 48 47 46 44 43 33 32 33 39 38 38 39 39 37 36 32 30 31 31 33 35 36 35 34 34 34 34 35 35 32 32 30
51 51 51 51 49 49 49 49 49 49 47 47 46 45 37 41 32 31 33 37 34 36 38 38 34 32 29 29 29 29 28 30 32 33 34 36 37 38 34 35 34 31 32
50 50 50 50 49 49 48 48 47 47 46 43 40 42 41 39 38 31 31 33 34 33 34 35 36 30 29 28 28 29 27 29 29 31 33 34 37 36 38 38 36 36 33
49 49 48 48 48 47 47 47 46 45 43 41 34 36 41 39 33 33 31 30 31 31 31 34 32 28 27 27 28 26 27 27 29 28 30 30 31 32 34 36 37 38 39
46 47 47 47 47 47 45 43 42 44 42 40 39 37 38 38 38 32 31 30 30 31 32 30 27 27 27 29 28 26 27 29 27 26 27 28 30 32 34 34 35 36 38
45 46 46 45 45 45 45 41 41 41 40 39 38 37 37 38 37 38 36 34 32 32 32 32 29 25 28 28 31 31 30 28 26 25 26 29 31 32 32 34 32 33 34
45 44 43 44 44 44 44 41 41 43 41 39 37 36 33 32 34 35 33 34 33 32 27 30 31 30 30 31 31 30 30 29 27 26 27 27 28 30 30 32 32 33 32
40 42 42 41 43 41 41 40 35 34 34 34 33 33 35 33 32 31 31 31 31 28 29 30 29 28 27 29 28 29 29 28 27 27 26 27 26 26 28 31 31 31 30
40 40 41 39 40 39 37 36 35 37 34 33 33 33 33 33 33 31 31 31 31 27 28 31 29 28 28 29 29 29 27 28 26 27 26 26 26 26 27 28 29 29 29
40 35 40 39 38 38 37 36 37 35 34 34 33 34 33 33 33 32 31 31 30 27 29 30 29 29 29 30 29 29 28 27 27 26 25 25 25 26 26 26 26 25 27
41 40 38 37 38 35 35 34 34 34 33 35 36 32 33 32 32 32 32 31 30 30 32 33 32 31 31 30 29 27 25 25 24 24 25 24 24 24 25 26 26 26 27
42 35 35 38 38 36 37 35 34 34 33 34 34 34 35 31 31 31 31 31 30 30 32 33 33 33 31 30 28 27 26 26 26 25 25 24 25 25 24 24 25 25 27
43 42 36 38 37 37 36 35 34 33 33 34 34 34 33 34 32 32 32 31 31 31 32 32 32 31 31 29 29 28 27 26 26 25 25 24 24 24 25 24 25 26 27
40 38 37 36 37 35 35 35 33 33 34 34 34 35 33 32 32 33 33 32 32 33 34 33 32 33 32 31 30 28 27 25 25 25 24 23 24 25 25 25 23 23 25
38 35 34 36 36 34 33 33 33 33 33 33 33 34 34 33 32 33 33 33 33 33 34 33 31 31 32 31 30 29 27 27 27 25 23 23 24 24 24 24 24 22 22
38 34 33 33 33 34 33 32 32 32 32 32 32 33 33 33 32 32 32 32 33 32 32 32 32 31 32 30 29 29 29 28 27 25 22 22 22 23 23 23 24 22 22
34 32 32 32 33 32 32 33 32 32 32 32 32 32 33 32 32 32 32 32 32 32 32 31 31 31 30 29 29 29 28 24 24 24 24 21 21 20 21 22 22 23 22
33 33 33 33 32 32 32 32 32 32 32 32 32 32 32 32 33 32 33 33 32 32 31 32 31 30 30 29 28 27 25 21 20 18 23 23 22 23 23 22 20 22 22

GFSGL_sfc_temp_027.txt.gz
Temp
65 62 58 61 64 64 63 62 62 60 60 59 58 57 57 56 57 54 51 51 50 50 52 51 48 49 48 48 49 49 47 46 41 45 47 47 45 44 46 47 47 47 48
63 57 60 65 65 63 62 62 61 59 59 58 57 56 56 56 54 50 50 48 46 48 48 48 47 49 46 48 47 45 45 45 43 39 41 42 41 42 43 43 46 47 46
59 60 65 64 63 62 62 61 61 59 58 57 57 55 55 54 52 50 48 48 48 48 47 46 46 46 44 45 44 42 42 43 42 37 36 39 41 42 41 42 43 44 46
59 62 64 63 62 61 61 60 59 59 57 56 55 55 54 53 51 50 49 48 47 47 47 46 46 44 43 40 39 39 39 37 36 35 35 35 38 40 39 38 37 41 41
60 63 63 63 61 60 59 59 58 56 56 56 55 54 52 51 50 47 47 46 45 46 47 46 46 41 37 37 37 36 35 33 33 32 32 33 33 35 35 38 36 39 40
61 61 62 60 59 58 57 56 55 55 55 55 54 52 49 50 35 36 37 44 45 45 44 44 44 42 41 37 36 35 34 32 30 31 32 32 33 34 34 34 34 34 32
61 61 60 58 57 55 56 56 55 54 54 52 52 51 48 47 36 35 35 41 43 44 43 42 42 44 39 40 37 35 35 35 33 34 30 31 30 34 35 33 33 33 33
60 59 58 57 55 55 54 54 53 53 52 51 51 49 48 44 35 34 34 40 43 43 42 42 41 40 38 33 33 33 35 37 38 38 35 35 35 36 35 35 35 35 37
57 57 57 56 53 52 52 52 53 52 51 50 50 48 46 43 35 34 33 40 41 40 41 41 40 38 33 31 31 30 32 34 38 36 35 35 35 35 35 34 31 31 30
56 55 55 53 52 51 51 51 51 51 50 50 48 48 41 44 34 34 33 38 36 37 39 40 35 33 30 30 28 28 27 31 32 32 33 35 37 37 35 35 34 29 30
55 53 51 53 52 52 51 50 50 49 48 45 42 44 44 41 39 34 33 35 36 35 35 36 38 32 30 29 29 28 28 29 29 31 32 33 35 36 37 38 37 33 31
50 48 50 52 51 51 49 48 48 48 45 42 36 39 41 41 36 34 33 32 33 32 33 35 35 30 29 28 29 30 28 28 31 30 29 30 31 31 33 36 35 35 37
47 48 49 50 50 50 47 45 45 45 42 40 38 37 39 41 40 35 33 32 31 30 34 33 30 30 30 31 32 30 28 31 29 27 27 28 30 33 35 35 37 37 35
46 46 47 47 47 46 46 48 44 39 39 39 38 38 39 40 40 39 35 34 32 31 33 34 32 30 30 28 31 34 33 32 29 28 27 30 31 32 32 33 32 33 32
45 46 45 44 43 45 46 46 44 43 41 39 39 38 35 35 37 36 35 35 34 33 30 32 33 33 32 33 33 33 33 32 30 29 28 28 28 29 30 32 32 32 31
42 42 41 41 42 43 43 41 40 36 36 36 35 34 37 36 34 33 33 32 32 31 30 30 31 31 30 31 31 31 32 31 30 28 28 29 27 28 28 30 31 30 29
38 40 41 41 43 41 39 38 36 40 35 34 34 34 34 34 35 34 33 32 32 30 28 31 31 31 30 32 32 32 30 31 29 30 28 28 27 27 28 28 28 28 28
42 36 42 43 40 39 38 37 38 37 36 37 33 34 34 34 33 33 33 32 30 29 30 31 31 32 32 32 33 32 31 29 29 28 27 27 26 26 26 27 27 27 27
43 44 42 40 38 37 37 37 37 37 36 37 37 35 34 33 33 33 33 32 31 30 32 33 34 34 33 32 32 30 29 27 27 25 26 26 26 25 25 26 26 27 27
46 38 37 40 38 38 37 38 36 36 36 35 35 36 37 34 32 31 32 31 31 32 32 32 35 35 34 33 31 30 29 28 27 27 27 26 26 26 24 25 24 25 27
45 42 37 40 38 38 38 37 37 36 35 35 35 35 34 34 34 33 34 33 33 33 33 33 33 34 33 32 31 30 29 29 28 27 26 26 25 24 26 26 26 25 26
42 40 38 37 38 37 37 37 36 36 35 35 35 36 34 33 33 34 34 34 33 35 35 34 33 33 33 33 32 30 29 28 28 28 27 26 25 26 26 25 25 25 24
41 38 37 38 37 36 35 35 35 34 34 34 35 34 34 33 33 34 33 33 34 34 35 35 33 33 34 33 33 32 30 29 29 29 26 25 25 25 24 24 24 24 23
38 37 37 34 33 35 33 33 33 34 34 33 33 33 33 33 33 33 33 33 33 33 33 33 34 33 33 32 32 32 31 31 30 28 25 24 24 25 24 24 24 24 24
36 35 33 33 33 33 32 33 33 32 32 32 32 32 34 33 33 33 33 33 33 33 33 33 32 32 32 32 32 31 31 30 29 28 26 24 23 23 22 23 23 23 23
33 33 33 34 33 33 32 31 31 31 31 31 31 32 32 32 33 33 33 33 33 34 33 33 33 32 31 31 32 32 31 28 24 24 25 26 24 23 24 23 23 22 23

GFSGL_sfc_temp_030.txt.gz
Temp
61 59 57 57 58 58 57 56 55 55 54 53 53 51 51 50 49 47 45 45 44 42 41 43 43 43 39 39 40 38 37 36 33 36 39 39 37 36 39 40 41 41 41
61 58 57 57 58 57 57 56 55 54 54 53 52 51 51 50 48 46 44 44 44 43 42 43 42 46 39 38 36 35 34 36 33 31 34 34 34 36 36 36 41 44 41
61 59 57 56 58 57 57 57 55 54 53 53 52 50 50 49 47 46 45 43 42 42 41 40 40 39 35 34 33 32 33 36 33 30 30 33 33 35 34 36 37 37 42
60 58 56 56 57 57 57 55 54 54 52 51 50 50 49 49 48 47 46 43 41 42 41 40 40 38 34 32 33 30 32 29 30 28 29 29 31 33 33 31 31 34 34
57 57 56 56 58 57 54 53 53 52 52 51 50 49 48 49 47 42 42 39 38 38 39 41 39 38 39 35 33 29 28 27 27 27 27 27 28 29 28 30 29 31 32
56 55 57 57 57 54 53 51 51 50 50 50 49 48 47 49 37 37 37 35 37 37 35 36 37 40 38 37 37 36 33 26 25 25 26 25 27 29 29 29 28 27 25
55 56 56 57 55 53 53 52 51 49 49 48 47 46 44 37 37 37 35 35 34 35 35 34 36 41 34 31 33 33 33 34 32 29 27 27 27 28 29 27 26 26 26
55 56 56 55 54 53 51 49 48 48 47 46 45 45 44 41 36 36 35 32 33 34 35 34 33 32 28 29 27 27 29 30 32 34 28 28 29 30 30 30 28 29 30
54 53 54 54 52 50 48 47 47 46 45 45 45 44 42 35 36 35 33 32 32 33 36 35 35 32 31 32 27 25 26 28 35 34 33 34 35 35 35 31 26 25 24
52 51 51 51 49 47 47 46 45 46 46 45 43 42 38 35 35 35 33 29 29 30 32 33 33 31 31 30 24 23 21 25 26 27 28 31 33 33 34 33 29 27 27
50 50 49 47 46 48 46 45 44 43 41 38 37 38 38 36 33 35 35 30 28 28 28 28 29 31 31 31 29 24 23 27 26 26 27 28 30 32 31 31 31 30 28
45 44 45 47 47 48 45 43 42 40 38 37 33 33 33 35 36 35 34 33 33 25 27 28 28 32 32 31 29 30 31 27 23 21 24 25 26 27 30 30 31 32 34
44 44 44 46 47 47 43 40 39 38 34 34 33 32 32 32 33 35 34 33 32 25 27 30 32 32 32 29 32 31 26 23 20 17 21 22 26 28 30 30 31 31 34
41 41 43 43 43 42 43 41 39 34 32 33 33 32 32 33 34 32 30 29 32 29 28 29 27 27 24 25 24 27 25 23 21 19 18 24 24 27 26 28 27 29 28
42 43 42 40 40 40 42 41 35 36 35 32 32 32 33 33 32 34 33 31 31 29 23 23 22 25 24 24 24 25 24 24 21 19 18 20 23 24 25 27 28 27 25
40 40 36 35 36 38 39 38 39 36 36 36 36 32 31 35 35 35 34 34 33 32 23 20 19 22 22 22 21 21 22 22 22 21 20 20 21 21 22 25 27 26 24
36 35 36 34 36 34 34 35 33 36 37 36 35 35 35 35 35 34 34 33 33 31 21 20 22 24 25 24 23 22 20 20 21 20 19 18 18 23 21 22 23 25 23
37 36 37 37 35 33 34 34 33 33 32 33 34 34 34 34 34 34 34 33 27 29 26 24 24 25 25 24 23 22 21 19 18 18 15 19 18 18 21 20 20 21 21
39 39 38 36 34 33 33 34 34 33 33 33 33 32 30 34 34 33 33 29 26 26 27 27 26 26 28 25 22 22 19 18 16 13 14 18 19 20 16 22 16 18 20
43 38 35 36 34 34 34 34 33 33 33 33 33 33 32 31 28 28 28 28 27 27 28 29 28 26 27 28 24 21 20 17 19 17 17 13 18 14 14 19 17 12 20
41 41 36 35 34 34 34 34 34 33 32 31 32 33 32 32 30 30 30 30 29 29 29 29 28 28 29 29 24 22 23 20 19 17 16 15 13 11 17 20 19 20 17
38 38 38 36 35 33 34 34 33 33 32 31 32 32 33 32 31 31 31 31 32 32 32 31 30 30 30 29 28 26 24 21 22 18 16 15 14 14 15 18 17 17 17
34 34 35 36 36 32 32 32 32 32 32 32 32 32 31 32 32 31 31 32 33 33 33 33 32 31 32 31 31 29 26 26 24 22 16 14 14 13 14 12 16 14 12
33 32 32 32 33 32 31 31 31 29 32 32 31 32 32 32 32 32 32 32 32 32 33 33 32 32 31 31 31 31 30 29 26 21 17 13 14 14 13 13 12 13 14
31 31 31 32 32 32 31 31 31 32 32 31 31 30 30 31 31 31 32 32 33 33 33 33 33 32 31 31 30 30 29 29 27 20 19 15 13 12 11 11 10 12 12
29 30 31 31 32 32 32 30 29 26 28 28 27 27 27 26 27 27 27 28 29 29 30 32 32 33 32 31 31 30 28 28 26 22 22 20 15 11 11 12 13 10 12

GFSGL_sfc_temp_036.txt.gz
Temp
53 51 51 52 53 53 53 53 52 52 51 51 50 47 47 46 45 41 40 40 39 38 38 38 38 39 37 36 34 34 33 30 25 27 29 29 28 28 32 33 34 34 34
54 52 51 51 51 53 53 52 52 53 52 49 48 46 46 45 43 41 40 41 40 39 38 38 38 42 36 33 30 30 29 28 26 24 25 26 27 29 29 28 34 38 33
53 51 50 52 54 53 52 52 53 50 48 46 45 45 45 44 43 41 41 40 39 40 38 36 36 36 33 30 29 29 28 32 26 25 25 26 25 27 28 29 30 30 35
53 52 54 53 53 52 50 52 50 49 46 47 45 45 45 45 44 44 42 40 39 39 38 37 36 34 32 31 31 28 28 26 25 24 25 25 25 28 27 25 27 29 29
53 51 50 49 52 51 49 49 47 47 47 47 45 45 45 45 45 42 42 38 36 36 36 36 35 36 39 34 30 27 26 24 23 23 23 24 25 25 24 26 25 26 27
51 51 51 51 48 48 47 47 45 47 47 45 45 45 44 45 41 40 38 36 37 36 33 33 33 37 36 36 36 34 30 24 21 18 21 21 22 23 24 24 24 22 22
51 51 51 51 49 47 47 47 45 44 43 42 43 42 41 41 38 39 38 35 34 33 31 31 33 35 33 30 33 32 30 31 27 22 21 21 22 24 24 23 24 23 24
51 50 49 47 46 45 43 43 42 42 42 41 41 41 40 40 37 38 36 33 32 32 31 31 30 29 29 29 27 26 26 26 27 28 24 24 24 26 27 28 27 27 27
45 45 45 45 44 43 42 40 41 40 40 40 41 39 38 37 37 37 35 31 30 31 33 33 31 29 31 33 27 26 25 25 31 32 32 32 32 32 32 29 24 23 22
41 42 43 43 42 40 40 40 39 39 40 39 38 38 38 34 36 37 35 30 29 29 30 30 34 30 32 31 25 23 20 24 25 25 26 27 28 28 31 27 25 22 22
43 43 42 42 42 41 39 39 38 37 36 34 33 33 33 33 32 37 36 30 30 28 28 27 28 33 32 32 32 23 21 26 25 25 24 24 25 26 27 28 27 24 23
43 42 41 40 41 41 37 36 36 34 32 31 26 30 29 32 34 35 36 35 32 26 28 28 27 32 33 32 31 30 31 27 18 18 19 20 21 22 25 26 27 27 27
41 40 38 38 38 38 35 33 31 31 27 29 29 27 28 30 29 34 35 35 34 28 28 29 31 32 33 31 32 31 26 22 19 13 18 18 19 22 25 25 27 27 28
37 36 36 35 35 34 34 33 31 27 26 29 28 28 28 28 28 28 30 31 34 31 28 30 25 25 22 23 22 26 24 22 21 19 16 16 19 19 19 21 20 22 23
36 36 34 33 32 32 32 32 31 31 30 29 28 28 25 26 28 33 31 29 30 30 25 23 22 21 23 23 22 23 22 22 20 17 14 15 17 18 18 20 20 20 18
34 33 29 28 29 30 30 32 35 34 34 35 35 29 30 33 35 36 35 34 33 31 25 23 23 22 21 21 19 19 19 19 19 19 14 15 15 14 15 19 20 17 17
32 32 30 30 29 29 30 30 30 35 35 35 36 36 36 35 35 35 35 35 33 31 26 22 22 18 18 20 21 20 19 20 18 19 17 15 12 15 14 16 16 16 17
31 31 30 30 30 31 30 31 32 31 31 31 32 34 35 35 35 35 35 34 31 31 26 23 21 19 19 20 21 20 20 15 16 16 12 9 4 10 11 13 15 10 14
34 33 33 33 33 32 32 32 32 32 32 32 31 27 28 33 34 34 34 31 30 27 28 26 24 23 21 22 21 18 16 15 15 11 11 9 2 10 9 11 9 12 11
30 28 28 29 29 29 30 31 32 32 32 32 31 30 26 22 22 30 31 31 31 28 28 26 26 25 24 23 21 20 17 18 18 15 11 5 2 6 6 6 4 9 16
25 26 24 26 26 26 26 26 27 28 30 32 32 30 25 27 29 23 24 27 30 29 28 27 26 26 27 25 24 23 21 21 21 21 17 12 4 5 9 6 5 10 14
24 24 25 24 25 25 25 26 26 26 27 28 30 29 28 24 26 26 29 30 29 30 31 29 27 27 27 27 26 24 23 22 21 21 18 14 12 10 7 6 5 4 8
21 19 20 21 21 21 20 22 21 24 27 29 30 28 24 25 25 26 29 29 29 31 30 30 29 28 29 29 29 28 25 24 25 25 21 16 12 11 4 5 5 4 4
16 16 15 14 14 15 16 16 18 18 18 22 25 25 24 23 22 21 22 21 23 23 23 23 27 30 30 29 29 29 29 29 28 25 24 20 17 12 6 5 6 3 3
12 11 9 10 11 11 11 13 13 14 15 15 16 17 18 18 18 16 14 14 16 18 20 22 23 24 25 25 29 30 30 29 29 26 25 22 20 16 13 9 5 5 2
11 11 8 8 8 8 8 9 9 10 11 12 13 13 14 14 14 14 14 14 14 15 17 18 19 20 21 22 23 27 30 29 29 27 25 23 20 17 13 13 8 3 6

GFSGL_sfc_temp_039.txt.gz
Temp
52 51 51 52 53 53 53 53 52 52 51 50 50 49 48 46 42 40 40 40 40 38 37 37 37 37 36 36 33 33 31 30 26 29 28 28 27 27 29 29 31 30 31
52 50 49 50 51 52 53 53 51 49 48 50 50 48 46 45 42 40 39 40 38 37 37 36 37 41 35 33 31 30 30 29 27 25 25 25 26 27 27 26 32 35 31
51 50 50 50 53 53 51 51 48 48 49 48 46 45 45 43 42 41 39 38 37 37 37 36 37 35 33 31 30 29 28 31 26 24 24 25 25 25 27 28 28 29 33
51 50 49 49 50 50 50 49 48 47 47 46 46 46 45 44 44 43 40 38 37 37 37 36 36 34 32 30 30 29 28 26 25 23 23 24 24 26 25 24 26 28 28
51 50 48 49 51 50 48 45 46 46 46 47 46 45 44 45 46 42 40 37 36 36 36 35 35 35 38 34 30 27 26 24 23 22 22 23 23 23 22 24 23 25 26
49 48 49 50 49 47 46 44 43 44 45 45 43 43 43 44 42 40 39 35 35 35 33 33 33 37 37 38 37 34 29 24 22 18 20 20 21 21 22 22 22 21 21
48 49 49 48 47 45 46 45 44 43 42 40 41 41 40 39 40 40 38 34 33 33 32 32 32 35 34 31 34 34 33 32 27 22 19 20 20 22 23 22 23 24 23
48 48 48 46 44 44 44 43 41 40 39 38 38 39 37 38 39 38 37 32 32 32 31 31 30 31 30 30 28 27 27 27 28 28 24 23 24 25 25 26 26 26 26
42 43 44 44 43 43 42 41 40 39 37 37 38 36 35 35 38 37 35 30 30 30 33 33 31 29 32 34 28 26 26 27 31 32 32 32 32 32 31 23 22 22 20
42 43 43 42 41 40 40 39 37 37 37 36 36 35 36 34 37 37 35 27 28 30 30 31 34 31 32 33 26 23 21 24 26 25 26 27 28 27 30 26 23 20 21
43 43 43 42 41 41 39 37 36 35 34 32 32 32 32 33 33 37 37 30 31 30 30 29 30 33 33 33 32 24 22 26 25 24 25 24 25 26 27 27 26 23 21
42 42 41 41 41 41 36 35 34 32 31 31 26 29 29 31 34 35 36 36 32 29 29 29 30 33 33 33 31 30 31 26 22 20 19 20 20 21 25 25 26 26 26
41 38 37 37 36 36 33 32 31 30 28 29 29 27 28 29 29 34 35 35 35 30 31 30 32 33 33 31 32 32 27 22 20 13 17 19 18 22 25 24 26 25 25
35 34 34 33 33 33 32 32 30 28 26 30 29 29 28 28 27 28 28 29 33 33 30 30 30 28 27 25 23 27 23 21 21 19 17 16 17 18 18 20 18 21 20
35 34 33 32 32 32 31 31 31 31 31 31 31 30 26 28 29 31 30 27 27 29 30 29 26 25 24 23 22 23 22 21 18 15 14 15 16 18 17 18 18 18 14
32 32 29 29 29 30 30 31 35 33 34 35 35 32 34 33 35 35 35 35 35 33 28 25 26 24 24 23 21 21 19 18 20 19 15 16 17 15 15 17 18 15 15
30 30 30 30 29 29 30 30 29 33 36 36 36 35 35 36 34 34 36 35 34 33 28 27 24 25 24 22 22 21 20 19 20 18 17 16 16 14 13 14 14 14 13
30 30 29 30 30 30 29 30 31 30 30 31 35 35 35 35 35 35 35 34 30 31 30 27 24 25 24 22 22 21 21 19 15 16 13 15 12 12 10 12 13 7 11
28 26 26 23 23 24 24 24 25 25 25 27 30 31 33 33 33 33 33 28 30 30 31 30 27 26 25 23 22 22 21 17 11 8 15 15 11 13 10 12 9 9 9
25 24 22 24 24 24 25 24 24 24 25 25 25 26 29 31 29 28 25 24 30 30 31 28 28 27 26 24 22 21 19 15 13 13 14 15 13 10 10 8 2 4 12
21 22 20 22 22 21 22 20 21 19 19 20 24 28 29 28 29 29 27 25 30 30 31 29 28 28 26 25 24 22 22 21 20 18 18 17 12 9 11 9 4 9 12
20 19 18 17 18 16 16 18 17 18 17 16 17 19 22 28 28 29 28 27 30 28 29 30 29 28 27 27 26 25 24 23 22 21 20 18 16 15 12 6 3 3 7
15 14 13 14 13 12 12 12 13 12 13 14 15 16 16 17 17 19 19 21 21 21 21 22 24 27 28 28 28 28 26 25 25 24 22 21 18 16 10 8 6 2 4
12 8 10 8 8 8 6 7 9 8 10 11 12 13 13 14 14 14 15 15 15 15 17 19 21 22 23 24 28 29 29 28 27 26 25 23 20 16 14 8 8 4 2
4 1 1 4 3 3 3 5 4 4 5 7 8 10 12 12 12 12 13 13 11 11 12 13 15 18 20 19 21 22 25 28 28 26 25 24 21 18 16 14 7 8 3
5 4 3 0 1 1 0 1 0 1 2 3 4 7 8 10 10 10 10 10 9 10 10 11 13 13 16 18 19 21 22 22 28 28 26 25 22 20 17 16 12 11 11

GFSGL_sfc_temp_042.txt.gz
Temp
54 51 50 50 50 51 51 51 51 50 49 47 46 47 47 46 45 44 42 39 39 38 38 36 36 36 35 35 35 34 32 32 28 31 31 32 30 31 32 31 32 32 33
51 49 50 50 51 50 49 50 48 46 47 48 48 47 47 46 45 42 39 42 38 36 36 36 36 39 34 34 32 31 30 30 29 27 28 28 28 30 29 29 32 34 33
49 48 48 48 50 48 47 48 49 48 47 46 47 46 46 45 43 41 41 39 38 37 36 35 35 35 33 32 31 30 29 32 29 26 26 28 28 28 29 30 30 31 33
49 49 48 47 47 48 49 49 48 48 46 46 46 45 45 45 43 43 42 40 37 37 36 35 36 34 33 32 31 29 29 28 27 25 25 26 26 28 27 26 26 29 29
48 48 45 46 47 47 47 45 45 44 44 45 44 43 43 43 44 43 42 38 36 35 35 35 34 35 38 34 31 29 28 26 25 25 24 25 25 24 24 26 24 26 27
47 45 46 47 47 46 43 43 43 44 44 43 43 42 41 43 42 41 39 36 35 34 33 32 34 37 37 38 37 36 30 26 24 22 23 22 23 23 24 23 23 23 22
45 46 47 47 45 45 45 44 42 42 42 41 41 41 39 39 39 39 39 35 33 32 32 33 33 35 34 33 35 36 34 33 27 26 22 23 21 24 25 23 24 24 24
44 45 46 45 44 44 44 42 41 41 40 39 38 37 37 38 38 38 37 33 32 32 32 32 32 32 33 31 30 29 29 29 29 29 26 25 25 27 26 27 25 25 27
40 41 44 44 43 42 41 41 41 39 38 38 37 36 35 35 37 38 36 31 30 31 32 32 32 33 34 35 29 27 27 28 32 33 33 31 32 32 32 27 23 22 20
40 42 43 43 42 41 40 40 39 38 37 35 35 34 35 33 36 37 36 29 29 30 30 33 35 32 33 34 29 26 23 26 27 27 27 28 30 29 30 28 25 20 20
43 43 43 42 42 41 40 37 36 35 33 32 32 32 32 32 32 36 37 30 29 29 30 30 31 34 34 34 33 26 25 28 26 25 26 26 27 27 28 29 28 25 21
42 41 41 40 40 39 35 34 33 31 30 30 27 30 30 31 33 34 36 36 33 29 29 30 31 33 34 34 33 31 30 27 23 22 21 22 22 23 26 27 28 27 28
37 37 35 35 34 33 32 31 30 29 26 29 29 29 30 31 30 34 35 35 34 31 30 31 33 33 34 32 32 32 29 27 23 20 21 21 23 25 27 26 27 27 27
33 33 32 32 32 32 31 31 29 27 27 30 29 30 30 31 28 29 29 28 32 32 29 31 30 30 29 30 29 30 29 27 24 22 21 22 21 21 22 24 21 22 21
32 32 31 30 30 30 30 29 30 30 30 30 30 29 29 30 33 34 32 30 28 29 26 29 28 27 27 27 26 26 26 25 23 21 19 19 19 20 20 22 21 21 18
31 30 28 28 27 29 29 30 34 33 34 35 35 32 33 35 35 36 35 35 34 33 29 28 27 25 25 26 26 25 25 24 24 22 19 19 19 19 19 20 20 19 17
27 28 27 27 26 25 25 25 22 27 31 31 32 32 33 34 35 35 36 35 34 32 30 29 28 28 28 27 27 25 23 23 23 22 21 19 18 19 17 18 18 18 17
26 25 23 23 22 22 19 21 22 22 21 22 28 29 30 32 32 33 33 34 31 32 31 30 30 30 29 27 26 25 24 23 20 20 18 17 16 17 16 17 18 14 16
24 22 22 20 20 20 20 21 22 21 19 18 20 22 23 24 27 31 32 30 29 30 30 29 30 30 29 28 27 25 24 22 19 16 18 15 14 17 15 16 16 11 12
23 21 20 20 20 19 18 17 18 18 18 17 16 16 18 19 17 18 26 27 28 29 30 29 29 30 29 27 26 25 23 21 19 16 16 16 14 15 16 15 12 13 16
19 19 16 17 16 16 14 14 14 15 13 13 14 15 16 16 16 16 17 16 22 27 29 29 29 29 29 27 26 24 23 22 21 20 19 17 15 16 17 17 14 14 16
16 15 14 13 13 11 11 11 11 10 10 10 11 13 13 13 14 14 14 14 15 16 18 20 23 26 27 27 27 25 24 23 23 22 20 19 18 17 18 16 13 12 14
13 8 9 11 9 5 5 6 7 5 5 6 7 8 9 10 11 12 12 13 13 13 14 15 17 19 20 22 25 27 26 25 26 25 23 21 19 18 17 16 14 11 12
9 3 7 3 1 2 -6 -5 -2 0 3 3 2 4 6 7 8 9 9 11 11 11 12 12 13 14 14 16 20 22 23 27 28 27 26 24 22 20 18 17 16 13 12
-2 -5 -5 -3 -5 -9 -10 -6 -7 -7 -3 -2 -0 1 4 3 6 5 6 9 9 9 10 11 12 10 12 12 15 19 21 22 23 27 27 25 23 20 19 19 17 15 12
2 -1 -3 -5 -8 -10 -11 -11 -9 -10 -6 -4 -3 -2 0 0 4 3 4 5 6 7 9 10 9 9 9 12 15 17 17 19 21 22 26 25 23 21 19 19 17 16 15

GFSGL_sfc_temp_045.txt.gz
Temp
65 64 63 62 61 60 57 56 54 54 54 54 54 50 49 48 49 47 47 50 49 50 49 49 48 49 49 48 48 48 46 44 39 45 46 46 44 43 44 44 43 42 43
64 61 60 59 57 56 55 55 54 53 52 51 50 48 47 48 51 47 47 46 50 49 49 48 48 48 47 48 47 46 46 46 42 40 44 43 41 42 42 40 41 42 42
60 59 59 58 56 55 54 53 52 51 52 49 49 47 47 47 48 46 47 50 50 49 49 48 48 47 46 47 46 46 46 44 43 40 40 43 41 41 40 40 40 40 41
57 56 55 55 55 54 53 54 53 53 50 50 48 48 47 46 48 48 50 49 48 48 48 47 47 46 46 47 46 45 44 43 42 40 40 39 40 40 38 36 36 39 38
56 55 53 53 54 54 53 50 50 47 47 48 45 46 45 45 45 45 47 48 48 48 47 46 46 46 43 44 45 45 43 41 41 39 38 38 37 37 35 36 34 36 38
54 53 53 53 50 46 45 44 44 44 46 48 45 43 43 43 40 41 42 47 47 46 46 46 46 40 40 38 38 38 41 41 38 38 37 36 36 36 35 34 33 32 30
52 52 50 48 46 45 46 45 45 44 44 43 43 43 41 43 40 40 39 46 46 46 45 46 45 43 40 44 39 37 37 35 33 39 35 36 34 36 35 33 33 32 32
51 50 49 46 45 46 44 43 43 42 42 42 42 43 45 45 39 38 37 45 45 45 44 45 45 44 41 41 41 37 40 41 39 37 38 38 38 37 36 35 33 33 35
47 48 48 48 46 45 43 42 42 42 43 45 45 45 44 45 38 37 39 44 43 43 45 44 43 43 39 37 36 36 38 39 37 35 35 34 33 32 33 34 31 30 28
46 47 48 47 45 45 43 41 41 44 44 45 44 44 41 43 40 37 39 41 39 41 43 43 36 40 37 35 36 34 33 37 38 37 37 36 35 36 32 34 34 28 28
48 48 46 43 42 42 41 43 45 44 43 41 40 42 42 42 42 37 37 40 39 39 40 41 42 36 35 35 34 34 34 38 35 36 36 36 36 36 37 37 37 33 29
45 42 42 43 43 43 43 42 42 41 40 40 35 39 41 41 38 38 37 36 38 37 38 41 40 36 35 35 35 33 33 32 34 33 32 32 33 34 36 37 37 36 36
43 41 41 41 41 41 41 40 41 41 39 38 37 37 39 40 41 37 35 35 35 35 39 38 36 35 34 34 34 33 32 31 31 30 31 32 34 36 36 34 34 35 34
40 39 39 39 39 40 40 40 39 37 36 36 35 35 35 36 37 39 39 39 37 36 34 35 34 34 34 35 34 33 33 33 32 31 32 34 35 32 32 34 31 32 29
38 37 37 36 36 37 37 36 35 36 34 32 33 32 30 30 32 33 33 33 34 36 34 34 34 32 31 32 32 33 34 33 31 31 31 31 31 31 31 33 31 30 27
35 35 32 33 33 33 33 33 32 30 31 31 30 29 30 30 29 29 30 31 33 33 32 32 32 32 31 32 32 32 32 31 31 30 30 30 30 30 31 31 30 29 27
31 31 31 30 30 29 29 28 27 30 30 29 27 27 27 27 27 28 28 29 32 32 31 32 32 32 32 31 31 30 30 33 32 30 30 30 30 30 29 30 29 28 27
30 26 28 29 28 27 27 26 27 25 23 25 27 25 24 24 25 26 26 27 29 32 33 33 32 33 34 32 31 30 31 32 30 29 29 30 29 29 29 29 29 27 27
28 27 26 26 25 24 24 23 24 23 22 22 23 24 22 21 23 24 24 22 21 21 23 29 33 34 32 32 32 31 30 30 30 29 29 28 28 28 28 30 29 25 23
27 22 22 24 23 22 21 21 20 20 19 19 19 18 19 18 18 18 19 19 19 19 20 21 21 31 33 33 32 31 30 30 29 28 28 28 28 28 28 28 28 27 26
24 22 18 21 20 19 18 18 17 17 15 16 16 16 12 14 15 16 17 17 17 17 17 18 20 20 24 31 32 31 30 30 29 28 28 27 27 25 28 29 28 27 27
19 18 18 17 17 15 14 15 14 13 13 13 13 14 11 14 14 14 16 14 15 16 16 16 16 18 19 19 24 29 29 29 29 28 28 27 27 27 28 27 27 26 26
16 14 15 15 14 11 11 11 11 10 10 10 10 10 11 11 11 11 13 12 13 14 14 14 14 14 16 16 19 23 26 28 30 30 28 27 27 27 27 26 26 25 25
14 13 12 12 10 9 8 7 8 7 7 8 8 8 8 9 9 9 11 11 10 12 12 13 13 13 13 14 16 20 24 23 25 29 29 28 27 27 27 26 26 25 25
12 11 10 9 7 6 5 6 5 5 5 5 6 6 7 7 8 8 9 9 8 8 9 10 12 12 12 12 13 16 17 15 20 24 27 29 28 27 26 26 26 25 24
12 10 9 9 7 6 5 3 3 3 3 3 4 4 4 5 6 6 6 6 7 5 7 9 10 10 10 12 13 14 12 12 16 19 24 27 28 27 26 25 25 24 23

GFSGL_sfc_temp_048.txt.gz
Temp
75 74 71 69 68 68 65 63 64 62 60 56 58 59 55 50 48 46 46 48 49 47 49 52 53 57 56 56 55 55 53 52 48 51 55 55 52 50 50 51 50 49 49
76 74 72 70 67 65 63 62 61 57 56 56 55 51 50 47 46 46 46 45 46 47 50 53 53 57 55 54 55 51 50 52 50 47 51 51 51 51 49 47 48 49 49
75 72 68 64 60 58 57 55 54 53 52 51 50 51 49 47 45 45 46 46 46 50 51 52 53 54 53 53 52 49 52 53 50 48 47 51 51 51 48 48 47 47 49
67 65 61 59 57 56 55 54 52 53 51 50 49 47 46 45 48 47 46 46 48 50 50 51 53 53 52 52 52 49 49 49 49 48 47 47 48 49 48 44 44 47 46
64 61 58 57 57 58 59 59 57 54 52 51 48 44 46 47 46 46 45 45 46 47 50 54 54 51 47 48 53 52 49 47 47 46 45 45 45 45 44 45 42 43 44
64 61 60 60 60 57 54 53 52 49 50 48 50 48 46 47 40 39 41 44 46 51 50 52 54 49 46 41 40 40 44 47 45 43 42 40 43 45 45 43 41 39 36
61 59 57 56 54 53 54 53 51 51 48 47 46 45 45 45 40 40 39 49 50 51 51 52 52 54 47 50 41 38 37 37 35 43 40 42 42 44 44 41 40 39 38
59 57 56 55 54 54 53 52 49 48 46 45 44 46 47 48 41 39 38 48 50 51 51 51 51 51 51 49 48 48 47 48 44 43 43 45 46 46 44 42 40 39 40
57 56 56 55 54 54 50 48 48 44 43 47 50 51 51 52 41 39 39 48 49 49 51 51 51 50 45 40 44 44 45 44 43 39 38 37 36 34 35 39 35 35 33
55 55 56 55 53 51 47 43 42 46 53 53 51 51 46 49 43 39 40 46 45 46 48 49 42 44 40 37 42 41 39 43 43 43 42 38 36 39 33 37 38 33 34
55 54 52 50 47 44 45 50 52 52 50 48 46 48 49 47 48 40 39 42 43 44 44 46 48 39 37 36 37 41 40 43 40 38 41 43 42 42 42 40 40 38 35
52 48 46 48 50 51 50 50 50 50 47 46 43 45 47 47 41 41 38 37 38 39 39 43 44 40 38 36 36 37 36 35 36 35 35 37 38 39 42 42 42 42 42
50 49 49 49 49 49 49 48 48 47 45 43 42 41 42 42 43 38 37 35 35 36 38 39 36 36 35 34 34 34 33 35 34 33 33 35 37 39 40 39 40 41 40
47 47 47 46 47 47 48 47 46 42 40 39 38 37 37 38 39 37 34 35 34 35 36 39 36 34 34 35 35 37 37 35 34 34 34 37 38 36 35 37 34 35 33
46 45 44 44 44 45 44 42 39 39 34 35 35 34 31 30 32 30 30 31 31 31 30 33 35 36 37 37 37 35 35 35 33 34 34 33 33 35 33 35 34 34 32
42 41 38 40 40 42 42 42 30 30 30 30 28 28 30 29 28 27 28 28 29 30 32 32 32 33 34 37 37 35 34 33 36 35 34 34 33 32 32 34 34 31 32
39 38 38 37 38 37 37 36 35 35 31 30 28 28 27 25 25 26 27 27 30 30 30 30 30 31 33 37 38 36 33 33 34 33 33 33 32 32 31 32 32 31 31
35 30 37 37 36 35 34 33 33 31 29 30 30 28 26 24 24 25 26 28 28 29 28 27 27 29 30 31 37 37 34 33 31 32 33 33 32 32 31 30 31 30 31
35 34 33 33 31 30 31 30 30 29 28 28 29 29 27 23 24 25 26 25 23 24 24 25 25 26 27 25 30 34 32 32 32 31 32 32 31 31 30 31 31 31 31
31 25 27 31 30 29 29 28 27 27 26 25 25 25 24 21 22 23 24 23 22 22 22 22 22 23 24 24 24 29 33 32 32 32 31 31 31 31 30 31 31 30 30
33 30 23 30 28 26 26 25 25 24 23 22 23 22 15 17 21 21 21 21 20 20 20 20 20 21 22 22 21 23 26 32 33 33 32 32 31 30 31 31 31 31 30
27 26 26 25 25 23 21 23 22 21 21 20 21 21 17 20 20 20 20 20 19 19 19 19 18 20 20 20 18 19 22 26 31 31 31 31 31 31 31 30 30 30 29
24 23 24 23 22 18 20 20 19 19 18 18 18 18 18 17 17 18 17 17 18 18 18 18 17 17 19 19 18 18 19 22 23 25 29 30 30 30 30 30 30 29 28
21 21 20 20 18 18 17 16 17 15 15 16 16 16 16 15 15 15 15 16 16 16 16 15 15 16 17 17 16 16 18 21 20 22 25 28 30 30 30 30 30 29 29
20 20 19 18 17 16 15 15 15 15 14 14 14 14 15 14 14 15 15 14 13 13 13 13 14 15 15 14 14 15 16 16 16 17 22 24 29 30 30 30 30 29 29
19 18 18 17 17 15 14 13 13 12 12 12 12 12 13 12 13 13 12 12 12 11 11 13 13 13 13 15 16 16 14 14 15 16 18 23 27 30 30 29 29 29 28

GFSGL_sfc_temp_051.txt.gz
Temp
81 78 74 70 70 67 66 65 63 64 64 62 62 59 55 56 54 48 49 47 46 46 45 46 48 53 54 55 56 55 54 53 48 52 55 57 55 54 55 54 53 52 51
81 79 73 68 67 65 63 62 61 61 58 57 54 53 50 48 47 44 45 47 45 44 47 46 47 52 52 54 54 52 53 53 49 46 52 53 53 54 53 52 52 53 51
81 79 71 64 63 60 57 56 55 54 53 52 51 49 47 46 45 46 45 45 44 45 45 46 49 49 49 51 52 52 53 52 51 49 48 53 53 53 51 52 50 50 51
77 75 65 61 60 58 56 55 53 52 51 50 50 48 46 45 46 46 45 44 45 46 46 47 48 48 49 50 51 53 53 50 49 48 48 49 50 52 51 48 46 49 48
64 61 58 59 60 59 57 56 55 53 52 51 48 47 46 46 46 45 46 46 44 44 45 47 49 49 47 47 52 51 52 50 49 46 45 47 47 48 46 48 45 46 47
67 64 64 64 64 61 59 58 58 56 56 54 52 51 50 51 41 41 43 44 44 44 46 48 53 50 50 43 43 42 44 46 47 46 46 43 45 45 46 44 43 41 38
65 63 62 61 59 58 58 58 57 55 55 52 50 50 50 48 40 40 39 47 49 51 52 52 53 55 50 54 46 40 39 38 35 43 43 44 43 45 44 42 42 41 40
62 61 60 59 58 58 58 55 54 53 53 51 49 46 48 50 41 40 39 49 50 51 52 52 52 52 52 50 50 50 50 49 46 45 44 45 45 47 45 44 42 41 41
61 60 60 59 58 57 55 53 52 50 46 50 51 51 52 54 42 40 41 49 49 49 52 52 52 52 47 43 47 46 47 47 48 41 42 41 37 36 37 41 37 35 33
60 60 60 59 56 51 49 47 46 51 54 56 54 54 44 51 42 40 42 45 43 45 47 49 43 45 42 40 44 44 41 44 46 47 45 41 38 40 34 38 38 33 34
60 58 55 53 52 50 48 52 54 54 53 50 48 50 50 49 48 40 38 41 39 36 38 41 43 40 38 38 37 41 41 44 42 43 43 43 40 41 42 40 40 37 34
56 54 52 52 53 55 54 53 53 52 49 48 46 46 48 48 40 37 36 34 34 35 35 38 39 37 36 35 36 36 34 34 36 37 37 36 37 37 39 42 42 41 41
54 53 53 53 53 54 52 51 52 50 46 44 43 42 43 43 44 36 35 34 34 33 35 35 33 34 35 36 35 35 33 34 34 32 33 36 39 41 41 38 39 42 42
52 51 52 51 50 51 52 50 48 44 42 41 40 38 39 38 39 36 33 34 34 34 33 34 32 31 31 32 34 37 38 36 34 33 35 39 40 38 35 37 36 37 35
51 50 49 48 48 48 47 44 41 36 34 36 36 35 32 31 32 29 28 29 30 30 29 32 34 36 36 36 37 38 39 39 34 34 33 35 35 35 34 35 35 35 33
47 46 43 43 43 46 45 40 31 32 31 30 29 29 30 29 27 27 27 28 28 29 30 31 31 30 30 31 33 33 34 37 36 34 34 35 35 34 34 34 34 32 32
44 41 39 40 41 40 41 39 39 31 31 30 29 28 28 26 26 26 27 28 29 30 29 29 28 27 27 28 29 31 28 32 36 35 33 33 35 35 33 32 31 32 32
39 33 41 40 39 39 38 36 37 33 31 33 31 30 28 27 25 26 27 28 29 29 29 27 26 26 25 26 26 26 28 25 34 34 33 34 34 33 32 31 31 31 31
39 38 37 35 33 32 33 33 33 32 31 31 32 32 31 26 25 28 28 27 25 25 26 25 25 25 24 24 24 25 23 22 31 32 32 32 32 33 32 32 31 30 31
31 28 31 33 32 32 32 31 31 30 29 29 28 28 28 23 22 25 26 25 24 24 23 23 23 23 22 22 23 23 20 22 23 32 32 32 32 33 32 31 31 30 31
34 29 25 31 30 30 29 28 28 27 26 26 26 25 17 19 21 23 24 23 23 22 21 21 21 21 22 22 21 21 20 19 23 24 30 33 32 31 32 32 31 31 31
29 29 28 28 28 27 25 26 26 25 24 24 25 25 22 21 23 22 22 22 21 21 22 20 20 20 20 20 20 19 19 18 20 22 21 24 31 32 32 31 31 31 31
27 26 26 27 25 21 23 24 23 23 22 22 22 22 22 21 20 20 20 20 20 20 19 19 18 18 19 19 20 19 18 17 18 18 18 20 24 31 31 30 30 30 30
25 25 24 24 23 20 22 20 21 20 20 20 20 20 20 19 19 18 18 19 18 18 18 17 17 15 17 18 18 19 18 19 18 17 17 18 22 25 31 30 30 30 30
24 23 22 22 21 20 19 20 19 19 19 18 18 18 18 18 18 17 17 17 16 15 16 14 14 16 16 15 15 15 17 18 16 15 16 19 19 22 27 30 30 30 29
22 21 20 20 20 19 18 17 17 17 16 17 16 16 16 16 16 15 15 14 14 13 12 14 14 13 13 14 16 17 15 14 13 14 16 17 19 24 27 30 30 30 29

GFSGL_sfc_temp_054.txt.gz
Temp
69 68 67 64 66 67 66 64 64 61 60 59 58 57 55 52 51 48 46 45 44 44 44 44 44 45 46 48 49 47 44 43 39 40 44 45 44 44 47 45 45 43 42
70 68 69 69 67 64 62 60 60 59 59 58 56 53 51 49 46 45 44 44 44 43 44 44 44 48 46 48 47 45 44 44 42 39 41 41 42 44 44 42 46 50 43
69 66 66 63 60 57 56 55 54 53 52 51 50 48 46 46 44 44 45 44 44 44 44 44 45 46 44 46 44 44 44 48 45 38 40 40 41 41 40 42 41 40 46
63 63 60 58 56 55 53 52 51 50 49 48 48 47 46 45 45 45 45 44 44 44 45 45 45 45 45 45 45 45 45 43 43 41 40 40 38 40 39 37 36 37 38
62 59 57 57 56 54 53 52 51 50 49 48 46 45 45 45 46 45 45 44 43 44 44 45 46 46 45 45 47 45 41 39 39 38 38 37 36 35 34 37 37 35 35
61 59 59 58 57 56 54 52 51 50 49 48 47 46 44 48 42 42 43 43 44 43 42 44 45 44 44 42 43 42 43 41 38 36 38 38 36 37 35 33 33 30 28
61 61 61 58 56 54 55 54 51 50 49 49 48 47 47 44 40 41 40 43 42 42 42 44 46 51 45 45 43 41 39 39 37 40 37 37 37 37 34 32 32 31 32
60 59 58 56 55 55 54 51 49 48 48 47 46 45 45 46 40 40 39 40 42 43 43 43 42 43 44 42 40 39 41 43 40 39 36 38 38 37 36 36 33 33 31
58 57 58 57 55 53 52 49 48 47 45 46 48 46 46 45 40 40 39 40 40 39 44 42 42 40 40 39 37 35 37 40 45 43 41 40 40 40 38 32 28 28 23
58 58 58 57 54 48 48 46 45 47 50 51 50 47 44 41 39 37 39 35 33 31 35 38 38 38 36 37 33 32 31 33 36 37 38 36 36 35 35 35 32 31 28
59 57 54 52 50 49 46 47 48 48 47 42 41 42 44 39 36 35 35 31 28 29 30 31 32 35 35 34 34 30 30 34 34 34 34 34 35 34 34 33 33 33 30
55 52 51 50 50 50 49 48 48 45 41 39 37 36 37 36 35 35 34 33 33 28 29 30 30 33 33 33 32 33 34 33 33 33 32 33 34 33 35 35 35 33 34
51 50 50 51 52 51 48 46 44 43 37 34 34 32 33 32 32 33 33 32 32 28 29 31 31 31 32 31 33 34 32 30 29 29 29 32 35 35 36 33 33 35 34
50 49 49 48 48 47 48 45 40 35 33 32 32 30 30 30 27 27 27 26 29 28 28 26 26 29 29 30 31 32 33 33 31 30 31 33 34 34 33 33 31 31 30
49 48 46 44 44 43 38 37 32 30 30 30 29 29 24 23 25 26 26 25 24 26 24 25 26 27 26 26 27 27 28 29 28 28 28 31 33 33 32 32 32 31 28
45 43 37 37 37 41 37 34 33 31 31 30 29 27 26 28 27 27 27 28 29 29 24 23 21 21 22 23 22 23 24 24 25 26 24 29 32 31 31 32 31 29 27
38 39 36 36 36 35 34 33 27 29 31 30 30 29 28 26 27 27 27 28 28 29 20 21 19 19 20 22 22 21 21 22 23 23 23 28 32 31 31 30 30 29 28
35 35 36 35 34 33 32 32 31 29 27 26 29 29 28 27 26 27 28 28 22 24 23 21 19 19 20 20 20 20 20 20 20 20 21 28 32 29 29 29 29 28 28
34 33 31 29 28 28 29 29 29 29 28 28 28 27 25 26 26 27 29 19 16 19 21 20 18 19 18 19 17 18 19 18 18 18 21 25 30 29 28 26 29 28 28
27 26 29 29 28 29 28 28 28 27 27 26 25 24 23 19 14 15 17 15 14 15 17 18 18 18 17 16 16 17 17 16 17 17 19 19 20 29 25 23 26 29 28
26 25 25 29 28 27 26 26 26 25 24 23 22 17 15 16 14 17 16 14 16 15 14 17 15 15 15 15 15 14 15 13 15 16 17 16 17 19 28 26 30 28 28
28 27 27 26 26 24 23 24 23 23 23 22 21 21 19 15 17 16 15 15 11 13 15 14 14 14 15 14 12 12 12 12 14 14 15 15 15 17 20 26 29 28 28
25 24 25 25 24 20 21 23 21 21 20 19 19 19 18 16 15 15 14 11 12 11 12 13 12 13 13 12 13 14 12 12 13 14 14 12 13 14 17 19 27 28 28
23 23 22 22 21 19 19 19 19 19 19 18 17 17 16 15 13 11 11 11 9 8 9 11 12 9 10 11 13 13 13 13 13 14 13 11 11 15 16 18 21 28 28
22 21 21 20 20 19 19 18 18 17 17 16 15 15 15 14 14 12 10 10 9 8 10 8 9 11 11 9 10 10 11 14 11 11 12 12 11 13 15 18 22 28 27
21 21 19 19 18 18 17 16 15 15 14 14 13 11 12 12 11 9 10 9 10 8 7 8 8 8 8 10 12 14 13 12 11 10 11 12 11 13 15 17 21 26 27

GFSGL_sfc_temp_057.txt.gz
Temp
69 68 68 63 62 60 59 59 60 57 57 56 56 55 54 52 50 48 47 46 46 45 45 45 45 45 45 45 46 46 46 43 42 37 40 42 40 41 44 41 42 42 43
68 63 62 61 60 59 60 59 59 58 57 56 55 54 51 49 48 46 46 45 45 44 44 44 44 47 45 46 46 45 45 44 41 37 37 38 40 41 40 39 44 48 43
64 64 62 63 62 60 56 55 55 54 52 52 51 50 48 47 46 45 45 45 44 45 44 44 44 44 43 44 44 43 44 46 42 40 40 37 41 38 39 38 39 39 44
63 60 58 57 55 53 52 52 51 51 49 49 48 47 46 45 45 45 45 44 44 44 44 44 44 44 44 44 44 44 44 42 43 41 41 41 36 42 39 40 37 35 39
57 56 54 53 53 52 51 50 49 49 48 47 46 45 45 45 45 44 45 43 43 43 43 44 45 45 44 43 44 40 39 38 35 35 36 34 32 32 33 37 34 33 35
55 54 55 54 52 51 50 49 48 47 47 46 46 45 44 45 40 41 42 43 43 43 42 42 41 42 42 41 41 40 41 39 36 35 36 36 36 31 32 32 30 32 31
55 55 56 54 52 51 51 50 48 45 44 43 42 42 41 41 41 41 40 43 42 39 38 39 40 45 39 38 37 37 37 38 35 37 36 36 35 36 33 31 30 30 31
56 54 53 52 51 51 48 45 44 44 43 43 44 45 44 44 40 39 37 37 37 37 37 37 35 35 36 36 33 32 34 35 36 38 37 37 38 38 35 38 36 35 32
53 52 52 52 49 48 46 46 44 44 45 45 45 41 41 41 38 38 38 35 34 32 36 35 35 33 35 36 31 28 29 30 37 38 38 38 37 37 38 36 32 28 27
52 53 52 51 48 45 45 45 45 43 45 45 43 40 38 35 37 37 35 29 28 28 30 33 34 33 34 34 30 27 26 27 28 29 31 33 35 35 36 35 36 31 29
54 52 48 47 46 44 43 42 42 42 41 36 36 36 34 33 34 35 34 28 27 27 27 27 27 32 33 33 33 29 28 31 30 29 30 32 32 33 35 33 34 32 31
49 47 46 45 47 45 42 41 42 39 35 33 33 30 29 29 33 33 33 32 31 27 27 26 27 31 32 32 31 33 33 30 29 28 28 28 29 30 33 36 32 33 35
47 45 45 46 46 44 41 38 37 36 32 30 31 29 27 27 26 30 30 30 30 26 27 28 29 30 30 28 31 30 27 25 25 25 25 27 29 31 33 34 34 33 32
45 44 43 41 41 40 40 38 34 30 29 30 29 28 27 25 24 24 25 24 27 27 26 24 25 26 25 24 25 26 25 24 23 22 22 24 26 27 30 32 32 32 30
45 43 41 38 35 33 33 32 29 28 30 28 27 28 23 22 25 27 27 25 22 26 21 20 23 22 22 23 23 23 23 22 21 21 20 21 23 23 25 33 32 32 29
39 38 33 32 33 34 31 30 32 31 32 31 30 27 27 28 28 28 28 28 29 29 21 16 10 8 16 19 19 19 19 19 20 20 19 19 20 21 22 31 31 30 28
34 35 33 33 33 32 30 28 25 28 31 31 30 30 29 27 27 28 28 28 29 27 17 16 9 9 12 18 18 17 16 18 19 18 17 18 19 19 25 30 30 30 28
33 32 31 30 30 29 29 29 28 26 24 25 29 29 29 27 27 28 28 28 21 22 21 17 13 13 16 17 16 15 15 16 16 15 15 16 17 18 19 30 28 28 27
30 28 27 26 27 27 27 27 28 27 27 26 26 26 25 26 26 26 26 16 14 15 18 18 14 14 13 14 8 8 9 12 13 12 13 15 15 15 16 25 28 25 23
27 27 27 27 26 26 26 26 26 26 25 24 23 21 20 18 10 8 11 7 8 12 11 14 15 14 8 9 4 4 9 10 11 11 12 13 14 14 14 17 23 26 27
24 25 25 26 24 24 24 24 24 23 22 21 19 16 16 16 13 12 16 10 10 11 7 10 8 2 4 5 12 8 8 9 9 11 10 11 13 12 13 15 18 23 25
24 24 24 23 24 21 21 22 22 21 21 19 18 18 16 12 14 15 12 8 4 6 8 5 3 5 6 10 8 6 7 9 9 9 8 10 12 12 12 12 15 16 27
23 22 22 22 21 20 19 20 19 18 17 16 16 16 14 12 12 11 7 3 3 4 1 1 -4 5 4 1 1 9 9 8 9 8 8 9 9 10 10 11 13 15 20
21 20 21 20 18 18 16 15 15 16 16 14 12 11 12 11 6 4 3 1 -1 -4 -7 -4 0 3 5 8 8 8 10 10 10 11 6 7 7 9 9 10 12 14 18
19 18 17 17 16 13 13 13 12 11 10 9 7 9 9 4 5 0 -4 -4 -3 -7 -1 -2 -2 2 3 3 5 6 9 11 12 12 11 9 7 8 10 11 11 15 17
19 17 16 15 14 12 9 6 5 5 5 6 5 1 -1 1 -0 -7 -4 -4 0 -2 -4 -3 1 1 3 5 8 10 11 11 11 12 12 11 8 9 11 11 11 13 17

GFSGL_sfc_temp_060.txt.gz
Temp
65 65 64 64 64 61 59 58 59 58 56 55 56 56 56 54 52 50 48 48 46 45 45 46 45 46 45 45 45 45 44 44 40 44 42 40 39 40 43 41 43 42 42
65 62 61 60 60 60 60 59 58 57 56 55 55 54 53 51 49 48 46 46 45 44 45 45 45 46 44 45 44 43 44 44 42 39 41 39 39 42 44 42 45 46 43
64 63 61 61 61 61 60 61 61 56 55 54 54 53 50 48 46 46 46 45 45 45 45 44 44 44 43 43 43 42 42 45 43 40 41 44 41 37 37 38 40 40 43
64 62 61 61 61 60 57 55 54 54 52 51 50 49 47 46 46 46 46 45 44 44 44 44 45 44 43 43 43 42 43 41 39 38 38 37 35 37 37 38 38 35 39
63 62 61 59 56 54 53 51 50 50 49 48 47 46 45 45 46 45 45 43 43 43 43 44 44 44 44 41 41 41 36 35 36 35 35 34 32 30 32 35 33 37 34
61 57 55 54 52 51 50 50 48 47 48 46 46 45 45 45 40 41 43 43 43 43 42 43 42 40 39 38 38 38 36 33 34 35 35 34 33 33 32 35 35 29 30
55 54 53 52 50 49 49 48 46 46 46 45 44 44 43 42 40 41 40 42 42 41 39 36 38 39 35 34 34 35 34 36 32 31 32 32 32 35 35 34 33 32 33
54 53 52 51 50 49 49 47 46 46 44 43 43 42 41 41 40 39 38 37 35 34 34 34 32 32 33 32 30 28 29 29 30 32 28 30 31 33 33 34 33 33 35
51 51 52 51 49 48 46 44 43 42 41 42 42 41 40 39 38 36 36 32 32 32 33 33 31 30 34 34 29 27 27 29 35 35 35 35 35 35 35 32 30 30 30
50 50 50 49 47 45 43 42 43 43 43 43 40 38 38 38 37 36 34 29 28 28 30 30 32 31 32 33 28 26 25 27 28 29 30 30 32 32 34 32 30 28 28
51 50 48 46 45 44 43 44 43 40 38 35 33 32 33 33 33 35 34 29 28 28 27 26 27 31 32 32 32 28 28 28 27 27 28 29 28 29 30 31 33 31 29
48 46 45 44 45 45 42 41 40 37 34 31 29 27 28 30 33 33 33 31 30 27 27 27 27 30 31 31 30 31 30 26 24 23 23 23 24 24 26 27 29 33 32
45 44 43 44 43 41 39 37 37 35 32 30 29 26 25 26 26 30 30 30 29 26 28 28 29 29 29 28 29 29 25 22 19 18 19 20 21 23 25 26 27 32 33
43 42 41 39 37 36 36 35 33 30 31 30 28 26 25 24 24 26 26 25 28 27 26 26 25 26 25 25 26 25 24 22 20 19 19 20 21 21 21 24 22 25 30
41 39 37 35 33 31 29 29 29 29 30 30 28 28 24 21 25 27 27 26 23 26 22 21 22 22 22 22 22 22 21 20 18 18 17 17 17 19 19 22 21 23 26
36 35 32 31 31 30 29 28 32 32 32 31 30 27 27 28 28 29 28 28 29 29 22 19 15 14 16 19 17 17 17 16 17 17 16 15 16 16 17 19 20 23 28
34 34 32 32 31 29 29 28 25 28 31 31 30 29 27 28 28 29 28 28 29 26 19 17 10 11 13 18 17 16 14 15 16 15 13 12 14 16 15 15 18 19 28
31 31 30 30 29 29 28 27 27 26 24 25 27 28 28 26 26 28 28 27 21 22 21 18 15 15 16 15 15 14 13 11 10 12 10 10 11 12 13 14 15 14 27
29 28 28 27 27 27 27 26 26 26 26 25 25 26 26 26 25 25 24 19 17 17 18 17 16 15 13 13 7 4 -1 -0 5 3 6 9 8 9 11 13 13 15 19
27 27 27 26 26 25 25 25 25 25 24 23 23 21 21 19 16 14 15 12 14 15 15 15 15 13 8 8 3 1 -2 -1 4 5 7 4 6 8 10 12 12 12 16
25 26 25 25 24 24 23 23 23 22 21 21 19 18 19 18 16 15 17 14 14 14 11 12 9 5 5 5 8 -1 0 -2 6 8 8 6 6 6 10 11 11 13 15
24 24 23 23 22 21 20 21 20 20 20 19 18 19 18 15 16 16 15 12 9 11 12 9 5 4 5 6 4 -5 1 4 -0 5 6 6 7 8 7 9 10 11 12
22 22 21 21 20 19 19 19 18 17 17 16 17 16 16 14 13 12 11 8 10 6 4 2 -4 -1 1 -4 -3 1 5 5 6 7 6 6 7 7 6 7 9 10 11
20 19 19 19 17 17 17 15 15 16 16 14 12 12 11 9 7 7 5 2 2 -6 -9 -10 -6 -1 1 -4 -3 -1 5 7 8 9 9 8 7 7 7 7 8 10 10
18 17 16 16 14 14 14 13 12 11 10 9 8 7 8 4 4 -3 -6 -8 -8 -11 -8 -6 -6 -3 -1 -2 -0 1 2 6 9 10 10 9 8 7 7 7 8 10 11
16 15 14 14 12 11 10 8 7 4 3 3 0 -4 -4 -4 -4 -11 -11 -8 -8 -8 -6 -6 -4 -2 -2 1 3 6 6 6 6 7 8 8 8 8 8 8 10 10 11

GFSGL_sfc_temp_063.txt.gz
Temp
61 60 59 59 59 60 60 61 60 59 58 57 57 58 58 57 55 55 52 50 49 47 46 47 45 46 45 45 45 45 44 43 40 43 44 43 42 44 42 40 41 39 39
61 61 60 61 61 61 61 62 62 59 58 57 56 56 55 54 53 51 49 48 47 46 45 46 45 47 45 45 44 43 43 43 41 39 42 41 41 39 39 39 44 46 40
62 61 61 60 60 60 61 63 61 60 58 55 55 54 53 51 50 49 48 47 46 46 46 45 45 45 43 43 43 42 42 44 41 39 39 40 37 38 37 37 37 39 42
62 62 61 61 61 61 62 62 61 59 57 56 55 53 50 48 48 47 46 45 45 45 45 45 45 44 43 43 42 41 42 40 37 35 38 38 36 37 34 33 35 37 37
61 61 61 62 62 62 60 58 54 55 55 54 50 47 47 47 47 46 46 44 44 43 43 44 44 44 43 41 42 40 38 37 36 35 35 35 35 36 30 32 33 35 36
61 61 63 63 59 58 56 52 50 49 50 48 47 46 46 46 40 41 43 43 43 43 42 42 40 39 38 37 37 37 34 29 28 27 27 27 28 29 29 29 31 32 30
61 61 61 57 54 52 51 50 48 48 48 46 45 45 45 44 39 40 40 44 43 41 39 39 38 37 33 32 34 34 33 34 30 28 25 26 25 27 27 27 28 28 27
59 56 54 53 51 50 49 47 46 46 45 44 45 45 44 42 39 39 38 39 37 35 34 34 31 30 32 31 29 28 29 29 30 30 27 27 27 28 27 29 28 29 32
53 52 52 51 49 48 46 46 46 44 44 43 44 43 42 40 37 37 37 33 32 31 31 30 30 30 33 34 29 28 28 29 34 34 34 35 34 34 34 30 28 28 26
52 52 52 51 49 46 45 45 44 45 44 43 40 41 39 37 36 36 34 30 28 28 30 30 32 31 32 32 28 27 26 27 26 27 27 29 31 30 32 30 28 25 26
51 50 49 48 47 46 44 43 43 41 38 34 33 35 35 35 34 36 35 29 28 28 28 27 27 31 32 32 31 28 27 26 25 24 24 25 26 26 26 27 27 24 23
48 46 46 45 45 44 42 39 37 35 33 31 30 29 30 32 33 34 33 32 31 28 28 27 28 30 31 31 28 29 28 25 21 20 20 21 21 22 23 24 24 25 27
45 44 44 43 42 40 38 36 36 34 31 30 30 27 27 27 27 32 31 30 29 28 28 28 29 29 30 28 28 27 25 22 19 17 18 18 20 21 23 23 24 25 25
43 42 41 37 37 38 38 37 34 33 31 29 27 25 24 24 24 25 26 27 28 28 27 27 26 27 25 25 25 25 23 21 19 18 17 18 19 18 18 20 19 20 20
39 37 36 35 33 31 31 32 31 32 33 31 29 26 23 22 25 27 26 26 25 26 24 24 23 22 21 22 22 21 20 19 18 17 16 16 15 15 16 18 18 18 17
35 34 33 32 31 31 30 29 32 32 32 32 31 28 28 29 29 28 27 28 29 29 23 20 16 15 17 19 18 17 18 17 16 16 14 14 12 12 13 15 16 15 16
33 33 31 31 30 30 29 28 25 29 31 30 30 29 28 27 28 29 29 29 29 26 20 18 14 14 15 18 17 16 14 15 15 13 12 11 10 12 10 11 13 14 13
32 32 31 30 29 28 28 28 27 26 24 24 28 28 28 27 26 26 27 28 21 22 20 18 15 14 15 15 15 14 13 11 9 9 9 7 7 8 7 8 11 11 12
30 28 28 28 28 28 28 27 27 26 26 25 25 25 25 25 23 24 24 20 18 18 18 18 16 16 14 14 12 9 5 4 3 -0 0 1 2 3 4 6 9 10 11
27 27 27 26 26 26 26 25 25 24 24 23 23 21 20 19 16 15 16 14 15 16 16 16 16 14 12 11 8 4 0 -3 -1 -0 0 -4 -4 2 4 5 7 7 11
25 25 25 24 23 23 23 22 22 21 21 20 18 19 19 17 16 16 16 14 14 15 13 13 11 9 9 8 9 2 -1 -6 -0 3 2 3 -0 2 5 7 6 8 11
23 23 22 21 21 20 21 21 20 20 19 18 18 18 18 15 16 15 13 10 9 12 12 10 8 7 7 5 2 -7 -5 -6 -4 -1 1 4 5 5 6 5 4 5 9
21 21 20 20 19 19 18 18 17 17 16 16 16 15 14 12 11 11 9 6 9 7 5 3 -3 -0 -0 -5 -8 -4 -4 2 3 4 4 4 5 6 6 4 4 5 7
19 18 18 17 17 16 15 14 15 14 14 13 12 11 10 7 4 4 2 -1 -4 -9 -11 -12 -8 -4 -2 -6 -7 -4 1 1 5 5 5 6 5 6 6 6 6 5 6
17 16 15 14 13 12 11 10 9 8 8 7 5 2 4 1 1 -8 -13 -13 -9 -13 -9 -8 -8 -5 -4 -5 -4 -2 -2 1 3 5 5 5 4 4 5 6 6 6 7
14 13 12 11 10 9 7 4 1 0 -1 -2 -4 -6 -4 -4 -7 -16 -13 -11 -10 -8 -8 -7 -6 -5 -4 -2 -0 2 0 1 1 3 5 5 3 4 5 6 7 7 8

GFSGL_sfc_temp_066.txt.gz
Temp
57 57 56 55 55 55 55 55 56 58 59 58 59 58 58 58 56 56 57 55 53 52 50 50 49 48 47 46 46 46 45 44 41 43 45 45 45 45 45 46 44 43 43
57 58 56 56 57 56 57 58 59 59 61 60 60 59 57 57 57 56 54 51 51 49 47 47 47 47 46 45 45 44 44 44 42 39 42 43 42 42 42 40 43 45 42
57 58 57 57 57 57 59 59 60 60 60 60 59 57 57 55 54 54 53 51 50 48 47 47 46 46 44 44 44 43 43 44 42 39 39 41 40 40 40 39 39 40 42
58 58 58 57 57 59 60 59 59 60 60 59 59 58 55 53 52 50 50 47 47 46 46 46 46 45 44 43 43 42 42 40 39 38 38 38 38 40 37 35 35 37 37
58 58 58 59 59 60 59 59 58 59 60 59 56 52 50 50 49 48 47 46 45 44 44 45 44 44 43 42 42 40 39 37 37 36 35 33 32 32 32 32 31 33 34
59 58 59 60 60 59 60 59 59 58 58 55 53 52 48 48 45 43 45 45 44 43 42 40 40 39 38 37 37 36 36 32 30 29 29 28 29 30 30 29 28 28 27
59 59 59 59 59 59 59 57 54 54 52 50 48 48 46 44 42 42 41 44 43 42 39 38 38 37 35 35 34 34 34 34 30 30 27 28 27 29 28 26 27 27 27
58 58 58 58 58 54 52 52 50 48 48 47 47 45 44 42 40 40 40 40 38 37 37 36 34 33 33 32 31 30 30 31 31 32 29 29 29 30 30 31 30 30 31
56 56 56 56 52 51 49 48 46 46 45 44 44 44 41 39 38 37 37 36 34 33 34 34 33 32 34 34 30 30 29 30 33 33 32 32 33 33 33 29 26 25 23
55 54 52 52 50 49 47 45 45 45 43 42 41 41 38 37 36 36 36 33 31 31 32 32 32 31 32 32 29 28 27 27 27 27 28 29 30 30 30 29 27 22 22
52 51 49 49 47 46 44 44 43 41 38 36 34 35 36 36 35 36 36 33 31 29 28 27 28 32 32 32 30 29 27 27 26 25 25 26 27 27 27 27 27 23 21
49 47 47 45 44 44 42 40 39 36 34 32 31 30 31 32 34 34 34 32 32 28 27 27 28 32 32 30 29 29 27 25 23 22 21 22 22 22 23 24 25 25 26
45 44 43 43 42 41 39 36 35 35 33 32 31 28 27 30 31 32 32 32 30 27 27 29 30 31 30 28 28 27 24 22 20 18 18 19 20 22 23 23 24 24 25
43 40 40 39 38 38 38 37 34 33 32 31 30 28 26 27 26 27 27 28 30 28 27 27 27 26 25 25 25 25 23 21 19 18 17 18 20 19 18 20 18 19 18
39 38 36 35 34 32 32 33 33 34 34 32 30 28 24 23 25 27 27 26 26 26 25 25 23 23 22 22 22 21 21 20 18 17 16 15 16 16 15 17 16 16 15
34 34 33 33 32 32 31 29 32 32 32 32 31 28 27 29 29 29 29 29 29 28 24 21 18 18 18 20 18 18 18 17 17 16 14 14 13 12 12 14 14 13 13
33 32 31 32 31 30 29 28 25 28 30 30 29 29 28 28 28 29 30 29 29 26 21 19 16 16 16 18 18 17 15 16 16 14 12 11 12 11 11 10 10 11 11
30 30 29 29 28 27 27 26 26 25 23 24 28 28 29 29 28 27 27 26 21 22 21 18 16 16 17 16 16 15 14 13 12 11 10 9 8 8 7 7 8 7 9
29 29 29 28 28 28 28 27 27 25 24 24 25 25 25 26 26 25 24 21 19 19 19 18 17 17 15 15 13 11 10 9 8 6 5 5 4 5 4 5 5 5 6
27 27 27 26 26 26 26 25 25 24 24 23 22 20 20 20 17 16 17 16 17 18 17 17 17 15 13 12 11 9 7 7 6 5 4 2 -0 1 3 3 4 5 7
24 23 23 23 23 23 22 22 22 21 20 19 18 19 19 18 17 17 16 15 15 15 14 13 12 11 11 10 10 8 5 2 2 2 2 3 -0 0 4 5 6 7 7
22 21 21 21 21 20 20 20 19 18 18 18 17 17 17 16 15 13 11 10 11 11 11 9 8 7 7 6 4 0 -2 -5 -4 -0 -0 1 3 5 5 5 5 5 5
20 19 19 19 18 18 17 17 16 15 14 14 14 13 12 11 11 10 8 3 4 0 0 1 -3 0 2 -3 -5 -3 -4 -1 2 3 2 3 3 4 5 5 5 5 5
18 17 17 16 15 14 12 12 13 13 12 10 9 7 5 3 -1 -4 -6 -9 -7 -10 -13 -13 -8 -4 -2 -5 -6 -4 -0 -1 2 3 3 3 3 4 4 5 5 6 6
15 13 12 11 10 9 7 7 5 5 4 1 -2 -4 2 -0 -1 -12 -15 -14 -11 -15 -9 -10 -9 -6 -5 -5 -5 -4 -3 0 2 3 3 2 2 2 3 4 5 6 7
12 11 9 9 7 5 2 -3 -7 -8 -9 -7 -9 -9 -8 -8 -8 -16 -14 -12 -11 -9 -8 -8 -7 -6 -6 -4 -2 -0 -2 -1 0 1 2 3 2 2 3 3 4 6 7

GFSGL_sfc_temp_069.txt.gz
Temp
60 61 61 61 61 61 62 62 62 63 63 62 64 65 65 65 65 64 64 64 61 60 56 56 56 56 53 50 51 49 49 52 47 47 49 49 51 55 52 54 54 54 55
61 60 60 60 60 60 60 61 61 61 63 63 62 63 66 65 64 61 57 56 56 55 54 53 54 51 49 48 49 47 47 46 48 45 46 52 49 48 50 50 52 53 53
62 61 60 59 58 59 60 61 63 63 64 63 62 63 62 59 58 57 57 56 54 55 54 51 50 49 47 46 46 45 46 46 47 45 42 45 45 46 49 50 50 50 51
62 62 61 60 60 61 62 63 63 64 63 64 61 62 63 62 58 57 56 55 53 52 50 50 48 47 46 46 46 45 46 44 42 41 41 42 44 50 48 46 45 48 46
62 61 61 62 62 62 62 63 64 63 64 64 62 62 61 58 55 54 53 52 49 47 47 47 47 47 44 45 45 44 43 42 40 39 42 41 43 45 43 45 41 43 44
62 61 63 63 62 62 62 62 63 63 64 64 61 60 53 53 45 45 48 49 47 46 44 42 42 40 39 38 38 38 41 40 38 42 41 42 43 42 42 40 39 38 38
63 63 63 62 62 62 62 63 63 62 62 62 59 56 53 52 42 43 44 47 45 44 40 38 38 37 36 37 35 35 35 34 34 41 42 41 39 41 38 36 36 36 37
63 63 63 63 62 63 62 61 60 60 57 55 52 50 47 44 41 41 41 44 41 40 38 37 35 35 35 35 35 34 35 36 38 39 41 40 39 39 38 38 37 36 38
63 63 63 63 62 62 61 56 49 49 48 47 47 45 42 41 38 38 39 38 35 34 35 35 35 34 34 36 35 34 36 37 34 33 33 32 32 32 34 36 34 32 30
63 64 64 63 61 54 51 48 47 47 44 44 42 42 39 38 37 37 38 35 32 31 32 32 33 34 33 34 37 38 35 35 34 35 35 34 33 34 30 34 34 28 29
58 55 53 52 50 49 45 45 44 42 40 38 36 36 37 36 36 36 36 34 32 31 31 31 32 33 33 33 34 35 33 33 29 31 32 32 32 31 32 31 31 29 27
50 49 47 47 46 45 44 42 40 37 35 33 32 31 32 33 34 35 34 33 33 31 31 34 34 33 32 31 31 29 27 28 29 28 28 28 27 27 27 28 29 29 31
46 45 45 44 43 43 41 38 36 36 33 32 31 29 29 30 31 32 32 32 32 33 33 33 32 32 30 29 28 27 26 27 26 25 25 25 26 27 27 27 28 29 29
43 42 41 40 39 39 38 37 36 34 33 32 30 28 27 27 27 30 31 31 31 32 31 33 31 30 29 29 28 27 27 26 25 25 24 25 25 24 23 24 23 24 23
40 39 37 36 35 33 33 35 35 35 36 33 31 29 26 25 27 29 29 29 30 29 29 29 28 27 26 27 26 26 26 25 24 24 22 21 21 22 21 22 22 21 19
36 36 35 35 34 33 31 29 32 32 32 32 31 29 29 29 30 29 29 29 28 27 27 25 23 24 24 25 24 24 24 22 22 21 20 19 19 19 19 19 20 19 18
34 33 33 33 32 30 29 29 26 29 31 30 30 29 29 29 29 29 29 29 28 27 25 23 22 22 23 24 24 22 21 20 20 19 18 18 17 18 16 17 17 17 17
30 30 29 29 29 28 27 26 26 25 24 25 29 29 29 29 29 29 28 26 25 26 25 24 22 22 22 22 21 20 19 18 18 17 16 15 14 14 14 15 15 14 15
29 29 29 28 28 28 28 27 27 27 27 26 26 26 27 27 26 26 26 25 23 23 23 23 23 22 21 20 19 17 16 15 15 14 14 13 13 13 13 13 14 12 11
26 26 27 27 26 26 27 28 28 27 26 25 23 22 24 25 22 22 22 23 22 22 21 21 21 20 18 18 17 16 15 15 15 14 13 12 12 13 11 12 12 12 14
24 24 24 25 24 25 25 25 25 25 24 23 22 21 21 23 21 21 20 19 19 18 17 18 17 17 16 15 15 14 13 12 12 11 11 11 11 9 11 12 13 13 13
24 23 22 22 23 22 22 23 22 22 21 20 19 18 18 19 18 17 16 15 15 16 15 14 14 14 13 12 11 10 9 8 9 10 9 9 9 11 11 11 11 12 12
22 21 20 20 20 19 19 20 19 18 17 17 17 16 16 16 15 14 12 11 12 11 11 11 10 9 10 9 9 9 7 7 8 8 7 8 9 10 10 10 11 11 11
20 18 17 16 16 16 16 16 15 14 15 14 14 14 13 11 10 9 8 9 9 9 8 7 7 6 6 6 8 8 8 8 8 8 8 8 8 9 9 9 10 10 10
16 15 14 13 13 12 12 12 11 11 10 11 10 10 10 10 9 8 7 7 5 6 5 5 5 5 4 2 3 3 4 3 5 6 6 7 6 6 7 8 9 10 11
13 12 12 11 10 10 9 8 7 7 7 7 7 7 7 7 7 6 5 5 4 4 3 4 4 2 2 3 4 4 1 1 2 3 5 6 6 7 8 8 8 9 10

GFSGL_sfc_temp_072.txt.gz
Temp
69 70 70 69 69 69 70 70 71 71 71 71 70 71 72 72 72 71 71 71 70 70 70 67 64 65 58 58 58 57 54 54 50 49 55 54 54 56 56 60 59 58 59
69 69 69 69 70 69 68 70 70 70 71 72 71 71 71 72 71 71 70 70 70 69 67 63 58 57 56 55 53 51 50 53 51 47 48 52 52 56 58 55 54 60 60
70 68 68 67 68 68 68 68 70 70 70 71 71 71 70 70 70 69 70 69 68 65 62 57 56 56 53 50 50 49 49 49 49 48 47 52 55 50 49 50 54 55 58
71 69 67 67 68 68 69 68 69 70 69 69 70 70 69 69 67 67 61 59 58 58 57 57 56 55 54 49 48 48 47 47 48 51 52 45 48 48 50 51 52 55 54
70 69 69 69 69 69 68 68 69 69 69 70 69 70 69 64 61 61 64 62 57 55 53 53 53 51 47 48 49 48 47 45 45 49 43 44 43 44 45 53 50 51 52
70 69 70 70 69 68 68 68 68 68 68 69 69 69 68 66 52 47 58 58 55 52 49 47 47 45 44 41 41 42 45 43 43 42 42 41 44 47 49 48 47 45 44
71 71 70 70 69 69 69 68 68 67 68 67 68 68 68 67 44 45 44 57 53 50 46 43 40 39 39 38 35 35 35 35 36 44 43 43 44 46 47 45 44 44 44
72 72 71 70 69 70 69 68 67 68 67 66 66 66 64 59 43 43 41 49 44 43 42 40 37 36 36 36 35 34 35 37 40 42 43 43 44 47 45 45 44 43 44
72 72 72 72 69 69 68 68 66 64 61 59 58 55 53 47 41 41 42 40 37 36 37 37 36 34 34 36 34 33 34 34 34 34 33 33 33 33 35 42 38 38 35
72 74 74 72 70 69 68 63 54 56 51 46 43 44 40 40 39 39 40 37 33 32 33 33 34 34 32 35 35 34 34 35 36 36 38 33 34 36 31 37 39 34 35
75 73 72 71 69 66 54 53 50 44 42 40 39 38 38 38 37 37 37 35 32 31 30 30 31 31 32 34 37 38 36 38 33 40 39 40 40 39 39 40 38 36 33
61 58 57 56 51 51 48 46 44 41 37 35 34 33 34 34 35 35 34 33 33 30 29 30 31 31 31 32 31 30 30 33 35 34 35 36 36 36 37 37 37 36 37
52 49 47 46 45 46 43 41 38 38 35 33 32 30 30 31 32 33 32 32 31 30 31 31 30 30 30 30 29 28 30 32 31 32 32 34 35 35 34 33 34 34 34
44 43 42 41 40 41 40 39 37 35 33 32 30 29 28 28 28 29 29 30 30 31 30 30 31 32 32 29 28 30 32 31 30 30 29 32 32 31 29 31 29 29 28
40 39 37 36 34 32 32 35 35 35 35 33 31 29 27 25 27 29 29 29 30 31 31 31 31 30 30 32 31 30 31 30 29 29 27 27 27 27 27 29 27 26 25
36 35 34 34 33 32 31 29 31 32 32 32 32 29 28 29 30 30 30 29 30 30 31 29 29 28 28 29 29 27 28 25 27 26 25 25 24 24 25 26 26 25 24
33 34 33 32 32 31 31 29 26 29 31 30 30 30 31 30 30 30 29 28 28 29 29 28 27 27 27 28 28 27 25 24 23 24 23 23 22 23 22 23 23 24 23
30 30 30 29 29 28 28 27 27 26 25 26 29 30 30 30 30 29 28 27 26 27 26 26 25 25 25 25 25 25 25 24 23 22 21 20 20 20 20 21 22 21 22
29 28 29 29 29 28 28 27 27 27 26 27 28 28 29 28 28 27 28 29 27 27 27 26 26 25 25 24 23 22 21 20 19 19 19 19 19 19 18 19 20 18 18
27 27 28 28 29 29 28 28 28 28 27 26 26 26 27 28 26 25 26 26 25 25 25 24 24 23 22 22 21 20 20 20 19 19 18 17 17 18 17 17 17 17 18
28 28 26 27 26 27 27 27 26 26 25 24 23 24 25 25 24 23 22 22 22 22 21 22 21 20 20 20 20 19 18 17 17 16 16 16 16 15 16 16 16 17 17
28 27 27 26 27 25 25 25 25 24 23 22 21 22 22 22 21 20 20 19 19 19 20 19 19 19 19 17 16 15 14 14 14 15 14 14 14 15 15 14 14 15 15
25 24 24 23 23 22 22 22 22 22 21 21 21 20 20 19 19 18 17 17 18 17 16 17 16 15 16 15 15 14 13 13 13 13 12 12 13 13 13 13 13 13 14
24 23 22 21 21 21 20 19 19 18 19 19 19 18 17 17 16 15 15 15 15 15 15 13 13 11 11 11 13 14 14 13 13 11 11 11 11 12 12 12 13 13 13
22 21 20 20 20 19 18 18 17 17 17 17 17 16 16 16 15 14 14 13 11 12 12 11 12 11 9 7 7 8 9 7 7 8 9 10 10 11 11 11 12 13 13
18 18 17 17 16 16 16 15 14 14 14 14 14 14 14 13 14 13 12 11 9 9 9 11 10 8 7 9 10 7 4 3 4 4 7 9 10 11 12 12 12 12 12

GFSGL_sfc_temp_075.txt.gz
Temp
75 74 73 73 73 73 71 71 72 71 70 70 69 69 70 69 70 69 69 70 68 68 68 69 69 70 68 68 64 62 61 57 52 53 52 54 55 57 56 58 59 59 58
76 74 73 73 73 72 72 73 72 72 72 72 72 71 71 71 71 70 69 70 69 69 70 70 69 68 66 66 61 57 56 54 52 51 47 49 49 54 54 53 59 62 61
76 73 73 72 72 71 72 73 73 73 73 72 72 71 70 70 70 70 70 70 70 70 70 69 69 68 63 59 56 54 55 53 52 50 46 48 48 50 52 52 51 52 57
76 74 72 72 72 72 73 72 72 73 72 72 72 72 71 72 72 72 72 71 70 70 69 68 68 62 58 57 54 53 52 49 48 47 46 46 47 49 47 49 49 51 51
76 74 72 73 73 73 72 72 72 72 73 73 72 71 72 71 71 70 70 67 65 65 62 60 59 56 51 54 54 52 50 49 46 46 43 44 44 44 44 48 46 48 51
76 74 75 74 73 72 72 72 71 71 72 72 71 71 70 71 57 50 57 62 59 58 58 61 58 49 48 44 44 44 48 47 45 44 43 41 42 44 45 46 46 44 43
76 76 76 75 74 72 73 72 71 70 70 69 70 70 70 70 50 47 46 62 60 60 59 54 47 45 45 41 38 36 36 36 37 42 40 39 40 43 45 44 41 43 44
77 76 76 75 74 74 73 72 71 70 69 68 68 69 69 70 45 45 43 61 62 57 52 47 42 39 39 38 36 34 34 33 34 39 38 37 36 43 45 45 45 45 46
77 75 75 76 74 74 72 71 71 70 68 67 67 66 65 65 42 43 45 44 40 37 38 38 38 36 36 38 35 33 32 31 32 32 33 34 34 35 35 44 39 39 37
79 77 78 77 75 73 73 71 70 69 66 61 50 48 43 46 40 41 42 39 34 34 34 34 35 34 33 35 34 32 29 30 32 31 32 34 35 33 33 38 40 36 36
78 79 77 76 74 72 71 72 69 59 49 43 39 39 39 39 38 39 38 35 33 31 31 31 32 33 33 34 33 32 30 31 30 34 35 38 39 40 40 38 40 37 33
65 66 69 69 66 70 66 58 51 46 40 36 34 33 34 34 35 35 35 34 34 31 29 30 31 32 31 31 29 30 31 31 32 34 35 36 36 37 38 39 39 38 38
58 53 51 49 49 51 48 43 41 41 38 36 35 31 31 32 33 34 33 33 32 31 31 30 31 30 29 28 28 28 30 30 31 31 31 33 35 36 35 35 35 36 35
42 41 41 40 38 39 39 40 39 38 35 33 31 29 28 29 29 31 31 31 32 30 29 29 29 29 29 27 28 29 30 30 30 30 30 32 33 32 31 32 30 30 27
37 37 35 34 34 32 31 33 34 33 34 33 31 30 28 26 28 30 31 30 30 29 29 29 28 28 29 29 28 28 28 29 28 29 28 28 29 29 28 29 28 27 24
34 33 32 32 32 31 30 29 31 31 32 31 31 30 30 31 31 32 32 31 31 30 30 29 29 30 29 28 28 28 29 27 29 27 27 26 25 25 25 26 26 24 23
31 31 31 31 31 29 30 29 26 29 31 31 31 31 31 31 31 30 30 30 30 31 30 29 29 28 28 28 28 27 26 26 25 26 25 24 24 23 22 22 23 23 23
30 30 29 28 28 28 28 27 27 26 25 25 29 30 30 29 29 29 29 30 29 29 29 28 27 27 28 27 27 26 26 25 24 23 22 22 21 21 20 20 21 20 21
29 29 29 29 29 28 28 27 27 26 25 25 26 27 27 28 29 29 30 28 27 26 27 26 26 26 25 25 24 24 23 22 22 21 21 21 20 19 18 19 19 18 18
29 29 30 30 29 29 29 27 27 27 26 26 26 26 28 27 25 25 25 25 24 24 24 24 24 24 22 23 22 22 22 21 21 20 19 19 18 18 16 16 17 16 17
30 30 29 28 27 27 27 25 25 24 23 22 22 24 24 24 22 21 21 20 21 21 21 22 22 21 22 21 21 20 19 18 18 18 17 17 16 15 16 16 16 16 16
26 26 26 25 26 27 27 26 24 23 22 22 21 22 22 22 20 19 19 19 19 20 21 20 20 20 19 18 17 16 16 15 16 16 15 15 15 15 15 15 15 15 15
27 26 25 24 24 23 23 23 22 22 21 21 21 20 20 19 19 19 18 18 18 18 17 17 17 16 17 15 16 16 15 15 15 14 13 13 13 13 14 13 13 13 13
26 25 24 23 23 23 22 21 21 21 21 20 20 19 19 18 18 17 16 16 16 16 16 15 15 13 12 12 14 14 15 14 13 12 11 11 11 12 12 12 12 12 13
24 23 22 22 21 20 20 20 20 20 19 19 18 18 18 18 17 16 15 15 13 13 13 13 13 13 12 9 10 10 11 8 7 7 8 9 10 10 11 12 12 13 13
21 20 20 20 19 19 18 18 17 17 16 16 16 16 16 16 15 15 14 13 10 11 12 13 13 11 10 11 12 8 5 4 5 5 6 8 9 10 12 12 12 12 12

GFSGL_sfc_temp_078.txt.gz
Temp
69 67 66 65 66 66 65 66 65 65 64 64 64 63 62 61 62 62 62 63 62 61 61 61 62 62 62 61 59 59 58 57 54 56 54 54 52 53 52 53 51 51 48
71 69 67 67 67 66 66 66 66 65 66 65 65 63 63 63 62 61 62 64 62 62 62 61 61 62 61 61 60 59 58 58 56 54 51 50 50 52 50 50 54 57 55
72 70 68 68 67 67 67 67 67 66 66 65 66 64 63 63 63 63 63 63 63 63 63 62 62 61 60 60 60 58 58 55 55 54 52 49 49 49 48 49 49 49 54
73 71 69 68 68 68 68 68 68 68 67 66 66 66 65 65 65 65 65 64 64 64 63 63 63 62 61 61 59 57 55 54 54 53 53 48 47 46 48 46 44 46 48
72 71 70 69 69 69 68 68 68 68 68 68 66 66 66 66 66 65 65 64 63 63 63 63 63 62 55 57 59 56 55 53 53 51 50 44 43 41 43 45 43 42 44
72 71 72 70 69 68 68 67 67 66 67 67 66 66 65 67 56 51 59 63 63 63 62 62 56 50 49 45 47 47 52 53 52 49 48 45 45 45 43 40 38 37 35
74 73 73 71 69 68 68 68 67 65 65 65 65 66 65 65 51 49 48 64 63 61 57 57 53 51 47 51 38 38 36 36 34 47 45 39 37 39 38 35 34 33 33
75 74 73 72 70 70 68 67 66 66 65 64 64 65 65 65 49 47 45 59 62 56 54 55 55 46 42 39 36 34 34 34 34 37 35 33 35 36 36 35 34 34 37
73 74 74 72 71 70 68 67 66 65 64 64 64 63 63 63 47 45 45 56 50 39 39 39 39 37 37 39 36 33 30 30 33 34 34 34 33 32 33 34 31 32 31
58 64 73 73 72 70 68 66 66 66 64 64 61 54 50 56 40 41 46 43 36 34 34 34 35 35 35 36 35 33 30 28 30 29 30 31 32 33 32 32 32 30 30
55 60 59 64 70 70 68 66 64 63 51 43 38 37 38 39 39 41 41 38 35 33 32 31 32 34 34 34 33 32 30 31 30 31 31 30 31 31 31 31 32 30 28
49 49 49 49 50 58 61 52 50 46 40 36 34 33 33 34 36 37 36 35 35 32 30 31 32 33 33 32 31 31 31 30 30 29 30 29 30 30 32 32 32 32 33
41 39 39 40 41 44 45 44 42 41 38 35 34 32 31 32 33 34 34 33 32 30 31 31 32 31 30 30 31 30 30 29 29 28 27 28 29 30 32 31 32 33 32
37 36 36 34 34 34 38 38 37 35 34 34 32 30 29 30 30 31 31 31 31 30 29 28 27 27 28 28 28 28 27 27 27 26 26 26 28 27 27 28 27 27 24
36 35 33 32 31 31 30 31 32 33 34 32 30 30 29 27 29 31 30 28 28 28 28 27 26 27 27 26 26 27 27 27 25 25 24 25 25 26 25 24 23 22 19
33 32 31 31 30 30 29 29 32 31 32 32 31 30 31 32 32 31 31 31 31 30 28 27 27 27 26 26 25 25 24 23 23 25 23 23 22 21 21 21 21 18 19
30 29 29 29 28 28 28 27 26 29 31 31 31 31 31 31 31 32 32 32 32 31 28 27 25 25 24 24 23 23 21 22 25 22 21 20 19 20 19 19 19 19 18
30 29 29 28 27 27 26 26 26 25 23 25 29 29 30 30 31 31 30 29 26 26 25 24 23 23 23 22 22 21 21 21 20 19 17 16 14 16 15 16 16 12 15
30 29 29 28 28 28 27 26 26 25 24 24 25 26 27 28 28 28 28 25 23 23 22 22 21 21 21 21 20 20 19 18 16 15 16 15 10 11 9 11 10 10 11
28 28 28 27 26 25 25 23 23 22 22 22 24 23 23 22 20 20 21 20 20 20 20 19 19 20 19 20 19 17 17 16 15 14 10 7 7 8 7 7 7 7 12
26 26 26 27 25 24 23 22 21 20 20 19 19 21 20 19 17 17 17 17 17 17 18 19 18 17 17 16 16 15 13 11 12 12 10 11 5 5 9 8 7 10 12
25 24 24 23 24 23 22 23 22 21 20 19 18 19 19 18 17 16 16 16 15 16 16 16 15 14 14 13 12 9 9 6 8 8 7 6 6 5 6 7 5 5 9
25 23 23 23 22 21 21 21 20 19 18 18 18 17 17 16 16 15 14 14 15 14 13 13 11 11 10 9 10 11 9 9 9 7 1 0 3 4 3 3 6 5 5
23 22 22 20 20 19 19 19 19 18 18 17 16 15 14 14 13 12 11 11 11 11 9 7 10 7 6 3 4 3 8 4 3 2 2 2 2 4 2 4 5 4 7
20 19 18 18 17 17 16 16 16 15 15 14 14 14 14 13 12 10 9 9 7 6 7 9 5 5 4 0 2 3 0 -3 -5 -4 -2 1 1 -0 3 6 7 9 8
18 17 16 16 15 15 14 13 13 12 12 12 12 12 11 11 9 9 8 4 1 4 5 4 7 3 3 5 4 -1 -4 -3 -4 -2 -3 2 0 3 6 5 3 6 7

GFSGL_sfc_temp_084.txt.gz
Temp
60 60 62 62 61 61 60 60 62 62 62 62 61 60 60 59 59 59 61 61 59 60 60 59 59 60 59 59 58 58 57 57 54 57 59 58 54 56 56 55 57 55 55
60 60 60 62 61 60 61 61 62 62 62 62 61 60 59 60 59 58 59 61 58 58 59 58 58 59 58 59 58 57 57 58 56 54 57 53 52 55 56 56 56 55 55
60 59 59 59 59 60 61 63 62 62 62 62 61 60 59 59 59 59 59 59 58 58 58 58 58 59 58 58 59 58 58 57 56 56 56 59 57 50 49 49 50 52 53
61 60 59 59 60 61 61 61 62 62 62 62 62 61 60 59 59 59 58 58 59 59 58 59 59 58 58 58 57 56 57 56 56 55 55 56 55 51 52 51 47 48 50
60 60 60 60 61 61 61 61 61 61 61 62 61 61 61 59 59 58 59 57 57 57 58 58 58 58 54 56 58 56 56 55 55 54 55 55 51 44 47 51 51 50 45
60 60 61 60 61 60 60 60 60 61 61 61 60 59 59 60 52 48 54 58 57 56 56 57 58 51 51 47 47 49 55 55 55 54 55 54 55 50 52 51 47 39 38
53 55 58 58 60 62 61 60 60 60 60 60 60 60 59 60 49 47 46 59 58 57 56 56 56 57 50 56 45 43 41 39 40 57 55 56 55 55 52 45 43 40 36
49 51 53 52 52 54 56 61 61 61 59 59 60 60 60 61 48 46 44 56 59 59 57 56 56 56 55 53 48 43 41 37 37 39 42 44 39 41 43 42 38 34 34
45 46 48 48 48 49 48 48 54 61 61 60 61 60 60 61 47 45 45 55 57 57 58 58 57 56 51 45 44 39 33 32 36 36 36 36 36 36 38 37 34 34 30
43 43 43 43 43 44 44 45 48 50 60 62 60 60 56 59 49 45 46 56 54 54 56 41 37 46 45 40 49 40 34 31 32 31 30 31 32 32 32 34 34 31 29
41 41 39 39 39 40 40 42 44 45 46 57 56 42 42 39 39 39 43 53 53 50 43 34 33 35 36 35 36 36 34 31 30 29 29 29 29 29 29 30 30 30 28
38 37 35 35 35 36 35 36 38 39 40 38 36 35 34 34 35 36 37 38 37 36 32 32 32 33 33 33 32 32 32 31 30 28 27 26 26 26 27 28 29 29 30
36 34 32 33 32 33 33 32 32 35 35 33 33 31 31 32 32 33 34 33 33 32 32 32 32 32 32 31 31 30 30 29 27 25 24 24 25 26 27 27 28 28 27
33 32 32 31 31 31 32 32 30 30 32 32 32 30 29 28 28 29 29 29 30 28 28 28 28 28 28 27 27 27 27 27 26 25 24 25 25 24 24 25 23 24 23
32 31 30 30 30 29 30 30 30 30 30 29 29 29 28 27 28 29 28 28 28 28 28 27 26 25 24 23 24 24 24 24 23 23 23 22 22 21 21 22 22 22 20
29 29 28 29 28 27 27 28 30 30 31 32 32 30 31 32 32 32 32 31 30 29 26 24 23 22 21 21 21 21 22 22 22 21 21 20 19 19 20 20 20 19 17
27 27 27 26 26 25 24 24 22 26 29 28 29 31 31 31 30 30 30 29 29 27 23 22 21 21 20 21 20 19 18 19 21 19 19 19 19 18 17 16 16 16 15
24 24 25 24 24 23 23 23 22 21 20 20 23 25 27 27 27 27 26 25 21 22 21 20 19 19 20 19 19 18 18 18 17 17 16 15 15 15 14 13 13 11 13
23 23 23 21 21 20 20 19 19 19 18 18 19 20 20 24 23 23 23 19 17 17 18 17 17 17 17 17 16 15 14 13 12 12 12 11 10 11 10 9 10 9 10
21 22 21 20 19 19 19 18 18 17 17 16 15 15 17 17 14 13 14 15 15 15 15 14 14 14 14 14 13 12 12 12 11 10 5 4 2 6 6 6 4 3 8
19 20 19 19 19 19 18 16 16 16 15 14 13 15 16 14 12 11 11 11 12 12 11 11 10 10 11 10 10 8 7 4 5 3 3 4 -1 0 5 4 2 5 7
19 19 19 19 19 17 17 16 15 14 14 12 12 12 11 10 10 9 8 7 7 9 9 8 7 7 7 6 6 2 -1 -3 -4 -4 -3 -2 -0 -1 -1 -1 -1 -2 2
17 16 16 16 16 15 14 15 12 10 9 9 9 8 7 5 5 5 5 3 4 4 4 3 2 2 1 -1 2 2 -0 -3 -5 -8 -8 -8 -3 -4 -9 -6 -4 -5 -5
14 14 14 12 11 11 9 8 9 8 8 7 7 5 3 1 -3 -4 -4 -5 -1 -2 -4 -4 -1 0 -1 -8 -5 -2 -3 -11 -8 -10 -13 -11 -7 -5 -9 -6 -4 -6 -6
12 10 9 8 7 6 6 5 3 3 3 1 0 -0 2 -2 -3 -9 -8 -4 -0 -1 -1 -4 -5 -3 -3 -4 -4 -4 -7 -7 -11 -10 -11 -11 -13 -12 -10 -6 -10 -6 -7
10 9 7 7 4 1 0 0 -3 -4 -2 -4 -5 -9 -8 -5 -9 -15 -12 -9 -8 -7 -6 -5 -3 -5 -5 -5 -4 -6 -8 -6 -10 -9 -15 -9 -12 -12 -13 -11 -9 -8 -2

GFSGL_sfc_temp_087.txt.gz
Temp
58 58 59 59 61 61 61 61 61 60 59 58 59 59 58 59 60 60 61 61 59 61 61 59 59 61 59 58 58 58 56 56 53 58 59 56 54 56 57 56 57 56 58
58 58 58 59 60 61 61 61 61 61 61 61 59 59 58 59 58 58 59 60 57 58 60 59 59 60 58 59 59 58 58 59 57 55 59 57 54 56 59 57 56 57 58
58 57 58 58 58 60 60 61 61 61 61 61 61 60 59 58 58 57 57 58 58 58 59 58 58 57 56 57 57 57 56 57 57 55 56 58 57 54 53 54 55 56 56
58 58 57 57 58 60 61 61 60 61 61 61 61 61 60 60 59 59 58 57 58 59 57 58 58 57 56 57 55 55 56 55 56 55 55 56 57 56 51 52 51 50 53
59 58 58 58 59 60 60 60 60 60 60 61 60 60 60 60 60 59 59 57 57 57 58 57 57 57 53 55 58 57 55 55 55 55 54 55 55 51 50 55 52 54 53
53 55 58 59 59 59 58 59 59 59 59 59 59 59 58 59 51 48 54 57 57 56 55 57 57 51 51 46 47 49 55 55 53 54 54 53 54 55 54 53 53 49 46
48 50 50 51 52 53 56 59 58 59 59 59 59 59 59 59 48 46 45 57 57 56 56 56 56 56 50 55 47 44 44 44 47 56 54 54 54 56 56 52 52 52 50
44 44 46 46 47 49 50 49 50 52 58 59 59 59 59 61 49 47 45 55 57 57 57 57 56 56 55 53 52 51 48 51 48 48 51 55 56 50 50 52 53 41 34
41 40 41 41 43 44 43 43 45 46 49 51 58 59 59 59 48 45 45 53 55 56 58 58 57 56 52 46 51 50 48 34 36 37 36 35 35 36 39 39 35 36 31
39 38 38 37 39 38 39 40 41 43 45 47 49 47 40 41 36 37 43 55 53 53 55 55 47 53 47 43 49 51 47 36 32 30 30 30 30 31 31 32 35 36 29
37 36 35 34 35 35 35 37 38 39 41 39 37 34 34 33 34 36 38 42 52 52 51 48 34 35 35 36 40 50 45 32 30 29 28 28 29 29 29 29 29 30 25
36 33 33 33 34 35 33 33 34 36 36 34 33 32 32 31 32 34 35 35 37 35 33 32 32 34 33 33 33 33 32 30 29 28 27 26 26 25 26 27 27 27 27
34 32 32 31 32 33 32 31 31 33 32 32 31 30 29 30 30 31 32 32 33 32 31 31 31 31 31 30 30 30 29 28 26 25 23 23 24 25 26 26 27 26 26
31 31 30 29 30 30 31 31 30 29 29 29 28 28 28 28 28 29 29 30 31 30 29 28 28 27 27 27 27 27 27 26 25 23 22 23 23 22 22 23 22 23 22
29 30 29 30 28 28 27 27 28 29 30 29 28 28 26 27 29 30 30 28 28 27 26 26 24 23 23 23 23 23 23 23 22 22 21 20 20 20 19 21 21 20 18
28 27 26 26 25 25 26 25 29 28 30 30 31 29 29 30 31 30 30 29 29 28 24 21 21 21 20 19 19 19 20 20 20 20 20 19 19 18 17 18 19 18 16
26 26 26 25 24 24 22 21 18 22 26 27 28 29 29 29 29 29 28 27 26 25 20 19 19 19 18 18 18 18 17 18 19 18 17 17 17 17 16 15 15 16 15
22 21 20 19 19 18 17 16 16 15 15 16 22 24 26 26 26 26 26 24 19 19 18 17 16 17 17 17 17 16 16 15 15 15 14 14 14 14 13 13 13 12 12
20 19 17 17 17 16 16 16 15 14 14 13 15 16 17 23 22 22 21 16 15 14 15 15 15 15 15 15 14 13 12 11 11 10 10 11 10 11 10 10 10 10 10
18 18 16 17 16 15 15 14 14 13 12 11 11 11 13 14 11 10 12 12 12 12 12 12 12 12 12 13 12 12 11 10 9 9 6 6 7 8 6 6 6 6 8
16 17 15 17 16 15 14 14 13 12 11 10 8 10 11 9 7 8 8 7 8 8 7 8 7 8 9 8 8 5 5 3 5 4 5 3 -1 1 3 3 3 5 6
16 16 16 15 15 14 13 12 12 11 10 9 9 8 8 7 6 5 4 3 3 5 5 4 3 4 5 5 3 1 -1 -4 -3 -3 -1 0 1 0 0 -1 -4 -5 -0
15 13 13 13 12 10 10 10 10 8 8 7 6 5 4 2 3 2 0 -1 2 1 -1 -1 -3 -1 -1 -3 -2 -1 -2 -5 -5 -10 -10 -8 -3 -6 -10 -6 -4 -4 -4
11 11 12 10 9 8 6 4 6 6 6 4 3 1 -1 -2 -3 -3 -2 -3 -2 -5 -9 -11 -5 -3 -4 -11 -8 -5 -3 -11 -8 -10 -13 -12 -9 -7 -10 -6 -5 -9 -9
8 7 7 5 5 3 3 1 0 0 -1 -3 -5 -4 -2 -4 -4 -10 -7 -6 -7 -10 -7 -10 -8 -6 -8 -10 -9 -6 -7 -8 -13 -12 -13 -13 -13 -13 -11 -9 -13 -8 -9
8 6 4 4 1 -0 -2 -5 -8 -8 -8 -10 -12 -14 -12 -12 -13 -17 -14 -11 -11 -10 -8 -8 -7 -8 -8 -6 -5 -7 -9 -9 -12 -13 -17 -11 -13 -14 -15 -13 -11 -10 -5

GFSGL_sfc_temp_090.txt.gz
Temp
60 59 59 60 58 60 59 56 56 55 56 56 56 57 57 57 59 57 59 59 57 59 59 58 58 59 58 58 58 58 57 57 56 59 57 57 55 57 58 58 59 57 58
59 59 59 60 58 59 59 59 59 57 56 57 56 56 57 57 57 57 57 58 57 57 58 58 58 60 58 59 59 58 59 59 57 55 59 58 55 59 60 59 57 59 59
59 58 58 57 56 57 59 60 60 60 60 58 58 57 56 57 57 58 58 58 57 57 58 58 58 58 57 58 58 58 58 58 57 56 57 60 59 54 56 56 58 59 57
57 56 56 56 56 56 58 60 60 60 60 60 60 59 59 58 57 57 57 57 57 57 57 58 59 58 57 58 56 56 57 57 56 55 55 56 57 57 55 55 55 53 56
58 57 57 57 57 57 58 59 60 59 58 59 59 58 59 59 59 57 58 57 56 56 57 57 57 57 52 55 58 57 56 54 55 54 54 54 54 55 52 55 52 55 56
51 50 51 52 57 57 58 59 59 59 60 59 58 58 57 58 50 47 54 58 57 57 56 57 58 50 51 46 46 48 57 55 54 54 54 54 56 57 57 56 54 52 50
45 46 47 48 49 49 51 50 50 52 57 58 59 59 58 58 47 46 45 57 59 57 56 56 56 57 50 55 47 43 44 44 46 57 54 54 55 57 57 55 54 53 52
41 41 41 43 44 45 45 45 45 47 48 50 51 56 58 59 42 43 43 53 57 58 57 57 56 57 57 55 54 53 49 51 50 50 53 56 57 58 56 55 54 52 38
38 37 37 39 38 39 40 40 42 43 45 46 45 40 39 41 36 37 39 51 53 55 57 57 57 56 52 47 52 51 50 48 37 39 37 35 35 35 36 45 41 37 33
36 35 36 36 35 35 35 35 39 41 42 42 38 36 34 36 35 36 37 42 48 52 54 54 43 38 35 39 49 51 49 48 33 30 30 30 31 31 31 30 34 42 33
35 34 34 34 35 35 34 35 36 38 38 36 34 33 32 32 33 35 36 38 38 34 33 32 33 34 35 36 35 37 37 32 30 29 28 28 28 27 27 28 28 29 26
34 32 32 33 34 34 33 33 34 34 33 32 32 31 31 31 33 34 33 33 34 32 30 30 31 33 33 33 32 32 32 30 28 26 25 25 25 25 25 26 26 26 26
32 30 30 30 30 32 31 31 31 31 30 29 29 27 28 29 30 32 32 32 31 29 29 29 29 29 29 28 29 29 29 28 26 23 22 21 23 24 25 25 26 24 23
30 29 30 29 27 27 29 29 29 29 29 29 28 27 28 29 28 28 28 27 29 27 27 26 26 26 25 24 24 25 24 23 22 21 20 21 22 21 21 23 23 22 19
30 29 28 27 28 26 26 26 27 28 29 27 27 27 26 25 27 30 28 25 24 25 24 23 22 22 21 21 21 21 22 22 21 21 20 19 19 19 19 21 20 19 17
27 26 24 24 23 24 23 23 28 28 30 30 30 28 27 29 30 30 30 29 28 27 21 19 18 18 18 18 18 18 18 18 19 20 19 18 17 17 17 18 19 17 16
22 22 22 21 21 20 18 18 15 20 25 27 28 28 29 28 29 28 27 27 26 23 17 16 16 16 16 16 16 16 15 16 18 17 17 17 17 16 16 15 16 16 15
17 18 17 16 16 15 14 13 13 12 12 12 20 22 25 25 25 25 24 21 15 16 15 14 14 14 15 15 15 14 14 14 14 14 13 14 14 14 13 13 13 13 13
18 15 12 13 13 12 12 12 12 11 10 10 11 13 14 20 20 20 18 12 11 11 12 12 13 13 13 14 13 12 12 11 11 11 11 11 11 12 11 11 11 10 11
13 15 13 12 12 12 12 11 11 9 8 7 6 7 9 10 7 6 7 7 7 7 8 9 9 10 10 11 9 10 9 9 9 9 7 7 9 9 8 8 9 8 9
12 14 13 14 13 12 12 10 9 8 7 5 4 5 6 6 4 3 3 3 3 4 3 5 5 6 7 6 6 4 3 2 4 4 5 4 1 4 6 6 7 8 8
12 14 14 12 12 10 10 9 7 7 6 5 4 5 3 3 4 3 2 2 1 3 4 4 4 3 3 3 3 1 -1 -2 -2 -1 1 2 2 2 3 3 2 3 5
11 10 11 10 10 6 6 7 5 3 2 2 3 3 2 -0 0 0 -1 -2 -0 -1 1 2 1 1 -0 -2 -2 -0 -1 -3 -4 -6 -5 -3 0 -0 -1 1 1 1 1
9 7 9 5 4 3 -1 -2 -0 1 2 -2 -6 -3 -2 -3 -5 -4 -3 -7 -7 -9 -9 -8 -3 -2 -1 -7 -6 -2 -2 -7 -5 -7 -10 -6 -2 -2 -2 -1 -0 -3 -2
5 2 2 2 0 -4 -5 -4 -5 -7 -7 -9 -8 -8 -4 -6 -6 -11 -13 -13 -11 -11 -7 -9 -8 -7 -8 -10 -7 -5 -8 -9 -10 -11 -8 -8 -8 -8 -5 -3 -5 -1 -2
7 4 2 1 -2 -5 -7 -10 -14 -14 -14 -14 -16 -16 -14 -9 -10 -15 -11 -9 -8 -6 -5 -7 -6 -7 -7 -3 -3 -7 -10 -10 -11 -13 -11 -6 -7 -6 -6 -6 -5 -3 -1

GFSGL_sfc_temp_093.txt.gz
Temp
63 62 64 64 61 62 62 61 60 62 63 64 63 60 59 61 62 61 64 64 59 60 61 59 59 59 58 57 57 57 57 58 54 59 64 69 64 64 66 63 62 62 62
64 63 63 64 61 61 63 62 62 63 64 64 64 64 64 64 65 64 62 61 60 61 62 62 60 61 58 59 58 58 62 64 58 55 60 67 64 66 60 60 60 61 62
61 61 61 61 60 61 64 62 61 63 63 63 64 62 62 63 63 62 61 61 61 61 62 62 64 65 64 65 65 64 62 61 60 59 62 68 69 68 66 61 61 62 65
60 59 59 59 59 62 64 65 63 63 62 60 60 62 63 63 63 63 62 61 61 62 64 65 66 65 65 66 65 65 65 64 62 59 59 63 65 68 67 64 64 66 65
57 57 58 60 61 62 63 64 64 64 64 64 63 62 62 62 63 62 63 63 62 61 61 62 62 62 55 60 66 65 64 61 60 59 57 61 62 62 61 64 61 63 65
47 47 49 51 51 51 52 56 59 59 60 61 62 63 63 64 50 46 55 62 62 62 62 63 63 53 54 47 47 49 60 62 59 58 57 56 57 59 60 59 59 57 53
40 43 44 46 46 46 48 49 48 48 51 52 54 56 58 51 37 39 42 57 58 58 58 59 59 60 53 62 49 44 45 45 47 59 56 55 55 57 58 57 56 55 54
38 40 41 41 42 44 44 44 44 46 47 47 43 42 44 39 36 37 36 46 54 58 58 58 58 58 58 56 56 55 54 55 52 51 53 56 54 47 47 52 54 55 55
37 39 39 40 40 41 41 41 42 44 44 41 39 37 38 36 35 36 37 45 49 52 55 49 39 42 37 40 49 52 51 51 36 39 35 33 33 33 34 39 42 39 45
36 37 39 39 38 37 38 38 41 42 40 39 36 35 34 35 35 35 37 43 43 39 36 35 33 35 35 36 41 43 45 44 33 32 30 30 31 30 30 30 32 34 35
37 37 37 38 37 37 37 37 38 39 38 35 34 33 33 33 35 34 34 37 36 33 31 30 31 33 33 33 34 34 34 33 31 29 28 27 27 27 26 26 26 28 27
35 33 33 34 35 35 35 35 35 35 34 33 33 33 33 34 33 33 32 32 32 30 29 29 30 31 31 30 30 30 30 29 28 25 26 23 24 24 24 25 25 25 25
33 32 32 32 33 33 32 32 33 33 32 31 31 30 30 32 33 31 31 31 30 30 30 29 29 29 29 29 28 28 27 26 25 22 22 22 25 26 28 29 27 26 25
31 31 32 31 31 32 32 32 31 31 30 31 30 29 30 30 31 32 32 32 30 30 30 29 29 28 27 28 29 29 29 29 27 26 26 26 28 25 26 28 26 26 24
31 30 30 30 30 29 29 29 29 29 30 29 28 29 28 28 28 30 30 30 29 28 29 29 28 28 26 27 26 26 28 28 26 26 26 26 25 25 24 26 26 25 22
30 29 28 28 28 28 28 25 27 28 29 29 29 29 29 29 29 29 29 28 27 28 27 25 24 24 23 24 24 24 24 24 25 26 25 24 24 23 24 24 25 23 21
25 26 26 26 26 25 24 24 22 23 24 25 26 27 27 28 27 27 26 25 25 26 24 23 22 22 22 23 23 22 21 22 23 24 23 23 23 22 23 22 22 22 20
22 19 23 22 22 22 21 21 21 20 20 19 20 22 24 24 24 24 24 25 23 23 22 21 20 21 21 21 21 21 21 21 21 21 20 20 21 21 20 19 20 19 19
23 21 21 21 20 19 20 20 19 19 18 18 20 19 17 20 20 20 20 20 19 19 19 19 19 20 20 20 19 18 18 17 17 17 18 18 18 19 17 18 17 15 17
21 19 20 21 21 20 20 19 18 17 16 15 15 14 18 18 15 14 14 15 15 16 17 17 17 17 17 17 16 17 16 16 16 16 15 15 16 17 15 15 16 16 16
22 21 18 21 20 19 18 17 17 16 14 13 12 11 9 14 12 12 12 12 13 13 13 14 14 14 15 14 14 14 13 13 13 14 14 14 13 13 15 15 15 15 15
21 20 20 18 18 17 17 16 15 15 14 13 12 11 9 12 12 11 11 10 10 12 13 12 12 11 10 11 11 11 10 9 10 11 12 12 13 13 14 13 13 13 13
19 18 17 17 16 13 15 15 13 13 12 11 11 10 10 10 10 10 9 9 10 9 10 11 10 9 9 8 9 10 8 7 7 7 10 11 12 13 13 13 12 12 11
17 16 15 13 13 13 12 12 11 9 10 10 9 9 8 8 7 6 7 8 8 8 8 7 7 7 7 8 9 9 8 7 8 7 6 8 11 11 12 12 12 8 10
14 13 12 12 11 10 10 10 9 9 9 9 8 8 8 8 7 7 6 7 6 7 6 6 7 6 5 3 4 4 2 1 3 0 7 6 6 5 7 10 8 11 8
13 12 11 11 10 9 9 8 7 8 7 7 7 7 7 6 6 6 6 5 5 5 5 6 6 4 3 6 5 2 1 1 2 -2 4 8 7 8 9 7 3 10 8

GFSGL_sfc_temp_096.txt.gz
Temp
64 65 64 64 64 66 69 67 67 64 64 62 61 59 57 57 57 57 58 59 59 65 65 61 63 68 64 65 62 63 61 57 55 59 68 68 70 73 73 73 69 66 62
63 64 63 64 64 64 65 67 67 64 65 63 63 59 59 58 58 59 60 62 62 67 67 61 61 64 63 60 61 63 60 58 56 54 59 65 71 72 70 69 75 77 76
63 63 64 65 64 63 63 68 67 67 66 66 67 63 62 61 60 61 63 63 66 67 63 61 63 62 62 62 60 59 60 63 63 62 65 68 70 73 72 72 72 72 75
62 63 62 63 63 63 65 68 64 65 67 67 67 67 66 66 66 66 66 66 66 64 63 62 62 62 63 65 67 68 68 68 67 63 67 68 69 72 71 70 69 72 72
55 55 58 61 63 63 66 67 66 64 64 65 65 64 65 65 64 63 64 63 62 61 62 63 63 61 56 59 67 68 68 66 65 63 62 65 67 68 67 70 67 70 70
44 44 47 49 51 51 52 52 56 57 59 62 63 64 64 50 37 38 47 64 64 63 64 67 68 56 56 47 47 48 58 63 61 60 61 59 63 66 67 67 66 60 56
42 42 42 44 45 45 47 48 48 49 50 47 47 43 40 39 36 37 37 53 60 63 64 64 63 63 54 64 50 45 45 44 43 59 58 58 58 59 59 58 59 59 58
40 39 41 41 41 43 43 44 46 45 43 41 41 42 39 37 36 36 36 47 50 53 50 43 45 47 43 41 51 56 54 53 52 51 52 47 37 36 38 43 43 45 47
38 38 42 39 38 40 40 42 43 42 40 38 38 37 37 35 35 36 41 48 43 39 37 36 37 37 35 36 43 47 49 44 35 35 34 33 32 32 33 40 39 36 41
36 37 41 40 40 39 40 42 42 41 39 38 36 36 35 36 34 35 42 44 38 36 33 33 32 33 33 34 38 40 40 34 33 31 29 29 28 28 29 29 29 33 36
37 39 38 38 37 39 40 41 42 41 40 38 37 37 37 35 35 34 36 40 36 33 32 31 32 32 32 32 32 32 31 30 28 28 27 27 27 26 27 28 28 28 28
36 35 36 35 37 38 38 39 40 40 38 38 37 36 36 36 33 33 33 34 35 33 31 32 32 32 32 31 31 31 30 30 29 28 27 26 27 27 28 28 29 30 31
38 36 36 36 35 36 35 36 36 37 36 34 34 34 33 34 35 32 32 31 31 32 32 31 31 32 32 31 31 32 32 32 30 29 27 27 29 31 32 32 31 31 30
35 36 36 33 34 35 35 34 34 34 33 33 33 32 32 32 32 34 33 34 33 33 32 32 32 31 31 31 32 32 32 31 31 30 29 30 31 31 30 32 31 32 32
34 33 34 34 31 30 29 30 30 29 30 30 30 31 30 28 29 30 31 31 31 31 32 32 32 31 31 30 30 30 30 30 29 30 30 30 30 31 30 32 32 32 30
34 34 33 34 34 33 30 27 27 27 29 29 29 30 29 29 29 29 29 29 31 32 31 30 28 28 28 28 28 28 29 28 29 30 30 30 29 29 30 31 31 30 29
30 32 33 33 33 32 31 31 27 25 25 25 27 27 27 27 28 28 29 29 30 32 29 28 27 27 27 28 28 28 27 27 28 29 28 28 28 28 28 28 28 28 27
28 28 30 30 30 29 29 28 28 27 25 24 23 23 24 25 25 27 29 31 29 29 28 26 26 27 27 27 27 27 27 27 26 27 26 26 26 26 25 25 26 25 26
29 29 29 28 27 28 28 28 28 27 26 26 27 26 24 24 24 24 26 27 26 25 26 26 26 26 26 26 25 24 23 22 23 23 24 23 23 24 23 24 23 20 22
27 25 27 28 28 27 27 27 27 26 25 24 21 20 25 26 23 22 22 23 23 23 24 24 24 23 23 23 23 23 23 22 22 23 21 22 22 23 22 22 21 22 22
29 28 25 28 27 27 26 26 25 24 23 22 18 16 17 22 21 20 20 20 20 21 21 22 21 21 22 21 22 21 20 20 19 20 20 21 20 21 22 22 22 22 20
29 28 27 26 26 25 25 25 24 23 22 21 20 18 17 20 20 19 18 18 18 19 20 20 19 18 17 18 18 18 17 16 16 18 19 18 20 21 21 20 20 21 20
27 26 25 25 24 22 23 23 22 21 20 19 19 18 18 18 17 18 16 16 17 16 16 18 16 16 16 16 17 16 15 14 14 13 14 17 19 19 20 20 19 18 17
25 24 23 21 21 22 21 20 18 16 18 18 18 17 16 16 15 14 14 14 15 15 15 14 13 11 12 14 16 16 14 11 13 14 11 13 16 17 18 17 18 15 16
22 21 20 20 20 19 19 18 18 17 17 17 17 16 17 16 15 15 14 14 12 14 12 13 12 12 11 8 9 9 6 6 7 5 13 13 13 11 13 15 14 16 15
20 20 19 19 18 18 18 17 16 16 16 16 16 15 15 15 14 14 14 12 12 12 9 13 11 9 9 11 10 7 4 4 5 4 7 13 12 14 14 14 12 14 15

GFSGL_sfc_temp_099.txt.gz
Temp
64 65 67 73 72 72 70 70 67 67 65 62 60 59 57 57 57 56 57 58 58 60 62 64 63 68 67 67 67 67 67 65 61 68 72 65 63 63 67 69 71 71 72
63 64 64 67 70 67 67 70 69 68 68 66 63 60 58 57 57 56 56 58 57 57 60 59 63 64 63 68 68 63 63 62 63 62 66 63 64 66 67 67 71 77 75
63 63 63 64 66 65 66 67 67 66 66 67 66 62 60 59 59 58 58 59 61 61 60 64 67 64 64 63 68 68 67 68 64 60 62 68 70 71 70 71 71 72 75
61 62 63 63 64 64 67 68 67 68 67 67 67 66 63 63 62 61 60 61 64 66 66 67 70 65 62 63 62 63 64 63 62 60 63 66 68 70 69 67 67 71 71
49 51 55 62 63 64 63 66 68 68 67 67 67 66 66 64 54 53 61 62 63 62 66 67 63 59 54 56 62 62 64 62 61 59 59 63 64 65 64 68 65 68 69
42 43 47 49 49 50 52 53 61 59 58 58 54 60 47 45 37 38 42 60 63 62 61 62 63 53 54 47 47 48 54 62 61 61 62 61 63 65 66 65 63 61 57
41 41 42 44 45 45 47 47 46 45 45 45 43 41 39 39 36 37 37 54 61 59 52 54 57 49 42 46 46 43 44 43 39 53 54 56 55 43 44 50 54 54 53
37 38 40 41 41 43 43 43 41 41 39 40 39 39 37 36 36 36 36 48 43 39 38 39 40 39 36 38 43 48 47 36 37 39 35 32 32 33 35 40 41 41 44
33 34 37 38 38 41 40 40 39 37 36 36 37 37 35 34 35 37 44 42 37 35 34 34 36 35 34 36 44 45 37 32 33 33 32 32 32 32 32 39 34 35 37
33 35 34 36 37 37 38 38 38 36 35 35 33 34 35 34 34 36 42 40 35 33 33 33 33 33 33 34 37 39 31 30 29 29 29 29 30 29 30 29 29 32 32
35 37 36 34 37 39 39 39 39 38 38 37 35 35 35 34 34 35 37 39 36 33 32 31 32 33 33 33 33 33 31 31 30 30 30 30 30 29 30 31 30 30 30
36 35 38 38 38 40 38 37 39 39 38 38 36 35 36 34 33 33 34 34 36 34 32 32 32 33 33 33 33 32 32 32 32 31 30 30 30 30 31 32 31 31 31
36 34 32 36 36 36 36 37 36 36 35 34 34 33 33 35 35 33 33 32 32 32 32 32 33 33 33 32 32 32 33 33 32 32 30 30 31 32 33 33 33 32 32
36 36 34 32 32 32 34 32 30 32 32 32 32 31 31 30 31 33 34 34 33 33 33 33 32 32 32 32 32 32 32 32 32 31 30 31 33 33 32 34 33 34 34
37 36 34 33 31 28 27 29 29 28 29 30 28 28 28 26 28 31 32 32 32 32 33 33 32 32 31 31 31 31 31 32 31 31 31 31 32 32 32 34 33 34 31
35 35 34 35 35 34 30 26 28 28 29 29 29 29 28 29 30 31 32 33 33 33 32 30 29 29 29 29 29 29 30 30 31 32 31 31 31 30 31 32 33 31 30
31 33 34 33 33 33 32 32 27 25 26 27 27 28 28 28 29 31 31 31 32 33 29 28 28 28 29 30 30 30 28 29 30 30 30 29 30 30 30 29 30 30 29
30 30 30 30 30 30 30 29 29 28 26 25 25 26 26 27 28 30 32 33 30 30 29 28 28 28 29 28 28 27 27 27 28 28 27 27 27 28 27 26 25 24 27
30 29 30 29 29 29 29 29 29 28 27 26 27 28 28 27 27 28 29 28 27 27 28 27 27 27 27 27 26 26 25 25 25 25 25 25 25 26 24 25 26 23 23
29 28 29 29 29 29 29 29 28 28 26 24 22 22 27 28 25 24 25 26 25 26 26 26 26 25 25 25 25 24 25 23 24 24 23 23 23 25 23 23 23 22 23
29 30 28 29 28 28 28 28 28 27 26 23 20 20 21 25 23 23 23 22 23 23 23 24 23 22 23 23 24 22 21 21 21 22 21 22 22 22 23 23 23 23 23
31 30 30 28 28 27 28 28 27 26 26 25 23 21 22 24 23 22 21 20 20 22 23 21 21 20 19 20 19 19 19 17 18 17 19 20 21 23 22 23 21 21 22
30 28 29 28 28 26 26 26 25 25 24 23 23 22 22 21 20 20 19 19 19 19 18 19 17 17 18 19 19 18 15 14 15 16 14 16 19 19 19 20 20 19 18
28 27 26 25 23 25 24 23 21 19 22 22 21 21 20 19 19 18 17 17 18 17 16 17 16 13 13 14 16 16 12 10 12 13 12 15 16 17 16 18 19 18 18
25 25 24 23 23 23 23 22 22 21 21 20 20 20 20 19 19 18 17 16 15 16 16 16 14 14 12 12 11 10 7 6 7 6 10 13 15 14 15 15 16 16 17
23 23 23 23 22 21 21 21 20 20 19 19 19 19 18 18 17 17 16 15 14 14 14 15 14 12 12 15 9 8 6 6 6 5 6 10 13 14 15 13 14 15 15

GFSGL_sfc_temp_102.txt.gz
Temp
65 65 64 66 68 68 67 66 65 63 62 61 59 58 58 58 58 58 58 58 58 58 58 58 59 61 61 62 60 60 59 57 55 58 61 61 59 59 63 62 63 65 64
63 62 62 64 67 67 66 65 64 63 62 61 60 58 58 58 58 57 57 58 57 57 57 58 59 62 60 60 60 59 58 60 58 55 57 58 57 59 60 61 64 68 67
61 61 61 61 63 64 65 66 64 64 63 61 60 58 57 57 56 57 57 56 56 57 57 57 58 58 58 59 60 59 58 60 56 55 57 58 59 59 61 62 62 63 67
60 60 59 59 61 62 64 65 64 64 63 63 61 60 59 58 58 57 57 57 57 58 58 58 59 58 58 59 59 59 60 58 57 54 54 57 60 62 63 62 60 64 64
45 46 49 55 60 61 62 64 64 64 63 63 62 62 60 56 48 52 58 57 58 58 59 60 59 58 54 57 60 59 58 57 57 56 56 58 58 58 58 61 59 59 60
40 41 43 46 48 50 51 54 53 52 52 50 51 47 44 42 37 38 43 57 58 59 60 60 62 51 50 45 44 44 51 57 57 56 57 56 56 57 53 53 53 52 51
38 39 40 42 43 44 44 44 44 44 43 41 41 40 37 37 37 38 38 52 47 45 45 47 48 44 40 45 44 41 38 37 36 48 51 49 43 37 38 44 49 47 46
36 37 39 39 40 40 40 39 38 39 39 38 37 37 36 36 36 38 40 42 38 37 37 38 38 37 36 37 42 39 35 34 35 36 34 32 32 32 34 39 40 40 41
33 35 36 38 37 37 36 36 36 36 35 35 36 35 34 34 36 38 39 37 35 33 34 34 35 34 34 37 43 36 32 31 33 33 33 33 33 33 33 37 32 34 34
33 33 34 36 36 35 33 34 35 33 33 34 33 33 33 33 35 38 38 36 33 32 32 32 33 33 33 35 35 33 29 29 29 29 30 30 31 32 32 31 30 31 29
33 34 33 33 33 33 33 34 33 33 33 33 32 32 31 32 33 34 35 34 32 31 30 30 32 34 33 33 33 31 30 30 30 30 30 31 31 31 31 31 29 28 28
33 33 33 33 32 33 33 33 33 33 33 32 32 32 32 31 32 33 33 34 33 31 30 31 32 34 33 33 32 33 33 33 32 31 30 29 29 30 28 25 24 25 25
33 30 29 29 31 31 29 29 32 33 32 31 31 29 29 30 32 33 33 33 33 31 31 32 33 33 33 32 33 32 32 32 31 29 28 28 29 30 30 31 28 26 23
34 32 29 27 27 28 29 29 28 28 28 29 29 27 27 27 29 31 31 32 33 32 31 31 31 31 31 30 30 31 31 30 29 29 28 29 30 29 24 24 23 24 22
35 34 32 31 28 26 26 26 27 27 29 26 25 26 25 25 28 30 31 30 31 31 31 31 29 29 28 28 27 27 28 29 28 28 27 25 22 22 21 23 24 23 20
32 32 32 32 31 28 25 24 29 28 30 30 30 27 27 31 32 33 33 34 33 33 29 27 26 26 25 25 25 24 23 23 24 24 22 23 21 22 24 26 24 22 19
29 30 31 31 30 30 29 26 21 25 28 28 29 29 30 30 31 33 33 33 33 31 26 25 24 24 23 23 23 22 21 21 23 23 22 22 24 24 22 22 22 23 21
29 29 29 28 28 28 28 28 28 26 23 22 27 27 29 29 30 31 32 31 25 26 25 23 22 23 23 22 22 21 20 19 20 21 18 18 17 19 18 20 19 13 18
28 28 29 29 29 29 29 28 27 26 24 22 23 25 26 29 28 29 29 23 22 21 22 21 21 21 21 20 20 18 16 15 14 12 13 16 13 15 13 15 15 14 14
28 27 29 29 28 28 27 27 26 24 22 19 17 17 22 22 20 19 20 20 19 19 20 19 19 19 18 19 15 15 16 12 14 14 13 10 11 13 13 12 11 11 15
29 28 28 28 27 27 26 25 25 24 20 17 15 15 16 20 18 17 17 17 17 17 16 16 15 14 15 14 16 13 12 11 12 14 13 12 11 10 13 12 11 15 16
28 28 27 25 25 23 24 24 23 22 21 20 18 17 17 18 17 16 15 13 13 15 16 15 15 14 12 13 12 11 11 9 9 7 9 12 13 13 12 14 10 8 13
27 25 26 25 25 23 22 21 21 20 19 18 18 17 16 14 14 15 13 13 14 12 11 11 9 10 10 13 13 9 6 4 7 8 4 7 10 11 10 12 8 8 5
25 24 24 21 20 21 21 19 16 14 18 18 17 15 14 13 14 11 9 9 13 9 7 9 9 6 6 4 6 7 5 -0 4 2 1 6 8 7 4 5 9 4 7
22 22 20 20 20 20 19 18 18 17 17 16 16 15 15 15 14 13 11 8 6 8 9 10 5 6 4 5 4 2 -2 -1 -4 -3 -1 1 5 2 6 7 7 5 3
20 20 20 20 18 18 17 17 16 15 14 14 14 13 12 12 11 10 9 8 4 6 7 7 7 4 4 6 3 -0 -2 -2 -5 -4 -4 2 4 5 5 0 1 5 6

GFSGL_sfc_temp_105.txt.gz
Temp
60 60 60 61 62 65 64 61 59 59 60 60 59 59 58 58 58 59 58 58 59 59 59 59 58 58 57 58 58 59 58 57 54 57 60 60 57 58 60 61 62 61 61
52 59 59 60 62 64 63 62 60 59 61 60 59 58 58 57 57 57 57 58 58 57 57 57 57 59 57 58 58 58 58 58 57 56 57 58 59 57 58 58 60 64 62
48 59 60 60 61 63 63 62 61 60 60 60 59 58 58 58 57 58 58 57 58 58 58 57 58 58 57 57 58 58 57 59 56 55 54 55 56 58 58 59 60 60 64
45 47 50 58 59 61 62 62 62 61 60 60 59 59 58 58 58 58 57 57 57 57 57 58 58 57 57 57 57 57 58 56 54 53 53 53 53 55 55 57 57 59 61
41 41 44 48 53 55 56 61 61 61 61 60 60 59 58 56 51 56 57 56 56 56 56 57 57 55 51 54 58 57 55 55 52 51 51 52 52 54 55 57 57 57 54
39 40 41 43 44 45 46 47 50 49 48 46 46 46 43 42 37 39 47 56 56 56 55 56 57 49 47 41 42 40 45 56 53 53 54 53 54 54 50 51 51 50 48
36 37 39 40 40 41 41 40 40 41 40 39 38 38 37 38 37 39 39 50 47 45 44 48 46 42 41 46 38 37 36 36 33 45 50 47 42 36 38 43 46 46 45
35 35 36 39 39 39 39 38 36 37 36 35 35 36 37 38 37 38 37 38 36 36 36 37 37 37 37 41 38 35 34 34 34 35 33 32 32 33 34 38 39 40 35
32 32 33 34 36 37 36 37 37 35 34 33 34 33 34 36 37 37 37 35 33 33 34 34 34 34 36 39 37 33 31 31 34 34 34 34 33 34 34 36 33 34 33
32 32 32 33 33 33 33 34 35 34 32 33 32 32 33 33 35 37 37 35 32 32 32 33 33 33 34 36 36 34 30 29 30 30 30 31 32 32 31 30 28 27 31
32 31 31 32 32 32 32 33 33 33 33 32 31 31 31 32 32 34 35 34 32 31 30 31 32 33 33 33 32 31 30 30 30 31 31 31 31 30 29 28 25 24 23
31 29 28 30 30 30 30 32 32 33 31 30 29 29 30 31 32 33 33 33 33 31 30 30 31 33 33 32 32 33 33 32 31 29 28 28 28 28 22 21 20 23 25
31 28 27 28 28 29 28 28 29 29 29 28 28 27 28 30 31 32 32 32 32 30 31 31 32 32 32 31 32 32 31 30 28 27 26 27 26 26 26 27 25 23 22
31 29 28 27 27 27 28 28 28 27 26 27 26 25 27 28 29 31 31 32 32 31 30 30 30 29 28 28 28 29 29 28 27 27 26 26 25 24 25 23 21 19 19
31 31 28 27 26 26 27 26 27 27 28 25 25 26 26 27 29 31 31 30 29 29 29 29 27 27 25 24 24 25 25 26 24 24 23 20 20 21 23 24 23 22 20
29 29 29 28 26 25 24 24 30 29 30 30 30 27 28 31 32 33 33 32 32 31 27 25 23 23 22 22 22 22 23 23 23 24 22 23 22 22 23 23 23 19 18
27 28 28 27 27 27 23 23 20 25 29 30 30 31 31 31 33 32 32 32 31 29 23 22 21 20 20 21 20 20 19 21 22 21 20 20 21 22 21 21 20 20 20
27 27 25 27 26 26 25 24 23 17 17 19 26 28 30 30 30 31 30 27 22 23 21 19 19 19 20 20 20 19 18 18 19 19 17 17 15 18 18 18 18 12 17
25 26 27 21 21 24 20 21 22 19 16 14 16 19 22 27 26 26 25 19 18 18 18 17 17 17 17 17 16 14 13 14 13 12 11 13 9 12 12 13 13 10 13
22 23 23 23 22 19 18 19 18 15 13 12 12 13 15 18 14 14 15 14 15 15 15 14 14 14 14 14 10 10 12 11 11 12 9 10 9 10 8 10 10 7 13
19 16 21 19 18 19 18 18 19 13 7 6 6 7 13 14 12 10 12 12 12 13 12 11 10 10 11 11 12 9 7 5 8 7 7 9 9 5 10 10 8 12 12
20 21 20 16 17 18 19 17 15 15 15 10 8 13 12 11 10 9 8 5 2 9 10 9 8 8 11 9 6 1 0 -2 2 2 1 4 9 6 8 10 6 2 7
19 17 18 17 20 15 11 14 14 12 9 9 9 10 7 5 6 7 9 7 5 5 2 3 1 3 6 5 2 1 -2 -5 -0 -7 -6 -3 6 1 -2 1 4 3 3
17 16 19 11 10 11 10 3 3 9 13 10 6 3 3 4 2 -2 -5 -0 2 -6 -3 -2 0 0 0 -6 -5 -3 -1 -7 -5 -7 -10 -8 -1 3 -2 -0 0 -3 -3
12 14 12 12 10 12 10 10 6 7 3 5 6 5 8 9 10 0 -5 -5 -3 -5 4 -4 -4 -2 1 -3 -4 -3 -6 -7 -10 -8 -8 -8 -5 2 1 -0 -4 -0 -2
11 10 10 11 8 5 7 9 6 4 4 4 5 5 5 3 -1 4 -2 -4 -5 0 2 2 -1 -1 -0 0 -1 -5 -8 -8 -10 -9 -12 -6 -6 -8 -8 -7 -5 -6 -1

GFSGL_sfc_temp_108.txt.gz
Temp
48 55 61 61 60 61 62 61 61 60 59 58 58 58 58 58 59 59 59 60 59 59 60 59 59 59 57 56 56 56 56 57 54 56 59 59 58 58 59 59 60 59 60
46 50 59 60 59 59 60 60 61 59 59 58 58 59 58 58 58 58 57 58 59 59 58 59 58 58 57 57 57 56 57 58 56 54 57 57 58 58 59 57 59 62 59
44 45 48 50 59 59 60 59 60 59 59 59 59 58 58 57 57 57 58 57 58 59 59 58 58 58 57 57 57 57 57 57 56 55 55 57 58 57 57 58 56 56 60
42 43 43 44 48 57 60 60 60 60 60 59 59 59 58 58 57 58 57 57 57 57 57 58 58 58 58 57 57 57 56 56 55 55 56 55 55 56 56 55 52 54 57
39 39 40 42 44 46 51 60 60 59 59 60 58 58 57 56 50 54 57 57 56 56 57 57 57 56 51 53 57 56 54 54 53 53 52 50 50 51 51 53 53 55 50
38 37 38 40 41 41 42 44 46 46 46 46 45 44 44 43 38 39 44 56 56 55 55 55 56 49 44 42 41 39 47 54 53 52 53 49 50 52 49 52 53 52 49
35 37 37 37 37 38 39 38 38 39 41 39 39 40 39 39 38 39 41 48 45 44 44 48 45 42 43 41 37 36 36 35 34 49 51 46 44 39 40 43 45 46 43
33 34 35 36 35 36 35 34 34 35 35 35 35 37 37 37 36 37 37 38 36 36 36 38 39 38 38 40 38 35 34 34 34 35 35 32 33 34 36 39 40 38 34
30 31 32 34 34 34 34 33 33 33 32 32 34 34 34 35 36 36 36 35 34 33 34 35 36 36 37 39 37 33 31 31 34 35 34 34 34 34 35 37 34 34 32
28 29 31 31 31 32 32 32 32 32 32 32 32 32 34 33 35 36 35 34 32 32 32 33 34 34 35 35 34 32 29 29 30 31 31 31 31 31 31 30 32 33 31
29 29 29 30 30 30 32 32 32 32 31 30 30 31 31 32 33 35 34 33 32 31 31 31 32 33 34 34 33 32 30 31 30 30 30 30 29 28 28 28 26 27 26
28 27 27 28 28 29 29 30 30 30 29 29 29 29 30 31 33 33 33 33 32 30 29 30 31 33 33 33 32 32 32 30 30 28 28 27 28 27 24 25 25 25 26
29 27 27 28 28 28 28 28 27 28 27 27 28 28 29 30 31 32 32 31 31 29 30 30 30 30 30 30 31 31 30 29 28 27 25 25 23 21 25 26 27 26 26
28 27 27 27 27 27 28 29 27 26 26 26 26 27 28 29 29 30 30 31 31 30 29 28 27 27 26 26 27 27 27 26 26 24 23 23 23 25 23 23 23 24 23
30 29 26 26 25 26 27 26 27 28 28 26 25 27 27 28 30 31 30 28 28 28 28 27 25 24 23 23 23 24 24 24 23 23 23 23 23 23 23 24 24 23 21
28 28 27 25 24 24 24 24 30 29 30 31 31 28 29 32 32 32 31 31 30 28 24 22 21 21 20 21 21 21 22 22 22 23 22 23 22 22 22 23 23 21 20
24 26 26 26 26 23 21 21 18 23 28 28 29 30 31 32 31 31 30 29 29 26 21 20 19 19 19 20 20 20 19 20 21 20 20 20 21 22 21 20 20 21 20
21 22 20 19 20 20 17 16 14 12 11 13 21 26 29 29 29 29 28 25 19 20 19 18 17 18 19 18 18 17 17 17 17 17 16 15 16 18 17 17 17 13 17
22 23 21 17 17 16 16 14 12 10 10 10 12 16 18 25 24 24 22 16 15 15 15 15 15 16 15 15 13 12 12 11 10 10 11 11 6 12 12 13 13 11 12
16 17 16 14 16 16 15 13 11 10 10 10 10 6 9 13 11 10 11 12 12 11 12 12 12 12 11 11 7 7 8 8 8 8 5 4 5 9 8 7 7 9 11
15 14 14 15 15 15 14 12 8 7 7 9 8 4 7 9 5 5 7 7 9 10 8 9 8 8 9 8 8 4 2 0 3 2 3 5 1 4 8 6 6 10 10
16 18 17 14 15 14 13 14 12 11 10 9 6 10 7 4 6 5 3 -2 -2 5 6 3 5 7 5 3 1 -6 -6 -6 -6 -4 -2 -0 2 2 5 4 2 1 5
16 14 15 16 16 10 8 14 9 7 9 5 5 5 4 -1 -1 3 1 -7 -1 -2 -2 -1 -1 1 -2 -6 -5 -4 -5 -7 -7 -11 -10 -7 -1 -0 -6 -2 -1 -2 -2
14 12 17 10 8 8 3 -2 3 8 7 1 -4 -3 -2 -6 -9 -8 -9 -7 -8 -10 -10 -8 -2 -2 -3 -11 -9 -6 -4 -11 -9 -11 -14 -13 -6 0 -5 -3 -2 -6 -6
6 6 10 8 8 8 7 5 3 2 4 5 6 2 5 -0 -2 -10 -11 -10 -8 -8 -5 -8 -7 -3 -6 -8 -7 -6 -8 -10 -13 -12 -12 -10 -11 -10 -8 -6 -9 -4 -6
8 6 6 8 5 4 5 4 2 3 3 1 -1 -2 -4 -4 -4 -8 -10 -8 -7 -4 -2 -5 -6 -4 -5 -6 -5 -7 -10 -9 -12 -12 -17 -10 -12 -12 -12 -10 -8 -8 -4

GFSGL_sfc_temp_111.txt.gz
Temp
45 46 49 56 61 64 63 62 61 61 59 59 59 59 59 58 58 58 59 59 59 59 59 59 59 59 58 58 57 57 56 55 55 55 59 58 57 58 58 58 58 57 58
44 45 46 48 51 60 61 61 60 60 60 60 59 58 58 58 58 58 57 58 58 58 59 59 58 58 57 58 57 55 56 55 54 53 55 56 57 57 58 57 58 60 60
42 43 44 44 46 48 53 60 60 60 59 59 59 58 58 58 57 58 58 57 58 59 58 59 58 58 57 56 56 55 55 56 55 54 55 56 57 57 57 57 57 57 58
41 40 41 41 43 44 46 49 59 60 59 59 59 59 58 58 58 58 57 57 57 58 59 59 59 58 58 57 57 56 56 55 55 55 55 54 55 56 56 55 54 55 54
37 38 38 40 41 41 41 41 44 58 59 59 58 58 58 58 54 57 57 57 57 56 56 57 58 56 51 54 57 57 56 55 55 54 54 52 52 51 53 54 54 53 48
36 35 37 39 39 39 39 39 38 39 43 48 48 48 46 44 38 39 46 57 56 56 56 56 56 49 48 45 44 46 53 55 54 54 54 52 52 53 52 53 53 51 47
33 35 35 37 37 37 37 37 36 35 35 36 38 40 39 38 39 40 41 50 48 46 47 52 46 44 44 42 37 37 36 35 35 52 53 52 49 46 46 46 47 48 44
31 32 33 34 35 36 35 34 34 34 33 33 33 35 36 36 36 37 37 39 37 36 37 39 40 41 41 40 38 35 34 34 34 36 35 33 33 35 39 41 43 36 34
28 29 30 32 33 33 33 33 33 33 32 32 32 33 34 34 36 36 36 35 33 33 34 35 36 38 38 39 36 32 31 31 34 35 34 34 34 34 36 37 34 35 32
26 27 28 29 29 31 31 31 32 32 31 32 31 32 32 33 34 35 35 34 32 32 32 33 34 35 35 35 34 32 29 29 30 30 30 30 31 31 30 30 33 33 31
26 27 27 27 28 28 30 30 30 30 30 30 30 30 31 32 32 34 34 32 32 31 31 31 32 33 33 34 33 32 31 32 31 30 29 28 28 28 27 28 28 30 29
27 26 26 26 27 27 27 27 28 29 29 29 29 29 30 31 32 33 33 32 32 30 29 30 32 33 33 32 31 31 31 31 30 29 28 26 25 25 26 26 26 26 26
28 26 26 27 27 27 26 25 26 28 27 27 28 28 29 30 30 32 32 31 30 28 28 29 30 30 30 29 30 30 29 28 27 25 24 24 24 26 28 27 27 27 26
29 27 26 25 26 27 28 28 27 26 26 27 27 27 28 29 29 29 29 29 29 28 27 26 26 26 25 25 26 26 26 26 25 23 23 23 25 24 24 24 23 23 22
28 28 26 25 24 24 26 26 27 28 29 27 26 28 27 27 29 30 29 27 26 26 25 24 23 23 23 23 23 23 23 24 23 23 23 23 23 23 23 24 24 23 20
27 26 26 24 23 23 21 22 28 28 30 30 31 28 28 31 32 31 30 30 28 27 23 20 20 20 20 20 20 20 21 21 22 22 22 23 22 22 22 23 23 21 19
24 25 24 24 25 22 19 19 15 19 26 27 29 30 30 30 30 30 28 28 27 24 18 18 18 18 19 19 19 18 17 19 20 20 20 20 21 21 21 20 21 21 20
20 19 18 19 17 17 13 10 9 7 7 11 19 24 27 27 27 27 26 23 17 18 17 15 14 15 16 16 16 15 15 15 15 16 15 15 17 18 17 17 17 16 18
19 16 12 10 14 15 12 8 4 6 5 6 11 14 14 22 21 21 20 13 12 12 14 13 13 13 12 12 9 9 8 8 9 10 10 11 10 14 13 13 13 12 13
11 14 11 8 7 9 7 7 8 7 8 7 8 5 8 11 8 6 7 7 7 8 9 10 10 10 9 8 6 6 6 6 6 8 6 6 6 11 8 9 10 11 12
11 13 11 12 12 10 8 6 5 5 5 6 2 -0 5 6 4 3 6 5 5 5 3 6 5 5 6 4 5 2 0 -2 2 3 3 4 -1 4 6 7 8 11 11
14 16 16 13 13 10 10 13 9 8 8 7 3 6 3 0 2 1 -0 -6 -8 1 3 1 3 2 1 0 -1 -9 -8 -9 -8 -5 -3 -1 1 1 3 2 0 -1 4
13 11 13 14 14 9 6 10 10 8 3 -1 2 3 0 -5 -5 -2 -6 -11 -5 -6 -6 -3 -4 -3 -5 -8 -7 -6 -7 -10 -10 -14 -13 -11 -4 -4 -8 -4 -3 -3 -4
11 9 13 8 4 6 -3 -2 3 7 8 0 -6 -5 -6 -8 -10 -10 -12 -12 -11 -14 -15 -12 -5 -4 -6 -14 -11 -8 -6 -13 -11 -13 -15 -13 -7 -3 -8 -5 -4 -9 -8
2 1 3 5 4 3 2 4 -3 -3 1 0 -2 -4 -3 -8 -6 -12 -13 -11 -9 -11 -9 -10 -8 -7 -10 -11 -9 -7 -9 -12 -15 -14 -13 -12 -13 -12 -10 -9 -12 -6 -8
6 5 5 4 1 1 1 0 -1 -1 -5 -7 -5 -3 -4 -3 -6 -13 -12 -10 -8 -5 -7 -10 -9 -7 -9 -8 -6 -8 -11 -10 -14 -15 -19 -12 -13 -13 -13 -12 -10 -10 -6

GFSGL_sfc_temp_117.txt.gz
Temp
42 44 45 46 48 49 51 56 55 63 63 63 63 63 63 62 63 62 63 63 62 61 61 61 62 64 62 62 61 61 59 58 55 56 59 58 58 59 60 63 66 65 66
41 42 42 43 45 46 46 48 51 52 63 63 62 62 62 63 63 62 61 61 61 60 60 60 60 61 62 62 60 58 58 58 57 53 55 55 56 58 59 59 63 65 66
40 40 40 40 41 42 43 45 46 48 51 59 62 61 61 61 61 61 61 60 60 60 60 60 61 63 60 60 58 57 57 57 57 55 54 56 56 57 57 60 64 64 55
39 38 38 39 39 40 41 43 43 45 44 46 47 57 60 59 59 59 60 60 60 60 62 61 64 61 60 58 57 59 57 56 56 55 55 55 56 56 58 57 56 54 52
36 36 36 38 39 39 39 40 41 41 42 43 42 42 43 42 41 42 51 58 59 59 60 61 61 59 52 55 58 58 57 56 55 54 54 53 54 53 54 58 56 52 48
34 34 36 37 37 36 37 37 38 38 39 39 39 40 38 40 37 38 40 51 58 58 57 59 60 51 51 45 45 47 55 56 56 55 55 54 54 55 55 54 54 48 46
32 32 33 35 35 35 35 36 35 35 36 36 36 37 36 36 36 37 39 40 44 49 50 52 54 50 49 47 38 38 37 37 38 57 55 55 55 56 55 53 54 53 51
29 30 31 32 34 35 34 34 33 33 33 33 33 34 34 34 35 36 36 36 35 35 36 38 41 43 42 43 41 37 35 35 36 37 39 38 37 41 52 55 55 46 36
27 28 29 30 31 32 32 32 33 33 32 32 32 32 32 32 35 35 37 36 35 33 33 34 36 36 36 40 38 34 32 32 34 35 34 35 35 35 35 42 39 40 33
27 28 28 30 29 29 30 31 32 33 32 33 32 32 32 32 33 34 34 34 33 32 32 32 33 33 34 35 36 35 31 31 31 31 30 30 31 31 31 32 36 39 33
30 30 29 29 30 30 31 31 31 32 32 32 32 32 32 32 32 33 32 30 30 28 29 30 31 33 33 33 33 32 30 30 29 29 28 28 28 27 26 28 29 33 33
32 30 30 30 30 31 30 31 31 30 31 30 31 31 32 32 32 32 32 31 31 29 27 28 29 31 31 30 30 31 31 30 28 27 25 25 25 24 26 26 27 27 28
33 32 31 31 31 31 30 30 31 31 29 29 29 29 29 31 32 32 31 31 29 29 29 29 29 29 29 28 29 28 28 27 26 24 23 23 24 25 26 27 27 28 27
31 32 33 31 31 31 32 32 31 30 30 29 28 28 29 29 29 30 31 32 31 30 30 29 28 27 26 26 27 28 28 27 26 25 24 24 26 25 24 26 25 26 25
31 31 31 31 31 30 29 28 28 28 29 28 27 28 27 26 27 29 29 28 29 28 29 29 28 27 25 24 25 25 26 27 26 26 25 25 26 26 25 27 28 28 26
29 30 28 29 29 29 29 30 27 27 27 28 28 27 28 28 29 29 28 28 26 27 28 26 24 24 24 23 22 22 22 22 24 25 26 26 26 25 25 26 28 27 25
25 27 28 27 27 26 25 24 23 26 24 24 24 26 26 26 27 27 26 25 25 27 24 23 23 23 23 24 23 22 20 20 22 23 23 24 25 26 27 26 27 27 26
23 20 25 25 24 23 22 21 21 19 19 20 21 20 23 23 23 23 24 25 23 23 23 21 21 21 22 22 21 21 20 21 21 22 22 22 23 24 24 24 25 25 25
23 24 23 23 22 20 22 22 21 20 19 19 20 20 17 19 20 19 20 20 20 19 20 19 20 20 19 19 19 18 18 17 18 19 19 20 22 23 21 21 21 20 23
22 20 19 23 23 22 22 21 21 20 19 18 17 16 19 19 17 16 16 17 17 17 18 17 17 17 17 17 17 17 18 18 18 19 19 20 21 22 21 20 21 20 20
22 23 18 24 23 22 21 20 20 20 18 17 16 13 8 16 15 14 14 14 14 15 15 15 14 14 15 14 15 14 14 14 15 16 18 18 19 19 21 21 20 20 20
21 21 22 21 22 21 20 21 20 19 19 18 17 15 9 15 15 14 13 11 12 13 14 13 12 12 11 11 11 11 10 10 12 13 15 16 18 19 19 19 18 18 19
19 19 20 20 19 17 19 18 19 19 18 17 17 16 15 14 13 13 12 11 12 11 11 11 10 9 8 8 9 9 9 7 7 8 12 15 16 17 18 17 16 16 16
18 17 17 17 17 17 17 17 16 15 17 17 16 15 15 14 13 11 11 11 11 10 9 9 9 8 7 7 8 9 7 6 7 7 7 12 14 15 15 15 14 12 13
16 16 16 15 15 14 14 15 15 15 15 16 16 15 15 13 13 13 11 10 9 10 8 8 9 6 5 3 4 4 2 1 2 -0 9 9 9 9 11 13 12 13 10
16 15 15 15 15 15 14 13 13 14 14 14 14 14 14 14 13 12 11 10 10 9 8 9 7 3 3 6 5 1 1 0 2 -3 5 10 10 11 12 9 5 12 9

GFSGL_sfc_temp_120.txt.gz
Temp
43 44 45 47 48 49 50 52 54 56 56 64 65 65 65 65 63 62 63 64 64 64 65 65 65 65 63 66 65 67 63 60 56 59 61 62 59 59 60 61 63 67 70
42 42 42 43 44 45 45 47 50 52 53 57 64 65 64 64 64 62 62 63 63 62 64 63 64 64 62 65 64 63 62 62 59 56 57 57 58 60 60 59 61 67 71
42 42 41 41 41 42 42 44 45 47 49 50 50 53 61 62 63 63 62 62 62 63 63 63 64 62 61 62 63 62 67 65 60 57 55 57 58 58 58 58 58 60 56
42 42 40 40 41 41 41 42 43 44 45 45 45 45 45 45 44 45 51 60 62 62 62 63 63 61 62 64 63 66 64 59 57 56 56 55 57 57 57 56 55 53 52
40 40 41 40 40 41 40 40 41 41 42 42 43 41 41 41 40 40 44 49 57 60 60 60 61 59 54 59 65 64 61 57 56 55 54 55 54 53 53 56 56 52 50
39 37 39 41 41 38 39 39 39 38 39 39 39 38 37 38 36 37 40 49 47 53 57 59 60 52 53 45 45 46 54 57 56 55 54 54 55 55 56 55 54 48 45
36 37 38 39 39 39 38 37 35 36 36 36 36 37 36 35 36 37 37 41 39 38 40 42 45 50 47 55 40 38 37 37 38 57 55 57 55 57 56 55 55 53 53
32 33 35 36 37 38 37 37 36 35 34 33 33 35 35 35 35 35 37 40 37 36 35 36 37 38 38 43 45 40 37 35 36 37 39 38 39 43 55 57 56 48 38
30 30 31 33 34 35 34 34 35 35 34 33 33 33 33 32 34 34 36 37 35 33 34 35 35 35 35 38 39 34 32 32 34 35 34 34 34 34 36 47 42 43 35
31 31 31 32 31 32 33 32 34 35 33 35 33 32 33 32 34 34 34 34 31 30 32 32 33 33 34 34 35 35 31 30 32 32 31 30 30 30 31 31 36 48 34
34 34 32 32 32 32 32 33 32 33 33 32 32 32 32 32 32 33 33 33 33 30 29 29 30 32 33 33 32 30 29 30 29 29 29 28 29 28 28 28 29 33 34
39 36 35 35 34 34 33 34 33 33 32 32 32 33 34 32 33 33 33 32 32 32 30 30 30 31 31 30 30 30 30 30 28 27 26 25 25 26 27 28 28 28 29
40 39 38 38 38 37 35 34 34 34 34 32 32 32 32 34 34 33 33 32 32 31 31 30 31 31 31 30 30 29 29 28 26 25 23 24 25 26 27 28 29 29 29
39 39 40 39 39 39 38 37 33 31 31 30 29 29 30 31 31 32 33 33 32 33 32 32 32 31 31 31 31 31 30 30 28 27 27 28 29 28 27 28 27 27 26
38 37 37 38 37 37 37 33 32 29 28 27 27 28 26 26 28 29 29 29 30 30 32 32 32 31 30 31 30 30 30 30 29 29 29 29 28 28 28 30 29 29 27
34 35 34 35 35 35 35 35 27 27 26 26 26 27 28 27 28 28 28 28 29 30 32 30 28 29 28 28 28 29 30 29 30 30 29 28 27 27 27 28 28 28 27
30 30 33 32 33 31 31 30 29 31 28 26 24 24 25 25 25 26 27 28 28 32 30 29 28 28 29 29 30 29 28 28 29 30 29 29 28 26 26 27 27 27 26
28 28 30 30 30 29 28 28 28 26 26 26 27 25 23 23 24 25 26 30 29 29 29 28 27 27 28 29 29 29 29 29 29 30 29 29 29 29 28 28 28 26 26
28 28 27 29 29 28 28 28 28 27 26 26 26 26 25 24 25 24 25 26 25 26 26 26 26 26 26 27 26 26 26 25 26 27 27 28 27 28 27 26 25 25 27
28 27 26 28 28 28 28 27 27 26 26 25 24 21 22 25 23 22 23 22 23 23 23 24 24 24 23 24 24 24 25 25 26 26 26 26 27 28 26 26 26 25 26
27 27 25 28 28 27 26 26 26 25 24 24 23 19 15 22 21 21 21 20 20 20 20 21 21 20 21 22 23 22 22 22 23 24 25 25 25 26 26 26 25 26 26
26 26 26 26 26 25 25 25 25 24 24 23 23 22 16 22 21 20 20 18 18 19 20 19 19 18 17 17 18 19 18 18 19 21 22 23 25 25 25 24 24 24 25
25 24 25 25 24 23 24 24 23 23 23 22 21 21 20 19 19 19 18 17 18 17 17 18 17 15 16 16 16 16 14 14 15 15 19 21 23 23 23 23 22 22 21
24 23 23 23 22 21 21 20 21 21 21 21 20 20 19 19 18 17 17 17 17 16 16 15 14 12 13 14 15 15 13 11 14 15 15 18 21 21 21 21 20 18 19
23 21 21 20 20 19 19 20 19 19 19 19 20 20 19 19 18 17 17 17 15 15 13 14 14 12 10 9 9 9 6 6 7 7 16 16 15 15 16 18 17 18 16
23 22 21 21 20 19 19 18 18 18 18 19 19 18 18 17 18 17 17 16 15 15 13 16 13 8 7 10 10 6 5 5 6 5 11 16 16 17 17 15 10 18 15

GFSGL_sfc_temp_123.txt.gz
Temp
43 43 44 46 47 47 47 48 51 55 54 55 61 66 66 66 64 64 64 65 65 64 64 66 66 69 68 66 66 68 65 64 61 67 70 70 67 65 64 62 63 63 61
43 43 43 44 43 43 43 45 48 50 51 50 52 52 59 64 65 63 62 63 64 65 65 64 65 65 64 65 65 64 64 65 65 58 64 62 63 64 62 60 61 62 62
41 42 42 41 41 41 41 42 44 44 45 46 46 45 45 45 45 46 48 59 62 63 64 63 64 63 63 63 63 63 64 63 65 60 61 63 62 62 59 59 59 60 59
40 42 41 40 40 41 42 41 41 41 41 41 43 42 42 41 41 42 45 48 51 58 62 62 63 63 62 62 62 62 63 63 65 61 60 57 57 59 58 57 55 57 50
41 41 42 44 43 42 41 40 39 39 40 40 41 39 39 39 39 39 43 48 50 50 53 61 62 60 53 56 61 61 61 60 60 58 56 55 55 54 54 56 56 52 48
39 38 41 42 41 40 39 39 39 38 38 38 38 38 37 38 36 38 40 42 42 41 41 45 47 50 46 45 47 45 53 59 58 56 56 54 55 56 56 55 54 48 46
35 36 38 40 40 40 41 39 37 36 36 35 35 36 35 36 36 36 38 38 37 36 36 37 40 42 40 42 44 39 37 36 35 52 56 56 56 57 56 54 54 52 52
33 34 36 37 37 38 37 38 37 37 35 35 34 34 34 34 35 36 36 37 35 34 34 34 34 36 37 38 43 38 35 34 35 37 37 35 35 36 47 58 56 50 40
32 32 33 35 35 35 35 35 36 36 35 34 34 34 34 34 35 34 38 35 33 32 33 33 33 33 34 36 38 34 33 32 33 34 34 34 33 34 34 45 43 44 35
34 33 33 34 33 33 34 34 36 36 34 36 34 33 34 33 34 34 35 35 33 32 32 31 32 32 33 33 34 34 32 30 31 31 31 31 31 30 31 31 32 44 35
39 39 36 34 34 34 34 35 34 34 34 34 33 34 33 33 33 34 34 32 32 32 32 32 32 32 32 32 32 30 30 31 30 29 29 29 29 29 29 29 29 30 33
43 41 40 40 38 38 36 35 34 34 33 33 33 34 35 33 34 33 34 33 33 32 31 32 32 33 32 32 31 31 30 30 29 27 26 25 26 27 28 29 29 30 31
43 42 42 41 42 41 38 36 34 34 33 32 32 31 32 34 33 32 33 33 33 32 32 33 33 33 33 32 31 31 31 31 29 27 26 26 27 28 29 29 30 30 29
41 41 41 41 41 42 40 38 35 30 30 30 28 28 29 30 29 31 31 32 32 33 32 34 33 32 33 32 32 32 32 31 30 30 29 29 31 31 30 31 29 29 27
39 39 38 39 39 39 39 35 34 29 28 27 26 27 25 24 26 28 29 30 30 31 32 33 32 32 31 31 32 31 32 32 31 31 29 29 29 30 29 30 30 30 27
35 35 36 36 37 37 36 36 28 28 27 27 26 25 26 27 27 28 29 29 31 32 32 30 29 29 29 30 29 29 30 29 30 31 30 30 29 28 28 28 29 28 27
30 33 34 34 34 33 32 32 30 33 30 28 27 27 26 26 27 27 29 31 32 32 30 29 28 28 30 31 31 31 30 30 32 30 30 30 30 29 29 27 27 27 26
29 30 30 31 31 30 30 29 30 28 28 29 30 28 27 27 27 27 28 31 30 31 30 28 27 28 29 29 29 28 28 28 30 31 30 30 30 30 29 29 29 28 28
29 30 29 30 30 30 30 30 30 29 29 29 29 29 26 26 28 27 27 25 25 25 27 27 26 25 25 26 26 26 27 26 27 27 28 28 28 30 28 28 27 27 30
30 29 29 29 30 30 29 29 29 28 28 28 27 24 24 24 25 24 24 23 22 23 23 24 24 23 23 23 25 25 25 25 26 27 27 27 28 29 28 27 28 28 28
29 29 28 30 29 29 28 27 27 27 26 26 26 21 18 21 23 23 22 21 20 21 20 21 21 21 21 22 22 22 22 22 23 24 25 25 26 26 28 28 27 27 28
29 29 28 28 28 27 26 26 26 25 25 25 25 25 22 23 22 21 21 19 20 20 20 20 19 20 19 18 18 18 19 18 18 19 22 24 25 25 26 25 25 25 26
28 27 27 27 26 25 24 25 24 23 23 23 23 24 23 22 21 21 20 19 20 19 18 18 17 16 17 18 18 17 15 14 16 16 17 21 23 22 24 23 23 23 21
27 25 25 25 24 23 22 22 22 22 22 22 22 22 21 22 21 20 20 19 18 18 18 17 16 13 13 14 15 15 12 10 13 14 16 18 20 21 22 22 21 19 20
26 24 23 23 22 22 21 21 21 21 21 21 20 20 21 21 20 20 20 19 18 17 17 16 15 15 13 11 10 9 7 6 8 7 15 18 17 18 16 19 17 20 17
25 24 24 23 22 21 21 20 19 20 19 19 19 20 20 20 20 20 19 19 17 17 17 17 16 12 12 15 11 7 6 6 6 7 10 17 16 17 16 17 16 18 16